GFSGL_850_dewp_000.txt.gz
Dewpoint
-2 -1 -2 -3 -5 -5 -4 -5 -6 -6 -3 -1 -4 -6 -8 -10 -10 -9 -9 -9 -9 -9 -9 -9 -10 -10 -10 -10 -10 -10 -9 -9 -8 -7 -7 -6 -6 -6 -6 -7 -7 -7 -6
-0 -1 -2 -4 -5 -5 -5 -5 -6 -7 -7 -7 -10 -11 -11 -10 -9 -8 -8 -10 -12 -14 -14 -14 -13 -12 -10 -10 -10 -10 -10 -10 -9 -8 -8 -8 -8 -7 -7 -7 -6 -6 -7
1 -3 -4 -5 -6 -7 -7 -8 -8 -8 -6 -11 -12 -12 -11 -9 -11 -12 -12 -13 -12 -12 -11 -11 -10 -10 -11 -10 -10 -9 -9 -8 -8 -7 -6 -7 -7 -8 -7 -6 -6 -6 -6
-1 -2 -6 -7 -8 -9 -8 -7 -7 -6 -5 -10 -10 -10 -9 -10 -11 -13 -12 -12 -12 -10 -10 -10 -10 -10 -10 -9 -9 -9 -8 -8 -8 -7 -7 -6 -6 -6 -6 -6 -6 -8 -7
-2 -2 -7 -8 -8 -7 -5 -5 -3 -4 -9 -9 -9 -9 -9 -11 -13 -12 -12 -11 -10 -10 -10 -11 -11 -10 -10 -10 -9 -9 -9 -10 -10 -10 -9 -9 -9 -8 -7 -7 -7 -7 -8
-0 -0 -3 -4 -4 -4 -2 -2 -6 -7 -8 -8 -8 -10 -13 -13 -14 -12 -10 -10 -10 -10 -10 -11 -12 -12 -13 -12 -12 -13 -13 -12 -12 -11 -9 -9 -9 -8 -8 -8 -8 -7 -7
-1 -1 -1 -2 -2 -5 -5 -6 -6 -8 -8 -9 -12 -13 -15 -13 -11 -10 -10 -11 -12 -13 -12 -12 -11 -11 -11 -11 -11 -11 -11 -11 -10 -10 -9 -9 -8 -8 -9 -9 -8 -8 -7
-3 -2 -2 -2 -2 -6 -8 -9 -9 -10 -12 -14 -14 -14 -13 -12 -12 -12 -11 -12 -13 -12 -11 -11 -11 -11 -11 -11 -11 -9 -10 -11 -10 -10 -9 -9 -9 -9 -9 -9 -9 -8 -9
-6 -7 -7 -6 -5 -6 -7 -9 -12 -13 -14 -13 -13 -13 -12 -12 -11 -12 -13 -13 -11 -11 -12 -12 -11 -10 -11 -10 -10 -10 -10 -11 -11 -11 -11 -10 -9 -9 -9 -8 -8 -8 -8
-6 -8 -7 -8 -11 -12 -13 -14 -14 -13 -13 -14 -13 -12 -11 -12 -14 -14 -12 -10 -11 -11 -11 -11 -11 -11 -11 -11 -10 -10 -10 -10 -10 -10 -9 -9 -9 -9 -9 -8 -8 -8 -7
-5 -6 -11 -14 -15 -15 -14 -13 -13 -14 -14 -12 -12 -12 -12 -13 -13 -12 -11 -11 -10 -10 -10 -10 -10 -11 -10 -9 -10 -10 -10 -10 -10 -9 -9 -9 -9 -9 -8 -9 -9 -8 -8
-9 -11 -16 -16 -14 -13 -12 -12 -14 -12 -11 -11 -11 -13 -14 -13 -13 -12 -11 -11 -10 -10 -9 -10 -10 -10 -10 -9 -9 -9 -9 -9 -9 -9 -9 -9 -9 -9 -10 -9 -9 -9 -8
-12 -16 -15 -15 -14 -12 -12 -12 -11 -11 -10 -12 -13 -13 -13 -13 -13 -11 -11 -11 -10 -9 -10 -10 -10 -11 -11 -10 -11 -9 -9 -9 -9 -9 -9 -9 -9 -10 -10 -9 -9 -8 -8
-16 -17 -16 -15 -13 -12 -12 -12 -11 -11 -13 -11 -13 -13 -12 -13 -13 -12 -11 -11 -10 -10 -11 -12 -11 -12 -11 -10 -10 -9 -9 -8 -8 -8 -8 -8 -8 -8 -8 -9 -9 -9 -8
-15 -14 -14 -13 -12 -11 -11 -12 -12 -12 -12 -11 -13 -12 -12 -12 -12 -11 -11 -10 -10 -10 -11 -12 -12 -12 -11 -10 -10 -8 -8 -8 -8 -8 -8 -8 -8 -9 -9 -9 -9 -8 -7
-13 -12 -11 -10 -10 -11 -11 -12 -11 -12 -12 -13 -13 -12 -12 -12 -12 -11 -11 -11 -10 -11 -11 -12 -12 -12 -11 -11 -10 -9 -8 -8 -8 -7 -8 -8 -9 -9 -9 -9 -8 -7 -7
-11 -10 -9 -8 -8 -10 -11 -12 -12 -12 -13 -14 -13 -13 -12 -12 -12 -11 -11 -11 -11 -11 -12 -12 -12 -12 -12 -12 -11 -10 -9 -8 -8 -7 -7 -8 -7 -7 -7 -7 -7 -7 -7
-9 -10 -8 -8 -9 -10 -11 -12 -12 -13 -13 -15 -14 -13 -12 -12 -12 -12 -11 -11 -11 -11 -12 -12 -12 -12 -12 -12 -12 -11 -10 -9 -9 -8 -7 -7 -7 -7 -7 -7 -7 -7 -6
-8 -8 -8 -9 -10 -10 -11 -11 -12 -12 -13 -15 -14 -14 -13 -13 -12 -12 -12 -12 -12 -12 -12 -12 -12 -12 -12 -12 -12 -12 -12 -11 -10 -9 -8 -8 -8 -8 -7 -7 -7 -7 -7
-8 -8 -9 -10 -10 -10 -11 -12 -12 -13 -14 -14 -14 -14 -13 -13 -13 -13 -13 -13 -12 -12 -12 -12 -12 -12 -12 -12 -13 -13 -13 -12 -12 -11 -10 -9 -8 -8 -8 -9 -9 -9 -8
-9 -9 -9 -10 -11 -11 -12 -12 -13 -13 -15 -14 -14 -14 -14 -14 -14 -14 -13 -13 -13 -13 -13 -13 -12 -12 -12 -13 -13 -13 -13 -13 -13 -12 -12 -11 -10 -9 -9 -9 -9 -9 -10
-9 -9 -10 -10 -11 -12 -12 -12 -13 -13 -14 -14 -14 -14 -14 -14 -14 -14 -14 -14 -14 -13 -13 -13 -13 -13 -13 -13 -13 -13 -13 -13 -13 -13 -12 -13 -12 -11 -11 -10 -10 -10 -10
-8 -9 -10 -11 -11 -12 -12 -13 -13 -13 -14 -14 -15 -15 -15 -15 -14 -15 -14 -14 -14 -14 -14 -13 -13 -13 -13 -13 -13 -13 -13 -13 -13 -13 -13 -13 -13 -13 -12 -12 -12 -11 -11
-9 -10 -11 -11 -12 -12 -12 -13 -13 -14 -14 -14 -15 -15 -15 -15 -15 -15 -15 -15 -16 -22 -22 -20 -18 -17 -15 -15 -15 -15 -16 -15 -14 -14 -13 -13 -13 -13 -13 -13 -13 -13 -13
-10 -10 -11 -11 -12 -12 -13 -13 -14 -14 -14 -14 -15 -16 -16 -15 -15 -15 -15 -19 -31 -33 -33 -34 -33 -28 -24 -21 -20 -19 -17 -17 -18 -19 -18 -15 -14 -13 -14 -14 -14 -13 -13
-10 -10 -11 -11 -12 -12 -13 -14 -14 -14 -14 -15 -15 -16 -16 -16 -15 -16 -20 -29 -32 -34 -35 -35 -35 -35 -35 -35 -32 -27 -24 -22 -21 -20 -20 -21 -20 -16 -14 -14 -14 -14 -14

GFSGL_850_dewp_003.txt.gz
Dewpoint
-3 -2 -2 -5 -5 -4 -4 -4 -5 -6 -7 -5 -3 -3 -6 -10 -10 -9 -9 -9 -8 -8 -9 -12 -14 -15 -16 -16 -15 -13 -11 -10 -9 -8 -8 -9 -9 -9 -9 -9 -7 -7 -7
-1 0 -2 -5 -5 -4 -5 -6 -7 -7 -3 -5 -8 -11 -13 -12 -12 -11 -10 -12 -14 -13 -15 -14 -14 -14 -13 -12 -11 -11 -11 -11 -10 -8 -7 -8 -9 -9 -9 -9 -9 -9 -8
-0 -1 -3 -5 -5 -5 -7 -7 -7 -7 -6 -6 -7 -11 -11 -12 -12 -11 -12 -13 -15 -14 -12 -12 -11 -10 -10 -10 -10 -10 -10 -9 -8 -7 -7 -7 -7 -8 -8 -8 -8 -10 -11
-2 -4 -5 -2 -7 -8 -7 -6 -6 -6 -3 -5 -8 -9 -10 -10 -10 -11 -14 -15 -14 -13 -12 -10 -10 -10 -10 -10 -10 -11 -10 -10 -10 -10 -9 -8 -8 -9 -9 -9 -9 -11 -12
-5 -4 -1 -5 -8 -7 -6 -5 -5 -3 -4 -6 -7 -9 -9 -10 -13 -14 -15 -13 -11 -10 -10 -11 -11 -11 -11 -11 -12 -11 -11 -10 -9 -8 -9 -9 -10 -9 -9 -10 -10 -12 -14
-4 -3 -1 -2 -3 -3 -3 -3 -4 -5 -4 -4 -7 -10 -12 -14 -14 -12 -11 -10 -10 -11 -12 -14 -15 -14 -13 -13 -13 -12 -12 -10 -10 -10 -10 -10 -10 -9 -10 -10 -10 -10 -9
-3 -4 -3 -2 -2 -3 -4 -6 -7 -7 -8 -10 -12 -13 -15 -14 -12 -11 -11 -12 -12 -14 -14 -14 -13 -12 -12 -11 -12 -12 -11 -11 -10 -10 -9 -9 -9 -9 -10 -9 -9 -9 -9
-2 -4 -6 -6 -6 -6 -6 -6 -8 -11 -11 -13 -14 -13 -13 -13 -12 -11 -12 -13 -15 -14 -13 -12 -12 -12 -12 -12 -10 -10 -10 -11 -11 -11 -10 -10 -10 -10 -10 -9 -9 -9 -9
-5 -5 -5 -7 -9 -10 -11 -12 -13 -13 -13 -13 -13 -13 -12 -12 -12 -12 -15 -14 -14 -12 -11 -12 -11 -11 -11 -11 -10 -10 -10 -11 -11 -10 -10 -11 -11 -10 -9 -9 -9 -9 -8
-6 -6 -6 -11 -12 -14 -15 -14 -12 -12 -13 -13 -12 -11 -11 -12 -14 -15 -13 -13 -11 -11 -11 -12 -11 -11 -11 -10 -10 -10 -10 -11 -11 -11 -10 -10 -10 -10 -9 -9 -8 -8 -8
-6 -8 -11 -15 -15 -14 -13 -12 -12 -13 -12 -12 -12 -12 -14 -15 -14 -13 -13 -11 -11 -11 -11 -11 -10 -10 -11 -11 -10 -10 -9 -9 -10 -10 -10 -10 -10 -9 -10 -10 -9 -8 -8
-9 -12 -16 -15 -15 -14 -13 -12 -12 -13 -13 -13 -14 -15 -15 -16 -14 -13 -12 -11 -11 -10 -10 -10 -11 -11 -11 -11 -11 -10 -10 -9 -9 -9 -9 -10 -10 -9 -10 -10 -9 -8 -8
-14 -15 -16 -15 -15 -13 -12 -12 -12 -13 -13 -14 -13 -14 -15 -15 -14 -13 -12 -12 -11 -10 -10 -11 -11 -12 -12 -12 -11 -11 -10 -10 -10 -9 -9 -9 -9 -9 -9 -9 -9 -8 -8
-15 -14 -13 -14 -13 -12 -11 -11 -12 -13 -13 -12 -13 -13 -13 -14 -13 -12 -11 -11 -11 -10 -10 -11 -11 -12 -12 -11 -10 -10 -9 -9 -8 -8 -8 -9 -9 -9 -9 -9 -9 -9 -8
-14 -12 -11 -11 -10 -9 -10 -10 -11 -12 -12 -12 -13 -13 -12 -13 -12 -12 -12 -11 -11 -11 -11 -11 -12 -12 -12 -12 -11 -10 -9 -8 -8 -8 -8 -8 -8 -9 -9 -9 -9 -9 -9
-12 -10 -10 -10 -8 -8 -9 -11 -11 -13 -13 -13 -15 -13 -13 -12 -12 -12 -12 -11 -11 -11 -11 -12 -13 -13 -12 -12 -11 -11 -10 -9 -8 -8 -8 -8 -8 -8 -9 -9 -9 -9 -8
-10 -9 -8 -10 -9 -9 -10 -11 -11 -13 -13 -14 -15 -14 -13 -13 -13 -12 -12 -12 -11 -11 -12 -12 -13 -12 -12 -12 -12 -12 -11 -10 -9 -8 -8 -8 -8 -8 -8 -8 -8 -8 -8
-8 -7 -8 -9 -9 -10 -11 -11 -11 -13 -13 -15 -16 -14 -13 -13 -13 -13 -12 -12 -11 -12 -12 -13 -13 -12 -12 -12 -12 -12 -12 -11 -9 -9 -8 -8 -8 -7 -7 -8 -8 -8 -7
-7 -7 -8 -9 -10 -11 -11 -11 -12 -13 -14 -15 -15 -15 -14 -13 -13 -13 -13 -12 -12 -13 -13 -13 -13 -12 -12 -13 -13 -13 -12 -12 -11 -10 -9 -9 -9 -8 -8 -8 -8 -8 -8
-7 -8 -9 -10 -10 -11 -11 -12 -13 -14 -14 -15 -15 -15 -14 -14 -13 -13 -13 -13 -13 -13 -13 -13 -13 -13 -13 -13 -13 -13 -13 -13 -13 -12 -11 -10 -10 -9 -9 -9 -9 -9 -9
-8 -9 -9 -10 -10 -12 -13 -13 -13 -13 -14 -14 -15 -15 -15 -14 -14 -14 -14 -14 -13 -13 -13 -13 -13 -13 -13 -13 -13 -13 -13 -13 -13 -13 -13 -12 -11 -11 -11 -10 -10 -10 -10
-9 -9 -10 -10 -11 -12 -13 -13 -13 -13 -14 -14 -15 -15 -15 -15 -15 -15 -14 -14 -14 -14 -14 -14 -13 -13 -13 -13 -13 -14 -13 -13 -13 -13 -13 -13 -13 -12 -12 -11 -11 -11 -11
-9 -9 -10 -10 -11 -12 -13 -13 -14 -14 -14 -14 -15 -16 -15 -15 -15 -15 -15 -15 -14 -17 -20 -18 -16 -15 -14 -15 -15 -17 -17 -16 -14 -13 -13 -13 -13 -13 -13 -13 -12 -12 -12
-9 -10 -11 -11 -12 -12 -13 -13 -14 -14 -14 -15 -15 -16 -16 -16 -16 -16 -15 -17 -29 -32 -33 -32 -27 -23 -21 -20 -19 -18 -17 -17 -18 -18 -15 -14 -14 -14 -14 -14 -13 -13 -13
-10 -10 -11 -11 -12 -12 -12 -14 -15 -15 -15 -15 -16 -16 -16 -16 -16 -16 -16 -26 -33 -34 -34 -34 -35 -34 -32 -30 -26 -23 -20 -20 -21 -21 -22 -20 -16 -14 -14 -14 -14 -14 -14
-10 -10 -11 -11 -12 -12 -12 -12 -13 -15 -15 -15 -16 -19 -18 -16 -15 -16 -22 -31 -33 -34 -35 -36 -36 -36 -36 -35 -34 -33 -32 -32 -30 -27 -25 -24 -24 -21 -17 -16 -15 -15 -15

GFSGL_850_dewp_006.txt.gz
Dewpoint
-6 -3 -1 -3 -6 -8 -7 -5 -4 -4 -5 -5 -4 -3 -3 -5 -10 -10 -9 -8 -9 -10 -12 -13 -15 -16 -16 -15 -15 -14 -13 -11 -9 -10 -10 -10 -11 -10 -10 -10 -11 -10 -9
-1 -1 -3 -5 -7 -4 -5 -5 -5 -6 -6 -6 -4 -4 -8 -9 -11 -13 -12 -11 -11 -12 -13 -17 -17 -16 -15 -14 -12 -11 -11 -10 -9 -9 -9 -8 -8 -8 -8 -8 -8 -11 -13
-1 -3 -5 -7 -4 -5 -6 -6 -6 -7 -5 -5 -3 -4 -7 -8 -9 -9 -10 -11 -13 -17 -17 -17 -15 -13 -11 -10 -10 -10 -10 -10 -10 -10 -10 -9 -9 -9 -9 -8 -9 -9 -11
-4 -4 -6 -5 -3 -7 -6 -6 -6 -5 -4 -3 -3 -4 -5 -7 -10 -10 -12 -15 -16 -16 -14 -12 -11 -10 -10 -11 -11 -12 -12 -12 -12 -11 -11 -11 -10 -11 -11 -11 -11 -11 -12
-4 -4 -4 -2 -2 -5 -6 -6 -5 -4 -4 -3 -4 -4 -5 -7 -10 -13 -14 -14 -13 -14 -14 -13 -13 -14 -16 -16 -14 -14 -13 -11 -9 -9 -9 -8 -8 -8 -9 -12 -12 -15 -15
-3 -2 -2 -3 -3 -3 -4 -4 -5 -5 -5 -6 -8 -8 -10 -12 -13 -12 -12 -11 -11 -12 -13 -14 -16 -16 -14 -13 -13 -12 -11 -10 -10 -10 -10 -10 -9 -9 -10 -11 -11 -11 -10
-3 -3 -5 -6 -6 -6 -8 -8 -7 -8 -10 -11 -12 -12 -13 -13 -12 -11 -11 -12 -13 -14 -15 -15 -14 -13 -12 -12 -12 -12 -11 -11 -10 -10 -10 -10 -10 -10 -10 -9 -10 -10 -11
-4 -5 -6 -7 -8 -9 -10 -12 -13 -13 -13 -13 -13 -13 -13 -13 -12 -12 -13 -14 -16 -15 -14 -13 -11 -12 -12 -11 -10 -10 -10 -10 -10 -10 -11 -11 -10 -10 -10 -10 -9 -9 -10
-6 -6 -8 -8 -10 -12 -15 -15 -13 -12 -12 -13 -13 -12 -12 -12 -13 -15 -16 -15 -14 -13 -12 -11 -12 -11 -11 -11 -10 -10 -11 -11 -11 -11 -10 -10 -10 -10 -10 -10 -9 -9 -9
-6 -6 -9 -11 -14 -16 -16 -14 -13 -12 -12 -12 -13 -13 -13 -15 -15 -16 -14 -13 -12 -11 -11 -12 -11 -10 -10 -11 -11 -10 -10 -10 -10 -10 -10 -10 -11 -10 -10 -9 -9 -9 -9
-6 -9 -11 -16 -17 -16 -15 -13 -13 -12 -13 -13 -14 -14 -14 -14 -16 -15 -13 -11 -11 -11 -11 -11 -10 -10 -11 -11 -11 -11 -11 -11 -10 -10 -9 -9 -10 -10 -10 -9 -9 -9 -9
-8 -12 -15 -15 -14 -14 -13 -13 -12 -11 -12 -13 -13 -14 -15 -16 -16 -14 -13 -12 -11 -11 -11 -10 -10 -11 -11 -12 -12 -11 -11 -11 -11 -11 -10 -9 -9 -10 -10 -10 -9 -9 -9
-11 -14 -14 -13 -12 -11 -11 -11 -11 -11 -12 -12 -13 -13 -15 -16 -15 -13 -12 -12 -11 -11 -10 -11 -11 -11 -12 -12 -11 -11 -10 -10 -10 -9 -9 -9 -9 -9 -9 -9 -9 -9 -9
-13 -14 -13 -11 -10 -10 -10 -9 -10 -11 -12 -13 -13 -14 -14 -14 -14 -13 -13 -12 -12 -11 -11 -11 -11 -12 -12 -11 -11 -10 -10 -9 -9 -9 -8 -8 -9 -9 -9 -9 -9 -9 -9
-12 -13 -11 -9 -9 -10 -9 -9 -10 -11 -12 -12 -13 -14 -13 -13 -13 -13 -13 -12 -12 -12 -12 -11 -12 -12 -13 -12 -11 -11 -10 -9 -9 -8 -8 -8 -8 -9 -9 -9 -9 -9 -9
-11 -11 -9 -8 -8 -10 -10 -10 -11 -11 -12 -13 -14 -15 -14 -14 -13 -13 -13 -12 -12 -12 -12 -12 -12 -13 -13 -13 -12 -12 -11 -10 -9 -9 -8 -9 -8 -8 -8 -9 -9 -9 -9
-11 -9 -7 -7 -9 -10 -10 -11 -12 -12 -13 -15 -16 -15 -15 -13 -13 -13 -13 -13 -13 -12 -12 -12 -13 -13 -13 -13 -13 -12 -12 -11 -10 -9 -9 -9 -8 -8 -8 -8 -8 -8 -8
-10 -7 -7 -8 -9 -10 -11 -11 -12 -13 -14 -15 -16 -15 -15 -14 -13 -14 -13 -13 -12 -12 -13 -13 -13 -13 -13 -13 -13 -13 -12 -12 -11 -10 -9 -9 -8 -8 -8 -8 -8 -8 -8
-7 -7 -8 -9 -10 -10 -11 -12 -13 -14 -14 -14 -16 -16 -15 -14 -14 -14 -14 -13 -13 -13 -13 -13 -13 -13 -13 -13 -13 -13 -13 -12 -12 -11 -11 -10 -10 -9 -9 -9 -9 -8 -8
-8 -8 -9 -10 -10 -10 -12 -13 -14 -14 -14 -14 -15 -16 -15 -15 -15 -14 -14 -14 -14 -14 -14 -14 -13 -13 -13 -13 -13 -13 -13 -13 -13 -13 -12 -11 -11 -10 -10 -10 -10 -10 -9
-8 -9 -10 -10 -10 -11 -12 -13 -13 -14 -14 -14 -15 -15 -15 -15 -15 -15 -15 -14 -14 -14 -14 -14 -14 -13 -14 -14 -15 -16 -14 -13 -13 -13 -13 -13 -12 -12 -11 -11 -11 -11 -11
-9 -9 -10 -10 -10 -11 -12 -13 -14 -14 -15 -15 -15 -16 -16 -15 -15 -15 -15 -15 -15 -15 -20 -19 -17 -16 -16 -17 -18 -17 -18 -17 -14 -13 -13 -13 -13 -13 -12 -12 -12 -12 -12
-9 -9 -10 -10 -11 -12 -13 -13 -14 -14 -15 -15 -16 -16 -16 -16 -16 -15 -15 -16 -22 -32 -33 -32 -27 -23 -21 -20 -19 -18 -18 -19 -19 -16 -14 -14 -14 -14 -14 -13 -13 -13 -13
-10 -10 -10 -11 -11 -12 -12 -13 -14 -15 -15 -16 -16 -17 -16 -16 -16 -16 -16 -29 -33 -34 -34 -34 -34 -33 -31 -28 -25 -23 -22 -20 -21 -23 -20 -15 -14 -14 -14 -14 -14 -13 -13
-10 -10 -10 -11 -11 -11 -12 -12 -13 -13 -15 -15 -16 -21 -18 -15 -16 -16 -19 -30 -32 -34 -35 -35 -35 -35 -35 -34 -33 -32 -31 -29 -28 -26 -24 -24 -22 -18 -16 -15 -15 -15 -14
-10 -10 -11 -11 -11 -11 -12 -12 -12 -13 -15 -15 -18 -24 -23 -28 -22 -16 -15 -15 -26 -33 -34 -36 -35 -35 -34 -34 -34 -34 -34 -33 -34 -33 -31 -30 -31 -32 -30 -27 -22 -19 -17

GFSGL_850_dewp_009.txt.gz
Dewpoint
-1 -0 -1 -4 -7 -8 -8 -5 -5 -4 -3 -6 -6 -6 -3 -2 -3 -6 -9 -11 -11 -11 -11 -12 -13 -14 -16 -15 -10 -9 -9 -9 -9 -10 -9 -8 -8 -8 -8 -8 -7 -7 -8
-0 -2 -4 -5 -6 -6 -5 -6 -4 -5 -8 -6 -5 -4 -3 -4 -5 -8 -8 -9 -10 -11 -15 -17 -18 -17 -15 -15 -12 -9 -8 -8 -8 -9 -9 -8 -7 -7 -7 -6 -6 -6 -6
-3 -5 -5 -4 -4 -4 -6 -6 -5 -6 -5 -5 -4 -3 -3 -4 -5 -7 -10 -11 -12 -14 -16 -16 -14 -13 -11 -10 -10 -9 -9 -9 -9 -9 -10 -10 -9 -8 -8 -8 -8 -7 -7
-6 -6 -4 -3 -3 -3 -4 -5 -5 -4 -4 -4 -4 -5 -6 -6 -6 -7 -9 -12 -14 -15 -14 -13 -12 -12 -11 -11 -11 -11 -11 -10 -10 -10 -10 -10 -10 -10 -9 -9 -8 -8 -8
-5 -3 -3 -3 -3 -3 -4 -5 -6 -7 -8 -8 -8 -9 -9 -9 -11 -12 -13 -14 -13 -13 -13 -13 -13 -14 -15 -16 -13 -10 -9 -9 -9 -9 -9 -9 -9 -9 -8 -8 -8 -8 -7
-3 -4 -3 -4 -6 -7 -9 -9 -10 -11 -11 -12 -11 -12 -12 -13 -13 -13 -12 -11 -12 -12 -10 -12 -14 -17 -17 -14 -12 -12 -10 -9 -9 -9 -9 -9 -10 -10 -10 -9 -9 -9 -9
-5 -5 -7 -7 -8 -9 -10 -12 -14 -16 -15 -14 -13 -13 -14 -13 -13 -12 -12 -12 -12 -12 -11 -11 -11 -11 -11 -10 -10 -11 -10 -10 -10 -10 -10 -9 -9 -9 -9 -9 -9 -9 -9
-7 -7 -6 -7 -10 -11 -14 -17 -16 -15 -14 -14 -14 -13 -13 -13 -13 -14 -15 -15 -12 -11 -11 -11 -10 -10 -10 -11 -10 -10 -10 -10 -10 -10 -10 -10 -9 -9 -10 -9 -9 -9 -9
-7 -6 -6 -9 -12 -17 -17 -17 -15 -15 -14 -14 -13 -13 -13 -14 -14 -15 -16 -12 -11 -11 -12 -11 -11 -10 -10 -10 -10 -10 -10 -10 -10 -11 -11 -10 -10 -10 -10 -9 -9 -9 -9
-6 -7 -7 -11 -16 -16 -14 -14 -14 -13 -12 -12 -12 -12 -13 -14 -15 -16 -14 -12 -11 -11 -11 -11 -10 -10 -10 -10 -11 -11 -10 -10 -10 -10 -9 -9 -9 -9 -9 -10 -10 -9 -9
-8 -7 -8 -14 -15 -13 -12 -12 -12 -11 -11 -11 -12 -13 -14 -15 -17 -17 -14 -12 -12 -11 -11 -10 -10 -10 -10 -11 -11 -11 -11 -11 -11 -11 -10 -9 -9 -9 -9 -9 -10 -9 -8
-7 -8 -11 -14 -13 -11 -10 -10 -10 -9 -10 -11 -12 -12 -12 -13 -14 -15 -13 -12 -12 -12 -11 -11 -11 -11 -11 -12 -12 -11 -11 -11 -10 -10 -10 -10 -9 -9 -9 -9 -9 -9 -9
-8 -9 -13 -13 -12 -9 -9 -9 -9 -9 -10 -11 -11 -12 -12 -12 -13 -13 -13 -12 -12 -11 -11 -11 -11 -11 -12 -12 -12 -11 -11 -10 -10 -10 -9 -9 -9 -9 -9 -9 -9 -9 -9
-9 -10 -11 -11 -10 -8 -8 -9 -9 -10 -11 -11 -12 -12 -13 -13 -13 -13 -13 -13 -12 -12 -12 -12 -12 -12 -12 -12 -12 -11 -11 -10 -10 -9 -9 -8 -8 -9 -9 -9 -9 -9 -9
-9 -10 -10 -10 -8 -7 -9 -10 -10 -10 -11 -12 -13 -13 -14 -13 -14 -13 -13 -13 -13 -12 -12 -12 -12 -12 -13 -13 -13 -12 -11 -10 -10 -9 -9 -8 -8 -8 -9 -9 -9 -9 -9
-9 -10 -10 -8 -7 -8 -10 -11 -11 -12 -13 -14 -15 -15 -14 -14 -14 -14 -13 -13 -13 -13 -13 -13 -13 -13 -13 -13 -13 -13 -12 -11 -10 -9 -9 -9 -8 -8 -8 -9 -9 -9 -9
-11 -10 -9 -7 -8 -9 -11 -11 -12 -14 -15 -15 -16 -16 -16 -15 -14 -14 -13 -13 -13 -13 -13 -13 -13 -13 -13 -13 -13 -13 -12 -12 -11 -10 -10 -9 -8 -8 -8 -8 -8 -8 -8
-8 -7 -8 -8 -9 -10 -10 -11 -13 -14 -15 -15 -15 -16 -16 -15 -14 -14 -14 -13 -13 -13 -14 -14 -13 -13 -13 -13 -13 -13 -13 -13 -12 -11 -11 -10 -9 -9 -9 -8 -8 -8 -8
-9 -9 -9 -10 -10 -10 -11 -12 -13 -14 -15 -15 -16 -17 -17 -15 -15 -14 -14 -14 -14 -14 -14 -14 -14 -14 -14 -14 -14 -13 -13 -13 -13 -13 -12 -11 -10 -10 -9 -9 -9 -9 -8
-9 -8 -9 -10 -10 -10 -11 -13 -14 -15 -16 -15 -16 -17 -16 -15 -15 -15 -15 -15 -15 -15 -14 -14 -14 -14 -15 -16 -17 -16 -14 -13 -13 -13 -13 -12 -12 -11 -10 -10 -10 -10 -9
-10 -9 -9 -10 -10 -11 -12 -13 -14 -16 -16 -16 -17 -17 -16 -15 -15 -15 -15 -15 -15 -17 -22 -20 -18 -17 -18 -17 -17 -18 -19 -16 -13 -13 -13 -13 -13 -12 -11 -11 -11 -11 -11
-10 -10 -9 -10 -11 -11 -12 -12 -14 -17 -17 -18 -19 -18 -16 -15 -16 -16 -16 -19 -26 -31 -32 -30 -25 -21 -20 -20 -19 -19 -20 -21 -19 -15 -14 -14 -14 -13 -13 -12 -12 -12 -12
-10 -10 -10 -11 -11 -11 -11 -12 -13 -15 -17 -18 -21 -20 -16 -16 -16 -16 -18 -26 -32 -32 -33 -32 -31 -29 -25 -23 -22 -23 -23 -23 -22 -21 -17 -15 -14 -14 -14 -13 -13 -13 -13
-10 -10 -10 -11 -11 -11 -11 -12 -12 -13 -16 -17 -19 -22 -18 -15 -16 -16 -17 -24 -31 -32 -33 -34 -33 -33 -32 -31 -30 -28 -27 -27 -26 -25 -25 -24 -19 -16 -15 -15 -14 -14 -14
-10 -10 -11 -11 -11 -11 -11 -11 -12 -12 -15 -17 -19 -25 -25 -26 -18 -15 -15 -15 -17 -31 -33 -34 -34 -33 -33 -33 -33 -33 -33 -33 -32 -31 -30 -31 -31 -29 -25 -20 -18 -16 -16
-11 -11 -11 -11 -11 -11 -10 -11 -11 -12 -13 -17 -18 -27 -31 -31 -30 -27 -24 -20 -18 -25 -35 -35 -35 -34 -34 -34 -33 -33 -33 -32 -32 -32 -32 -32 -32 -32 -32 -30 -25 -22 -19

GFSGL_850_dewp_015.txt.gz
Dewpoint
-1 -1 -1 -2 -2 -3 -3 -3 -3 -2 -3 -2 -2 -2 -2 -3 -3 -4 -3 -3 -3 -3 -4 -5 -5 -6 -7 -9 -9 -9 -7 -8 -8 -9 -10 -11 -11 -10 -10 -9 -8 -7 -7
-2 -3 -4 -4 -3 -3 -2 -3 -2 -3 -2 -2 -3 -4 -3 -4 -4 -4 -4 -4 -4 -4 -4 -4 -5 -7 -8 -9 -9 -9 -10 -10 -10 -10 -10 -10 -10 -10 -10 -9 -8 -8 -8
-3 -5 -5 -5 -3 -3 -3 -4 -4 -4 -5 -5 -4 -4 -4 -6 -7 -9 -9 -7 -8 -7 -7 -7 -8 -9 -9 -9 -9 -9 -10 -10 -11 -11 -11 -12 -11 -11 -11 -10 -10 -9 -9
-5 -5 -5 -4 -4 -4 -4 -4 -6 -7 -8 -10 -10 -10 -10 -10 -10 -10 -8 -9 -9 -10 -9 -9 -9 -9 -9 -9 -9 -9 -10 -10 -11 -12 -12 -12 -12 -12 -12 -11 -11 -11 -10
-5 -5 -5 -5 -5 -4 -5 -6 -8 -9 -11 -11 -11 -11 -10 -10 -10 -10 -10 -10 -9 -10 -10 -10 -10 -10 -10 -10 -10 -10 -10 -10 -10 -11 -11 -12 -12 -12 -12 -11 -10 -10 -9
-6 -6 -6 -5 -4 -4 -6 -8 -11 -12 -11 -10 -10 -10 -10 -10 -10 -10 -10 -11 -11 -10 -10 -10 -10 -10 -10 -10 -11 -11 -10 -10 -10 -10 -10 -10 -10 -9 -9 -8 -8 -7 -7
-7 -7 -6 -4 -4 -6 -7 -11 -12 -11 -11 -10 -10 -10 -10 -10 -9 -10 -10 -11 -11 -10 -10 -10 -10 -11 -11 -11 -10 -8 -8 -9 -9 -9 -9 -9 -9 -9 -8 -8 -8 -7 -7
-6 -5 -4 -5 -5 -7 -8 -11 -11 -11 -10 -10 -10 -10 -9 -9 -8 -9 -10 -10 -10 -10 -10 -10 -10 -11 -10 -9 -9 -10 -9 -9 -9 -9 -9 -8 -9 -9 -9 -9 -8 -8 -8
-7 -8 -7 -5 -5 -7 -9 -10 -10 -10 -10 -11 -10 -8 -8 -8 -9 -10 -11 -11 -10 -10 -11 -10 -10 -10 -10 -10 -10 -10 -9 -9 -9 -9 -9 -10 -10 -11 -11 -10 -9 -8 -8
-6 -8 -7 -6 -6 -7 -9 -10 -10 -11 -10 -9 -8 -8 -9 -9 -9 -11 -11 -11 -12 -11 -11 -11 -11 -10 -10 -10 -10 -10 -10 -9 -9 -10 -9 -9 -9 -9 -11 -10 -11 -10 -10
-6 -7 -5 -3 -4 -7 -9 -10 -10 -10 -9 -7 -9 -9 -9 -9 -10 -10 -11 -11 -12 -11 -11 -11 -11 -9 -10 -10 -10 -11 -11 -11 -11 -11 -10 -10 -9 -9 -9 -8 -9 -9 -10
-3 -3 -3 -4 -5 -8 -9 -10 -9 -10 -8 -8 -9 -10 -9 -10 -10 -10 -11 -13 -13 -12 -12 -11 -11 -11 -11 -11 -11 -11 -12 -12 -11 -10 -10 -9 -9 -9 -8 -8 -8 -8 -8
-4 -5 -4 -5 -6 -9 -8 -10 -10 -9 -8 -9 -9 -10 -10 -11 -11 -11 -12 -13 -13 -13 -12 -12 -12 -11 -12 -12 -12 -12 -12 -11 -10 -10 -10 -9 -9 -9 -8 -8 -9 -8 -8
-5 -5 -5 -7 -8 -8 -10 -10 -10 -9 -9 -9 -10 -11 -11 -11 -12 -12 -13 -13 -13 -13 -13 -12 -12 -12 -12 -11 -11 -12 -11 -11 -11 -10 -10 -10 -9 -9 -8 -8 -8 -8 -8
-6 -7 -8 -8 -8 -8 -9 -9 -9 -8 -10 -11 -11 -12 -12 -13 -13 -14 -14 -13 -13 -13 -13 -12 -12 -12 -12 -12 -12 -12 -12 -12 -11 -11 -10 -10 -9 -9 -8 -8 -8 -8 -8
-7 -7 -7 -7 -7 -8 -9 -9 -9 -10 -10 -11 -12 -12 -14 -14 -14 -14 -14 -13 -13 -13 -13 -13 -13 -13 -13 -13 -13 -12 -12 -12 -12 -11 -11 -10 -10 -9 -8 -8 -9 -8 -7
-9 -7 -7 -7 -8 -8 -8 -8 -9 -9 -10 -10 -11 -13 -15 -15 -15 -15 -15 -14 -14 -13 -13 -13 -13 -14 -14 -13 -13 -13 -13 -13 -12 -12 -11 -11 -10 -10 -9 -8 -8 -8 -7
-8 -8 -8 -8 -8 -8 -9 -9 -9 -10 -10 -10 -11 -12 -13 -14 -15 -15 -15 -14 -14 -14 -14 -14 -14 -14 -14 -14 -13 -14 -13 -13 -13 -12 -12 -12 -11 -10 -10 -9 -9 -8 -8
-9 -8 -8 -8 -8 -9 -9 -9 -10 -10 -10 -10 -11 -12 -13 -14 -14 -14 -15 -15 -15 -15 -15 -15 -15 -15 -15 -15 -14 -14 -13 -13 -13 -13 -13 -12 -12 -11 -11 -10 -10 -9 -9
-8 -8 -9 -9 -9 -9 -9 -10 -10 -10 -10 -11 -11 -11 -13 -14 -14 -14 -14 -15 -15 -15 -16 -15 -15 -15 -15 -15 -15 -15 -14 -14 -14 -14 -13 -13 -12 -12 -11 -11 -11 -10 -10
-8 -9 -9 -9 -9 -9 -9 -10 -10 -10 -10 -11 -11 -12 -14 -14 -14 -14 -15 -15 -16 -16 -16 -16 -16 -16 -16 -16 -16 -16 -15 -15 -14 -14 -14 -13 -13 -12 -12 -12 -11 -11 -11
-9 -9 -9 -9 -9 -9 -10 -10 -10 -10 -11 -11 -11 -12 -13 -14 -14 -14 -15 -15 -16 -19 -26 -22 -17 -19 -21 -18 -18 -17 -16 -16 -16 -15 -15 -14 -13 -13 -12 -12 -12 -12 -12
-9 -9 -9 -9 -9 -10 -10 -10 -10 -10 -11 -11 -11 -12 -13 -13 -14 -14 -15 -15 -16 -19 -31 -33 -31 -32 -31 -31 -31 -30 -31 -30 -30 -28 -18 -15 -14 -14 -13 -13 -12 -13 -12
-9 -10 -9 -10 -9 -10 -10 -10 -10 -10 -11 -11 -11 -12 -12 -13 -14 -14 -15 -15 -15 -16 -26 -33 -33 -33 -33 -33 -32 -32 -32 -32 -32 -32 -27 -15 -15 -15 -14 -14 -13 -13 -13
-9 -9 -9 -10 -10 -10 -10 -10 -10 -10 -10 -11 -12 -12 -12 -13 -14 -14 -15 -15 -15 -16 -19 -24 -30 -32 -32 -32 -31 -31 -31 -32 -32 -33 -33 -23 -28 -27 -19 -15 -21 -13 -14
-9 -9 -10 -10 -10 -10 -10 -10 -10 -10 -10 -11 -11 -12 -12 -13 -14 -14 -15 -15 -16 -21 -24 -29 -30 -30 -31 -31 -31 -30 -30 -30 -32 -33 -33 -33 -33 -33 -33 -24 -29 -15 -15

GFSGL_850_dewp_018.txt.gz
Dewpoint
-2 -1 -2 -3 -4 -4 -3 -2 -3 -5 -5 -5 -4 -4 -5 -5 -5 -6 -6 -7 -7 -6 -6 -5 -4 -4 -4 -4 -5 -7 -7 -6 -5 -6 -7 -9 -9 -9 -7 -7 -5 -6 -8
-2 -3 -4 -5 -5 -4 -3 -4 -5 -5 -4 -4 -5 -6 -6 -6 -6 -6 -8 -8 -8 -7 -7 -7 -7 -8 -7 -8 -8 -9 -8 -8 -9 -9 -9 -9 -10 -11 -11 -10 -10 -9 -8
-3 -5 -5 -5 -5 -4 -4 -5 -3 -4 -6 -7 -9 -10 -10 -11 -10 -10 -10 -9 -8 -9 -12 -9 -9 -9 -9 -9 -9 -9 -9 -9 -9 -9 -9 -10 -11 -11 -12 -12 -11 -11 -10
-4 -5 -5 -5 -6 -5 -5 -5 -5 -6 -8 -10 -11 -11 -11 -10 -10 -10 -9 -10 -10 -11 -13 -12 -10 -10 -10 -9 -8 -8 -8 -8 -9 -10 -10 -11 -11 -11 -11 -11 -12 -12 -12
-5 -6 -6 -6 -6 -5 -5 -4 -6 -8 -11 -11 -11 -10 -10 -10 -10 -10 -11 -10 -10 -11 -12 -12 -11 -10 -10 -10 -10 -10 -10 -11 -12 -10 -9 -9 -9 -10 -9 -9 -8 -8 -7
-4 -4 -5 -5 -3 -4 -5 -6 -6 -10 -11 -11 -10 -10 -10 -9 -10 -10 -9 -9 -9 -10 -11 -12 -9 -9 -10 -9 -8 -9 -11 -11 -11 -10 -10 -10 -10 -10 -9 -9 -9 -9 -8
-4 -4 -5 -3 -3 -4 -5 -6 -6 -10 -10 -10 -10 -10 -10 -9 -9 -9 -8 -8 -10 -11 -11 -10 -10 -9 -9 -9 -9 -9 -9 -8 -9 -9 -10 -11 -11 -11 -11 -10 -11 -10 -9
-8 -8 -5 -5 -4 -5 -5 -6 -8 -9 -10 -10 -10 -10 -10 -10 -10 -9 -10 -11 -12 -13 -12 -12 -12 -11 -11 -11 -11 -12 -12 -12 -11 -11 -9 -9 -8 -9 -9 -9 -9 -9 -9
-9 -6 -5 -5 -4 -4 -5 -4 -8 -10 -10 -10 -8 -9 -9 -9 -10 -9 -9 -10 -11 -12 -14 -12 -12 -12 -12 -11 -10 -10 -11 -12 -11 -10 -9 -9 -9 -9 -9 -9 -10 -10 -11
-7 -4 -4 -3 -3 -5 -5 -5 -10 -9 -9 -9 -9 -9 -10 -10 -10 -10 -9 -10 -11 -11 -13 -13 -13 -12 -10 -10 -10 -10 -10 -10 -11 -12 -12 -12 -12 -11 -11 -11 -9 -9 -10
-7 -5 -5 -4 -4 -5 -6 -8 -9 -9 -8 -9 -9 -10 -11 -12 -10 -10 -11 -11 -12 -13 -13 -12 -12 -11 -10 -11 -11 -12 -12 -11 -11 -12 -12 -11 -10 -10 -10 -9 -9 -9 -9
-6 -7 -6 -5 -4 -5 -6 -7 -9 -9 -10 -9 -10 -11 -11 -10 -10 -12 -11 -12 -13 -13 -13 -12 -12 -12 -11 -11 -11 -11 -11 -12 -11 -10 -10 -10 -9 -9 -8 -8 -8 -8 -8
-7 -6 -6 -6 -6 -6 -6 -9 -10 -10 -9 -9 -11 -11 -11 -12 -13 -12 -13 -14 -13 -13 -13 -13 -12 -11 -12 -12 -11 -11 -11 -11 -10 -10 -10 -10 -9 -9 -9 -8 -8 -8 -8
-7 -7 -7 -8 -7 -8 -8 -9 -9 -9 -10 -10 -10 -12 -13 -13 -15 -14 -14 -14 -14 -13 -13 -12 -12 -12 -12 -12 -11 -11 -11 -11 -11 -10 -10 -10 -9 -9 -8 -8 -7 -8 -8
-7 -7 -7 -7 -7 -8 -8 -8 -8 -9 -9 -10 -11 -11 -12 -14 -14 -14 -14 -14 -14 -13 -13 -13 -13 -13 -13 -13 -12 -12 -12 -12 -12 -11 -11 -10 -10 -9 -9 -8 -8 -9 -8
-8 -9 -9 -8 -8 -9 -8 -8 -9 -9 -9 -11 -11 -11 -12 -13 -13 -14 -14 -14 -13 -13 -13 -13 -13 -14 -13 -13 -13 -13 -13 -12 -12 -12 -11 -11 -11 -10 -9 -8 -8 -8 -7
-7 -10 -9 -8 -9 -8 -8 -9 -9 -10 -10 -10 -10 -11 -12 -12 -13 -14 -14 -14 -13 -14 -14 -14 -14 -14 -14 -14 -14 -13 -13 -13 -13 -12 -12 -11 -11 -10 -9 -9 -8 -8 -8
-9 -10 -8 -8 -8 -8 -8 -9 -9 -10 -10 -10 -10 -11 -11 -12 -15 -13 -14 -14 -14 -14 -15 -14 -15 -14 -15 -15 -14 -14 -13 -13 -14 -13 -12 -12 -11 -11 -10 -10 -10 -10 -8
-8 -8 -9 -8 -8 -8 -9 -9 -9 -10 -10 -11 -11 -11 -11 -13 -14 -14 -14 -15 -15 -15 -16 -15 -15 -15 -15 -15 -15 -15 -14 -14 -14 -14 -13 -12 -11 -11 -11 -11 -11 -10 -10
-8 -8 -8 -9 -9 -9 -9 -9 -10 -10 -10 -11 -11 -11 -12 -13 -14 -14 -14 -15 -15 -16 -17 -17 -15 -16 -16 -16 -16 -15 -15 -15 -15 -14 -13 -13 -12 -12 -12 -11 -11 -11 -11
-8 -8 -9 -9 -9 -9 -9 -10 -10 -10 -10 -11 -11 -12 -12 -13 -14 -14 -14 -15 -15 -19 -23 -24 -18 -21 -24 -22 -21 -19 -19 -21 -19 -18 -15 -14 -13 -13 -12 -12 -12 -12 -12
-9 -9 -9 -9 -9 -9 -9 -10 -10 -10 -10 -11 -11 -12 -12 -12 -13 -14 -14 -14 -15 -15 -22 -30 -29 -30 -30 -30 -29 -29 -31 -31 -30 -28 -18 -15 -14 -14 -13 -13 -13 -13 -12
-9 -9 -9 -9 -10 -10 -10 -10 -10 -10 -10 -10 -11 -12 -12 -12 -13 -14 -14 -14 -15 -15 -16 -27 -31 -32 -32 -32 -32 -31 -31 -32 -32 -32 -24 -19 -16 -17 -14 -14 -13 -13 -14
-10 -10 -9 -10 -10 -10 -10 -10 -10 -10 -10 -10 -11 -11 -12 -12 -13 -13 -14 -14 -15 -16 -16 -18 -25 -30 -32 -31 -31 -31 -30 -31 -32 -33 -31 -24 -23 -23 -18 -17 -15 -14 -14
-10 -10 -10 -10 -10 -10 -10 -10 -10 -10 -10 -10 -11 -11 -11 -12 -12 -13 -14 -14 -15 -18 -21 -25 -28 -29 -29 -29 -30 -30 -29 -30 -31 -32 -33 -32 -31 -31 -28 -23 -23 -17 -16
-9 -10 -9 -10 -10 -10 -10 -10 -10 -10 -10 -10 -10 -11 -11 -12 -12 -13 -13 -15 -16 -19 -23 -22 -24 -25 -26 -27 -29 -29 -28 -29 -30 -32 -32 -33 -33 -34 -34 -33 -30 -27 -25

GFSGL_850_dewp_021.txt.gz
Dewpoint
-2 -2 -3 -3 -6 -5 -5 -4 -4 -4 -10 -5 -6 -7 -8 -9 -10 -10 -10 -10 -9 -7 -6 -6 -7 -7 -6 -6 -6 -6 -6 -5 -6 -6 -7 -8 -9 -9 -8 -9 -9 -5 -4
-4 -3 -2 -5 -5 -5 -5 -5 -5 -6 -8 -6 -7 -8 -10 -11 -11 -10 -10 -10 -10 -8 -8 -8 -11 -14 -11 -9 -8 -8 -9 -9 -9 -9 -8 -8 -9 -10 -10 -10 -11 -11 -8
-4 -3 -4 -4 -5 -5 -5 -6 -5 -7 -7 -6 -8 -11 -11 -11 -10 -10 -10 -10 -9 -10 -11 -11 -12 -13 -15 -11 -10 -10 -10 -8 -8 -8 -9 -10 -10 -10 -11 -12 -12 -12 -12
-6 -4 -4 -3 -3 -4 -4 -5 -4 -7 -6 -8 -11 -11 -11 -11 -10 -10 -9 -10 -11 -11 -10 -10 -10 -12 -13 -11 -10 -10 -10 -10 -9 -9 -10 -12 -12 -11 -13 -11 -11 -10 -10
-5 -5 -5 -4 -3 -3 -3 -3 -4 -7 -7 -10 -11 -11 -10 -10 -10 -10 -10 -10 -10 -10 -10 -10 -12 -13 -9 -9 -8 -8 -8 -8 -9 -10 -11 -11 -11 -12 -12 -9 -9 -9 -8
-9 -9 -7 -4 -3 -3 -3 -3 -3 -6 -8 -10 -10 -11 -10 -10 -10 -10 -9 -10 -11 -11 -12 -14 -15 -11 -10 -9 -9 -9 -8 -8 -8 -9 -9 -10 -10 -12 -12 -12 -12 -11 -10
-10 -10 -7 -7 -6 -4 -3 -2 -3 -5 -9 -10 -10 -10 -9 -9 -9 -8 -9 -11 -11 -11 -12 -13 -14 -13 -13 -12 -12 -11 -11 -10 -10 -10 -9 -10 -11 -13 -10 -10 -10 -10 -10
-11 -10 -9 -8 -5 -6 -7 -3 -4 -5 -8 -10 -9 -9 -9 -8 -9 -11 -10 -10 -10 -10 -11 -12 -14 -13 -12 -12 -12 -12 -12 -11 -11 -12 -12 -12 -10 -11 -10 -9 -9 -9 -8
-10 -9 -8 -8 -8 -6 -5 -5 -4 -7 -8 -8 -8 -9 -10 -10 -12 -11 -11 -10 -11 -12 -12 -13 -13 -12 -13 -12 -11 -11 -11 -11 -12 -11 -10 -10 -10 -9 -9 -9 -10 -9 -10
-9 -8 -7 -8 -6 -6 -5 -8 -8 -7 -8 -9 -9 -9 -10 -12 -11 -10 -11 -11 -11 -12 -13 -14 -14 -13 -11 -11 -11 -11 -12 -13 -12 -12 -12 -13 -12 -13 -13 -12 -11 -10 -10
-8 -7 -8 -8 -7 -6 -5 -5 -6 -7 -9 -9 -9 -10 -12 -13 -11 -11 -12 -12 -12 -13 -13 -13 -13 -12 -12 -12 -11 -11 -11 -11 -11 -12 -12 -11 -10 -10 -9 -9 -9 -9 -9
-7 -9 -9 -8 -7 -6 -5 -7 -9 -10 -10 -10 -10 -11 -12 -14 -14 -18 -15 -14 -13 -13 -13 -13 -12 -12 -12 -12 -12 -11 -11 -11 -11 -11 -10 -10 -10 -9 -9 -9 -8 -8 -8
-8 -8 -8 -8 -8 -7 -8 -9 -9 -9 -9 -9 -11 -11 -13 -13 -15 -15 -14 -14 -14 -13 -13 -12 -12 -12 -12 -12 -12 -11 -11 -11 -11 -11 -10 -10 -10 -9 -9 -9 -8 -8 -8
-8 -8 -9 -8 -7 -7 -7 -8 -9 -9 -9 -10 -11 -12 -12 -13 -14 -14 -14 -14 -14 -14 -13 -13 -13 -13 -13 -13 -12 -12 -12 -12 -12 -11 -11 -10 -10 -10 -9 -8 -7 -8 -9
-7 -8 -11 -11 -9 -8 -8 -9 -8 -9 -10 -10 -11 -11 -12 -12 -14 -13 -13 -14 -13 -13 -14 -14 -14 -14 -13 -13 -13 -13 -13 -13 -12 -12 -11 -11 -10 -10 -9 -8 -8 -8 -8
-6 -9 -12 -14 -10 -9 -9 -9 -9 -10 -10 -11 -10 -10 -12 -12 -12 -13 -13 -14 -13 -14 -14 -14 -14 -14 -14 -14 -14 -13 -13 -13 -13 -12 -12 -12 -11 -10 -9 -9 -8 -8 -7
-7 -8 -11 -10 -8 -9 -9 -9 -9 -10 -10 -11 -11 -10 -11 -12 -12 -13 -13 -14 -15 -14 -15 -15 -15 -15 -15 -15 -15 -14 -13 -13 -13 -13 -12 -12 -11 -10 -10 -10 -10 -10 -8
-6 -9 -8 -9 -9 -9 -9 -9 -9 -10 -10 -11 -11 -11 -11 -11 -12 -15 -13 -15 -16 -19 -18 -16 -15 -15 -16 -16 -15 -15 -14 -14 -14 -13 -12 -12 -11 -11 -11 -11 -11 -10 -10
-8 -8 -8 -8 -9 -9 -9 -9 -10 -10 -10 -10 -11 -11 -11 -11 -13 -16 -15 -15 -15 -18 -24 -20 -17 -17 -17 -18 -17 -16 -15 -15 -15 -14 -13 -12 -12 -12 -11 -11 -11 -11 -11
-8 -8 -8 -8 -9 -9 -9 -10 -10 -10 -10 -10 -11 -11 -11 -12 -13 -13 -15 -15 -15 -16 -25 -29 -23 -24 -25 -24 -23 -22 -23 -27 -22 -16 -14 -13 -13 -12 -12 -12 -12 -11 -12
-8 -8 -8 -9 -9 -9 -9 -10 -10 -10 -10 -10 -11 -11 -11 -12 -13 -13 -13 -15 -15 -15 -16 -28 -31 -31 -31 -30 -29 -30 -31 -31 -31 -22 -16 -15 -14 -13 -13 -13 -13 -12 -12
-9 -9 -9 -10 -10 -10 -10 -10 -10 -10 -11 -11 -10 -11 -11 -12 -12 -12 -13 -14 -15 -17 -15 -19 -28 -32 -32 -32 -32 -31 -31 -31 -32 -31 -22 -18 -19 -15 -14 -14 -13 -14 -14
-13 -12 -10 -10 -10 -10 -10 -10 -10 -10 -10 -11 -11 -11 -11 -12 -12 -12 -12 -14 -15 -15 -19 -18 -20 -25 -29 -31 -31 -30 -30 -30 -31 -32 -31 -24 -25 -23 -17 -16 -14 -14 -15
-9 -9 -10 -10 -10 -10 -10 -10 -10 -10 -10 -11 -11 -10 -10 -11 -12 -12 -13 -13 -14 -17 -20 -23 -24 -28 -29 -29 -29 -30 -29 -29 -30 -31 -32 -30 -30 -30 -27 -22 -16 -15 -18
-8 -8 -9 -9 -10 -10 -10 -10 -10 -10 -10 -10 -11 -11 -11 -11 -12 -12 -13 -13 -13 -16 -19 -23 -22 -24 -25 -24 -27 -29 -29 -28 -29 -31 -32 -32 -33 -32 -33 -30 -29 -25 -26
-8 -8 -8 -10 -10 -10 -10 -10 -10 -10 -10 -10 -11 -11 -11 -11 -12 -12 -12 -13 -13 -14 -17 -20 -21 -18 -16 -15 -16 -21 -25 -25 -26 -30 -32 -34 -34 -34 -33 -32 -32 -31 -31

GFSGL_850_dewp_024.txt.gz
Dewpoint
-5 -5 -5 -5 -4 -4 -5 -5 -5 -5 -5 -5 -9 -8 -7 -8 -11 -11 -11 -10 -10 -10 -9 -8 -8 -8 -8 -11 -14 -13 -8 -7 -6 -7 -9 -9 -8 -8 -9 -9 -7 -6 -5
-6 -7 -6 -5 -4 -4 -4 -3 -4 -5 -5 -4 -4 -7 -7 -11 -11 -11 -12 -12 -10 -10 -10 -11 -11 -12 -12 -12 -14 -14 -12 -9 -9 -9 -8 -8 -9 -10 -10 -10 -10 -10 -9
-7 -6 -4 -4 -5 -4 -4 -4 -4 -4 -3 -3 -7 -7 -11 -11 -12 -11 -12 -11 -10 -10 -10 -10 -11 -11 -11 -12 -13 -14 -13 -10 -9 -9 -9 -9 -9 -9 -10 -12 -11 -12 -12
-8 -7 -6 -9 -9 -5 -3 -3 -3 -4 -2 -4 -7 -9 -11 -11 -11 -11 -10 -10 -10 -9 -10 -11 -12 -13 -15 -14 -10 -9 -8 -9 -9 -9 -9 -9 -10 -11 -12 -14 -14 -12 -13
-8 -9 -10 -11 -9 -10 -7 -6 -7 -6 -3 -4 -7 -8 -10 -10 -10 -10 -10 -9 -9 -10 -12 -12 -12 -14 -15 -13 -10 -10 -9 -9 -9 -8 -8 -9 -10 -11 -12 -12 -13 -14 -10
-10 -11 -12 -11 -12 -10 -9 -10 -8 -4 -3 -6 -6 -8 -10 -9 -9 -9 -8 -9 -11 -10 -11 -11 -11 -13 -14 -14 -12 -12 -11 -10 -10 -10 -10 -9 -9 -10 -10 -12 -13 -12 -12
-11 -10 -10 -11 -10 -9 -10 -8 -4 -3 -5 -6 -6 -7 -9 -9 -9 -9 -12 -11 -10 -10 -11 -11 -13 -13 -15 -14 -13 -13 -13 -12 -12 -11 -11 -11 -11 -12 -11 -12 -12 -10 -10
-10 -10 -10 -9 -8 -10 -7 -7 -4 -4 -6 -7 -8 -8 -8 -9 -11 -13 -12 -11 -11 -12 -12 -13 -13 -14 -13 -13 -12 -11 -12 -11 -12 -12 -11 -11 -11 -11 -11 -10 -10 -10 -10
-9 -8 -8 -7 -10 -9 -7 -8 -8 -7 -7 -7 -8 -9 -9 -11 -13 -14 -13 -13 -14 -13 -14 -15 -13 -13 -13 -12 -11 -12 -11 -13 -13 -13 -11 -10 -10 -9 -10 -10 -9 -9 -10
-8 -7 -7 -9 -9 -7 -5 -5 -5 -6 -7 -8 -9 -9 -10 -12 -14 -15 -16 -13 -14 -14 -14 -14 -13 -12 -12 -12 -12 -11 -11 -13 -12 -13 -13 -13 -12 -12 -13 -12 -12 -13 -12
-7 -7 -8 -8 -8 -7 -6 -5 -7 -8 -8 -9 -9 -10 -11 -14 -15 -18 -16 -13 -13 -13 -13 -13 -12 -12 -12 -12 -12 -11 -11 -11 -11 -11 -11 -11 -10 -10 -10 -10 -10 -9 -9
-7 -8 -8 -9 -8 -8 -7 -8 -9 -9 -9 -9 -10 -11 -12 -14 -16 -18 -15 -13 -13 -13 -13 -13 -12 -13 -13 -12 -12 -12 -11 -11 -11 -11 -11 -10 -10 -10 -10 -9 -9 -9 -8
-8 -7 -7 -8 -8 -7 -7 -7 -7 -8 -9 -9 -11 -11 -13 -14 -15 -18 -15 -14 -14 -13 -13 -13 -13 -13 -13 -13 -13 -12 -12 -12 -11 -11 -11 -11 -10 -10 -9 -9 -9 -9 -9
-7 -6 -6 -9 -11 -10 -8 -8 -8 -8 -9 -11 -11 -12 -12 -13 -13 -16 -14 -14 -14 -13 -14 -14 -14 -13 -13 -13 -13 -13 -13 -12 -12 -12 -11 -11 -10 -10 -9 -8 -8 -8 -8
-5 -5 -7 -10 -13 -11 -9 -8 -9 -9 -11 -11 -11 -11 -12 -12 -13 -12 -13 -13 -14 -14 -14 -14 -14 -15 -15 -15 -13 -13 -13 -13 -13 -12 -12 -11 -11 -10 -9 -8 -8 -8 -8
-6 -6 -7 -10 -11 -9 -8 -9 -9 -10 -10 -10 -11 -11 -11 -12 -12 -13 -13 -14 -15 -16 -16 -15 -15 -15 -16 -16 -15 -14 -14 -14 -13 -13 -12 -12 -11 -10 -10 -9 -9 -8 -8
-6 -7 -7 -8 -8 -8 -9 -9 -10 -10 -10 -11 -11 -11 -11 -11 -12 -13 -14 -15 -16 -22 -23 -18 -16 -17 -17 -17 -16 -15 -15 -14 -14 -13 -12 -12 -11 -11 -11 -11 -10 -9 -9
-7 -7 -7 -8 -9 -9 -9 -9 -10 -10 -11 -11 -11 -11 -11 -11 -12 -13 -15 -16 -16 -19 -29 -24 -19 -19 -20 -19 -18 -17 -17 -17 -16 -13 -13 -12 -12 -12 -12 -11 -11 -11 -10
-7 -8 -8 -8 -9 -9 -10 -10 -10 -10 -10 -11 -11 -12 -12 -11 -12 -13 -13 -14 -17 -15 -22 -31 -27 -26 -27 -24 -24 -24 -26 -27 -20 -14 -13 -13 -13 -12 -12 -12 -11 -11 -12
-7 -8 -8 -8 -9 -9 -10 -10 -10 -11 -11 -11 -11 -11 -11 -12 -12 -12 -13 -13 -14 -17 -15 -24 -31 -31 -32 -31 -29 -30 -31 -31 -29 -18 -15 -14 -14 -13 -13 -13 -13 -13 -13
-7 -7 -9 -9 -9 -9 -10 -10 -10 -10 -10 -10 -11 -11 -11 -12 -12 -12 -13 -13 -14 -16 -18 -16 -22 -30 -32 -32 -31 -31 -31 -31 -32 -28 -20 -18 -17 -14 -13 -13 -13 -14 -14
-7 -9 -11 -12 -10 -10 -10 -10 -10 -10 -11 -11 -11 -11 -11 -11 -11 -11 -12 -13 -13 -14 -16 -20 -19 -21 -25 -29 -30 -30 -29 -29 -30 -32 -30 -23 -23 -20 -16 -15 -14 -14 -15
-7 -9 -10 -10 -11 -11 -10 -10 -10 -10 -10 -10 -11 -11 -11 -11 -11 -12 -12 -13 -13 -14 -16 -20 -24 -25 -28 -29 -29 -27 -28 -28 -28 -30 -32 -31 -29 -28 -25 -20 -17 -16 -18
-7 -8 -9 -9 -9 -10 -10 -10 -10 -10 -9 -10 -10 -10 -11 -11 -12 -12 -12 -12 -13 -13 -15 -19 -22 -22 -22 -23 -25 -28 -29 -27 -27 -29 -31 -31 -33 -32 -33 -29 -27 -25 -24
-8 -8 -8 -8 -9 -9 -10 -11 -10 -11 -11 -10 -10 -11 -11 -11 -11 -11 -12 -12 -13 -13 -14 -16 -18 -21 -18 -15 -15 -17 -22 -24 -24 -25 -30 -32 -34 -34 -34 -33 -32 -32 -32
-7 -8 -8 -8 -9 -8 -10 -10 -11 -11 -11 -11 -11 -11 -11 -11 -12 -12 -12 -13 -13 -13 -13 -14 -15 -17 -17 -15 -15 -15 -16 -17 -16 -17 -20 -29 -33 -34 -33 -31 -29 -29 -29

GFSGL_850_dewp_027.txt.gz
Dewpoint
-6 -6 -7 -5 -4 -4 -5 -4 -3 -3 -3 -3 -4 -4 -4 -6 -8 -11 -11 -12 -13 -12 -11 -9 -10 -10 -11 -12 -13 -13 -12 -13 -13 -11 -9 -9 -8 -9 -10 -12 -11 -9 -10
-6 -7 -7 -5 -5 -9 -10 -8 -3 -3 -4 -4 -4 -3 -4 -8 -9 -11 -12 -11 -11 -10 -10 -10 -10 -10 -11 -12 -13 -13 -13 -13 -13 -12 -11 -9 -8 -9 -9 -10 -10 -11 -12
-7 -8 -7 -8 -10 -14 -13 -14 -13 -9 -6 -6 -8 -3 -7 -9 -8 -10 -11 -11 -10 -9 -9 -9 -9 -11 -12 -13 -15 -16 -13 -10 -9 -8 -9 -9 -9 -9 -10 -11 -12 -13 -14
-8 -9 -10 -12 -13 -11 -11 -10 -10 -11 -7 -5 -4 -3 -6 -7 -7 -10 -10 -9 -9 -8 -9 -11 -11 -11 -12 -12 -14 -15 -11 -10 -9 -9 -8 -8 -8 -9 -10 -11 -12 -13 -14
-10 -12 -12 -12 -10 -10 -9 -9 -13 -10 -4 -4 -4 -5 -6 -7 -8 -9 -9 -8 -9 -11 -12 -11 -11 -11 -11 -11 -13 -12 -12 -12 -11 -10 -10 -9 -9 -8 -9 -10 -11 -12 -13
-12 -11 -10 -10 -9 -8 -8 -12 -11 -8 -4 -4 -5 -7 -7 -8 -8 -8 -9 -12 -12 -12 -11 -11 -12 -12 -14 -14 -15 -12 -11 -11 -12 -12 -11 -10 -11 -11 -10 -10 -10 -11 -12
-11 -10 -9 -8 -8 -8 -11 -9 -10 -6 -5 -6 -7 -7 -7 -7 -9 -10 -12 -13 -14 -13 -13 -13 -13 -14 -14 -14 -14 -14 -13 -11 -11 -11 -11 -11 -11 -12 -12 -11 -12 -12 -12
-10 -8 -8 -7 -8 -10 -10 -8 -9 -8 -7 -7 -7 -8 -8 -9 -10 -13 -15 -16 -18 -17 -15 -15 -14 -14 -13 -12 -12 -12 -12 -12 -11 -11 -11 -11 -10 -11 -10 -11 -11 -10 -11
-8 -8 -8 -8 -9 -9 -7 -5 -6 -7 -6 -7 -7 -8 -9 -10 -12 -14 -17 -18 -16 -16 -15 -14 -13 -12 -12 -12 -11 -11 -12 -13 -13 -13 -13 -13 -12 -10 -10 -9 -10 -9 -10
-8 -8 -8 -8 -8 -9 -7 -6 -6 -6 -6 -6 -8 -9 -10 -12 -14 -16 -18 -16 -15 -15 -14 -14 -13 -13 -12 -12 -12 -12 -11 -12 -12 -12 -12 -11 -12 -13 -13 -11 -10 -11 -12
-7 -7 -8 -7 -8 -9 -8 -7 -7 -7 -7 -8 -8 -9 -11 -12 -14 -17 -18 -16 -14 -14 -14 -14 -13 -12 -12 -13 -12 -12 -11 -12 -12 -11 -11 -11 -11 -10 -10 -11 -12 -12 -12
-6 -7 -6 -6 -7 -8 -8 -7 -8 -8 -8 -8 -9 -11 -12 -13 -14 -15 -17 -15 -13 -13 -14 -14 -13 -13 -13 -13 -13 -12 -12 -12 -11 -11 -11 -11 -11 -10 -10 -9 -9 -9 -9
-6 -6 -5 -6 -7 -9 -8 -7 -7 -8 -8 -9 -11 -11 -12 -13 -13 -14 -17 -15 -14 -14 -14 -14 -14 -14 -14 -13 -13 -13 -13 -13 -12 -12 -12 -11 -11 -10 -10 -9 -9 -9 -9
-5 -5 -5 -6 -8 -12 -11 -9 -8 -8 -9 -10 -11 -11 -12 -12 -13 -14 -15 -14 -15 -16 -16 -15 -14 -14 -14 -14 -13 -13 -13 -13 -13 -12 -12 -11 -11 -10 -9 -9 -8 -8 -8
-6 -6 -6 -7 -8 -11 -9 -8 -9 -9 -9 -10 -11 -11 -12 -12 -12 -12 -13 -15 -16 -18 -24 -21 -16 -16 -20 -19 -17 -15 -14 -14 -13 -13 -12 -12 -11 -10 -10 -9 -9 -8 -8
-6 -6 -7 -7 -8 -8 -9 -9 -9 -9 -10 -10 -10 -11 -12 -12 -12 -12 -13 -16 -16 -17 -30 -28 -23 -21 -20 -20 -19 -17 -16 -15 -14 -13 -12 -12 -11 -11 -11 -10 -9 -9 -8
-7 -7 -7 -8 -8 -8 -9 -9 -10 -10 -10 -10 -11 -11 -12 -12 -12 -12 -13 -15 -17 -16 -27 -32 -26 -25 -26 -22 -21 -19 -20 -19 -15 -13 -13 -12 -12 -11 -11 -11 -10 -10 -9
-7 -7 -8 -8 -8 -9 -9 -10 -10 -10 -11 -11 -11 -11 -12 -12 -12 -12 -13 -14 -17 -17 -16 -27 -32 -31 -31 -27 -26 -27 -30 -28 -20 -14 -13 -13 -12 -12 -12 -12 -11 -11 -11
-7 -7 -8 -8 -8 -9 -9 -10 -10 -10 -11 -11 -11 -11 -11 -11 -12 -12 -12 -13 -14 -18 -16 -17 -27 -32 -32 -32 -30 -30 -31 -31 -27 -17 -14 -14 -13 -13 -13 -13 -12 -12 -12
-7 -7 -8 -8 -9 -9 -9 -10 -10 -11 -11 -11 -11 -10 -11 -11 -12 -12 -12 -13 -14 -16 -17 -17 -17 -23 -30 -31 -31 -30 -30 -30 -32 -28 -20 -18 -16 -14 -13 -13 -14 -14 -14
-7 -7 -8 -9 -9 -10 -10 -10 -10 -10 -10 -10 -11 -10 -11 -11 -11 -11 -12 -12 -13 -14 -16 -19 -21 -20 -21 -25 -27 -28 -29 -29 -30 -31 -30 -24 -23 -21 -15 -14 -14 -14 -15
-7 -7 -7 -11 -11 -12 -11 -10 -10 -10 -10 -10 -11 -11 -11 -11 -11 -11 -12 -13 -13 -14 -15 -18 -23 -24 -25 -27 -28 -27 -26 -28 -27 -29 -31 -30 -28 -27 -24 -19 -19 -15 -17
-7 -7 -8 -8 -9 -10 -10 -11 -10 -10 -10 -11 -11 -10 -10 -11 -11 -11 -12 -12 -13 -13 -14 -16 -21 -22 -21 -21 -22 -23 -26 -28 -27 -27 -30 -31 -32 -32 -32 -30 -28 -25 -24
-8 -8 -8 -8 -8 -9 -9 -10 -10 -11 -11 -10 -10 -10 -10 -10 -11 -11 -12 -12 -13 -13 -14 -14 -16 -18 -19 -18 -15 -15 -16 -21 -23 -22 -24 -31 -33 -34 -34 -33 -32 -31 -31
-8 -8 -8 -8 -8 -8 -9 -9 -9 -10 -11 -11 -11 -10 -10 -11 -11 -12 -12 -12 -13 -13 -14 -14 -14 -15 -16 -16 -15 -15 -15 -16 -17 -17 -17 -21 -28 -34 -34 -32 -30 -29 -30
-8 -8 -8 -8 -8 -8 -8 -8 -8 -9 -10 -11 -11 -11 -11 -11 -10 -11 -13 -13 -13 -14 -14 -14 -14 -14 -15 -15 -15 -15 -15 -16 -16 -16 -18 -20 -27 -32 -32 -30 -29 -28 -28

GFSGL_850_dewp_030.txt.gz
Dewpoint
-5 -6 -7 -7 -5 -6 -11 -14 -13 -13 -14 -13 -7 -5 -5 -4 -4 -4 -8 -9 -11 -11 -10 -10 -10 -10 -10 -9 -10 -12 -13 -13 -12 -13 -13 -14 -14 -12 -9 -9 -9 -11 -15
-7 -7 -7 -8 -10 -12 -12 -11 -11 -10 -11 -11 -6 -4 -3 -4 -5 -8 -7 -7 -10 -10 -10 -9 -9 -9 -9 -11 -12 -12 -13 -15 -14 -11 -13 -13 -12 -11 -7 -8 -10 -12 -13
-8 -8 -9 -12 -12 -12 -10 -10 -9 -11 -14 -13 -5 -4 -4 -3 -6 -7 -7 -8 -9 -9 -9 -8 -9 -11 -11 -11 -11 -11 -12 -14 -12 -11 -11 -11 -10 -9 -9 -9 -9 -11 -12
-9 -12 -12 -12 -11 -10 -9 -9 -10 -14 -12 -10 -6 -5 -4 -4 -6 -8 -8 -9 -9 -8 -10 -12 -13 -11 -10 -10 -11 -11 -11 -11 -12 -12 -12 -10 -10 -10 -8 -8 -9 -10 -11
-12 -13 -11 -10 -9 -9 -9 -11 -12 -12 -10 -6 -5 -5 -5 -7 -8 -8 -8 -8 -10 -12 -14 -15 -13 -12 -11 -11 -11 -11 -12 -12 -12 -12 -12 -12 -11 -12 -10 -9 -9 -9 -11
-12 -10 -10 -9 -9 -9 -10 -11 -11 -10 -6 -6 -6 -7 -8 -8 -8 -8 -10 -11 -13 -16 -18 -17 -16 -15 -15 -13 -14 -13 -12 -12 -12 -12 -12 -11 -12 -12 -12 -11 -10 -9 -10
-11 -10 -9 -8 -9 -10 -9 -10 -8 -9 -8 -8 -8 -8 -8 -8 -9 -10 -12 -14 -18 -19 -16 -15 -15 -15 -14 -13 -13 -13 -13 -12 -12 -12 -11 -11 -11 -11 -11 -11 -11 -10 -11
-10 -9 -8 -9 -9 -10 -9 -9 -6 -6 -7 -7 -8 -7 -7 -8 -9 -12 -14 -18 -19 -17 -16 -15 -14 -13 -13 -12 -12 -11 -12 -12 -11 -12 -12 -13 -13 -13 -11 -10 -11 -10 -11
-9 -9 -8 -8 -10 -9 -9 -9 -7 -6 -5 -6 -7 -7 -8 -9 -11 -13 -16 -19 -17 -16 -15 -14 -13 -13 -13 -12 -12 -12 -12 -12 -11 -11 -11 -11 -12 -12 -13 -11 -10 -10 -10
-9 -9 -8 -8 -8 -8 -9 -9 -7 -6 -7 -6 -6 -8 -8 -10 -12 -14 -16 -17 -17 -16 -15 -14 -14 -13 -13 -13 -12 -13 -12 -12 -13 -12 -11 -11 -11 -12 -12 -13 -12 -10 -10
-11 -11 -9 -6 -6 -7 -8 -9 -8 -7 -8 -7 -8 -8 -10 -12 -13 -14 -15 -16 -15 -15 -14 -15 -15 -13 -13 -13 -13 -13 -13 -13 -12 -12 -11 -11 -11 -11 -10 -10 -11 -12 -13
-12 -11 -7 -5 -6 -6 -8 -8 -7 -7 -7 -8 -8 -9 -11 -12 -13 -13 -14 -17 -16 -16 -16 -16 -15 -14 -14 -14 -13 -13 -13 -13 -13 -12 -12 -12 -11 -11 -10 -10 -10 -10 -10
-13 -10 -7 -6 -6 -7 -8 -10 -9 -8 -8 -8 -9 -10 -11 -11 -12 -13 -14 -19 -18 -16 -20 -23 -18 -15 -15 -17 -14 -13 -13 -13 -13 -13 -12 -12 -11 -11 -10 -10 -9 -9 -9
-8 -8 -7 -7 -7 -7 -9 -11 -9 -8 -9 -9 -10 -10 -11 -11 -12 -13 -14 -17 -19 -17 -20 -31 -26 -17 -21 -21 -19 -16 -15 -14 -13 -13 -12 -12 -11 -10 -10 -9 -9 -9 -8
-8 -7 -7 -7 -7 -7 -8 -9 -9 -9 -10 -10 -10 -10 -11 -11 -12 -13 -12 -14 -19 -18 -18 -32 -30 -29 -28 -25 -23 -20 -18 -16 -14 -13 -13 -12 -11 -11 -10 -10 -9 -9 -9
-8 -7 -7 -7 -7 -8 -8 -9 -9 -9 -10 -10 -10 -10 -11 -11 -12 -12 -13 -14 -16 -20 -16 -23 -31 -31 -31 -28 -27 -27 -29 -22 -16 -14 -13 -12 -12 -12 -11 -10 -10 -10 -9
-8 -8 -7 -8 -8 -8 -9 -9 -10 -10 -10 -10 -10 -10 -11 -11 -11 -12 -13 -13 -15 -19 -17 -16 -26 -31 -31 -30 -29 -30 -31 -31 -22 -14 -13 -13 -13 -12 -12 -12 -11 -10 -10
-8 -8 -8 -8 -8 -9 -9 -9 -10 -11 -11 -11 -11 -10 -11 -11 -11 -12 -12 -13 -13 -17 -22 -17 -17 -25 -31 -31 -31 -30 -30 -31 -29 -18 -14 -14 -13 -13 -13 -13 -13 -12 -12
-7 -8 -7 -7 -8 -8 -9 -9 -9 -10 -11 -11 -11 -11 -11 -11 -11 -11 -12 -13 -13 -14 -19 -22 -18 -17 -22 -28 -30 -30 -29 -29 -31 -31 -23 -19 -17 -15 -14 -13 -13 -13 -13
-7 -8 -7 -7 -8 -8 -9 -9 -9 -9 -10 -10 -11 -11 -11 -11 -11 -11 -12 -12 -13 -14 -15 -19 -22 -22 -20 -21 -23 -22 -23 -26 -28 -30 -31 -26 -23 -22 -16 -15 -15 -15 -15
-7 -8 -8 -7 -8 -9 -11 -10 -11 -11 -10 -10 -9 -10 -10 -11 -11 -11 -12 -12 -13 -13 -14 -15 -19 -23 -23 -24 -26 -27 -27 -26 -26 -27 -29 -30 -29 -28 -25 -19 -19 -17 -16
-8 -8 -8 -7 -7 -8 -10 -11 -11 -11 -11 -11 -11 -11 -10 -11 -11 -11 -11 -11 -12 -13 -14 -14 -16 -19 -20 -20 -19 -20 -22 -26 -27 -26 -28 -30 -30 -31 -31 -29 -26 -22 -24
-9 -9 -9 -8 -8 -8 -9 -9 -10 -10 -11 -11 -11 -11 -11 -11 -10 -11 -11 -11 -12 -13 -13 -14 -14 -15 -16 -18 -17 -16 -15 -17 -20 -23 -22 -26 -31 -33 -33 -33 -32 -31 -30
-9 -9 -9 -8 -8 -8 -9 -9 -9 -9 -9 -10 -11 -11 -11 -11 -11 -11 -11 -12 -12 -12 -13 -14 -14 -14 -15 -16 -16 -15 -15 -15 -16 -17 -16 -17 -21 -29 -34 -33 -30 -29 -30
-7 -8 -9 -8 -8 -8 -8 -8 -8 -8 -8 -9 -9 -10 -11 -11 -11 -11 -11 -11 -12 -12 -13 -14 -14 -14 -14 -15 -15 -15 -15 -15 -16 -16 -16 -17 -20 -25 -25 -29 -29 -29 -28
-8 -7 -8 -8 -8 -8 -8 -8 -8 -8 -8 -8 -8 -9 -10 -11 -11 -11 -11 -11 -12 -13 -13 -14 -14 -14 -14 -14 -15 -15 -15 -15 -16 -17 -19 -20 -24 -28 -31 -30 -29 -29 -28

GFSGL_850_dewp_033.txt.gz
Dewpoint
-4 -6 -7 -7 -8 -10 -12 -13 -12 -12 -11 -12 -14 -12 -7 -4 -4 -3 -4 -7 -8 -8 -9 -10 -9 -9 -8 -8 -8 -9 -10 -10 -11 -12 -12 -11 -10 -9 -9 -9 -9 -8 -9
-7 -8 -8 -9 -12 -14 -14 -12 -10 -10 -12 -14 -14 -11 -5 -4 -4 -4 -5 -7 -7 -8 -8 -9 -9 -8 -8 -9 -9 -10 -10 -10 -10 -11 -12 -11 -10 -10 -9 -8 -8 -9 -9
-8 -8 -10 -12 -14 -12 -10 -9 -10 -13 -14 -13 -10 -7 -5 -5 -4 -5 -6 -7 -8 -9 -9 -8 -10 -9 -9 -9 -9 -10 -10 -10 -10 -11 -11 -12 -12 -10 -9 -9 -9 -9 -9
-9 -12 -13 -13 -10 -9 -8 -10 -14 -13 -12 -11 -6 -5 -5 -5 -6 -8 -8 -8 -8 -8 -10 -12 -15 -12 -10 -10 -10 -10 -10 -10 -11 -11 -12 -12 -12 -11 -10 -10 -9 -9 -9
-11 -13 -12 -10 -9 -8 -9 -14 -13 -12 -10 -10 -7 -6 -7 -7 -8 -8 -8 -9 -10 -12 -15 -18 -18 -17 -16 -14 -11 -11 -11 -11 -11 -11 -12 -12 -12 -12 -11 -10 -10 -9 -9
-12 -12 -10 -9 -8 -9 -12 -12 -11 -10 -8 -8 -8 -8 -8 -9 -8 -8 -9 -10 -14 -17 -19 -18 -16 -16 -12 -14 -14 -14 -13 -12 -11 -11 -12 -11 -11 -11 -11 -10 -10 -10 -10
-13 -11 -9 -8 -9 -12 -11 -10 -10 -9 -7 -7 -7 -8 -8 -8 -8 -9 -10 -13 -17 -19 -18 -16 -13 -12 -12 -12 -12 -12 -11 -12 -12 -12 -11 -11 -11 -11 -11 -10 -10 -10 -11
-12 -9 -9 -11 -11 -10 -10 -9 -10 -9 -6 -6 -5 -7 -7 -7 -9 -9 -12 -15 -17 -18 -17 -14 -12 -12 -13 -13 -12 -12 -11 -12 -12 -12 -11 -11 -11 -11 -11 -11 -10 -10 -10
-11 -11 -11 -11 -10 -9 -8 -8 -10 -9 -7 -7 -7 -7 -7 -8 -9 -11 -13 -16 -17 -18 -16 -12 -13 -13 -13 -13 -12 -12 -12 -12 -12 -12 -13 -12 -12 -12 -11 -11 -11 -10 -10
-14 -13 -12 -12 -10 -7 -7 -8 -9 -9 -7 -6 -6 -7 -8 -8 -10 -12 -14 -15 -16 -15 -13 -13 -13 -14 -13 -13 -13 -13 -13 -12 -12 -12 -12 -11 -11 -11 -11 -11 -11 -10 -11
-14 -14 -14 -13 -9 -6 -7 -8 -9 -8 -8 -8 -7 -8 -8 -9 -11 -13 -14 -14 -14 -13 -13 -16 -19 -19 -14 -14 -13 -13 -13 -13 -13 -12 -12 -11 -11 -11 -11 -10 -10 -10 -10
-14 -14 -14 -13 -9 -7 -7 -8 -8 -9 -8 -8 -8 -8 -9 -11 -12 -12 -13 -14 -18 -17 -15 -20 -27 -23 -15 -19 -19 -17 -15 -15 -13 -13 -12 -12 -12 -11 -11 -10 -10 -10 -10
-14 -14 -12 -11 -9 -7 -7 -8 -9 -11 -8 -8 -9 -10 -10 -11 -11 -12 -13 -14 -15 -18 -17 -20 -30 -29 -24 -24 -22 -20 -18 -17 -14 -13 -13 -12 -11 -11 -10 -10 -9 -9 -9
-14 -12 -9 -9 -8 -7 -7 -7 -9 -9 -9 -9 -10 -10 -10 -11 -11 -12 -12 -14 -15 -17 -19 -18 -28 -29 -29 -26 -26 -23 -23 -19 -14 -13 -13 -12 -11 -11 -10 -10 -9 -9 -8
-12 -10 -9 -8 -8 -8 -7 -7 -8 -9 -9 -9 -10 -10 -10 -10 -11 -11 -12 -13 -14 -15 -20 -17 -21 -29 -30 -29 -29 -30 -31 -25 -16 -14 -13 -13 -12 -12 -11 -10 -10 -9 -9
-10 -9 -8 -8 -8 -8 -8 -8 -9 -9 -10 -10 -11 -10 -11 -11 -11 -11 -12 -13 -13 -14 -18 -19 -17 -21 -28 -30 -30 -30 -30 -31 -25 -15 -14 -13 -13 -12 -12 -11 -11 -10 -10
-8 -8 -8 -8 -8 -8 -9 -9 -9 -9 -10 -11 -11 -11 -11 -11 -11 -11 -12 -12 -13 -13 -16 -20 -18 -18 -22 -28 -30 -29 -29 -29 -30 -21 -16 -15 -14 -13 -13 -13 -12 -12 -11
-8 -8 -7 -8 -8 -7 -8 -9 -9 -9 -9 -10 -12 -11 -11 -11 -11 -11 -11 -12 -12 -13 -14 -17 -21 -19 -17 -20 -23 -25 -27 -28 -28 -30 -27 -22 -19 -16 -14 -13 -13 -13 -13
-9 -8 -8 -8 -8 -7 -7 -9 -9 -9 -9 -10 -10 -11 -11 -11 -11 -11 -11 -11 -12 -13 -13 -14 -17 -20 -21 -21 -21 -21 -20 -21 -24 -27 -29 -28 -25 -24 -19 -15 -15 -14 -15
-8 -9 -8 -8 -9 -8 -7 -8 -10 -12 -10 -10 -10 -10 -11 -11 -11 -11 -11 -11 -12 -12 -13 -14 -15 -17 -20 -21 -22 -24 -25 -25 -25 -25 -27 -29 -29 -28 -26 -21 -19 -18 -16
-8 -9 -9 -9 -9 -8 -7 -8 -9 -12 -12 -11 -11 -11 -10 -10 -10 -11 -11 -11 -11 -12 -13 -14 -14 -15 -17 -19 -19 -19 -20 -21 -24 -25 -25 -28 -29 -30 -30 -27 -25 -21 -22
-7 -8 -8 -9 -9 -8 -8 -8 -8 -9 -10 -11 -11 -12 -11 -11 -11 -11 -11 -11 -11 -11 -12 -13 -14 -14 -15 -16 -17 -17 -16 -16 -18 -21 -23 -23 -27 -31 -32 -32 -30 -29 -29
-8 -7 -7 -9 -9 -9 -8 -8 -8 -9 -9 -9 -10 -10 -11 -11 -11 -11 -12 -11 -11 -11 -12 -13 -13 -14 -15 -15 -16 -16 -16 -15 -15 -17 -17 -17 -19 -25 -32 -32 -30 -30 -30
-8 -9 -7 -8 -8 -9 -8 -8 -8 -8 -8 -9 -9 -9 -9 -9 -10 -11 -11 -11 -11 -11 -12 -12 -13 -14 -14 -15 -15 -16 -16 -15 -15 -16 -17 -17 -18 -22 -23 -28 -29 -28 -28
-8 -8 -8 -8 -8 -9 -9 -8 -8 -8 -8 -8 -8 -8 -8 -8 -9 -10 -11 -11 -11 -11 -12 -12 -13 -14 -14 -14 -15 -15 -15 -15 -15 -16 -16 -18 -19 -23 -26 -27 -26 -26 -27
-9 -9 -9 -9 -9 -9 -9 -9 -9 -9 -9 -8 -8 -8 -8 -8 -8 -9 -10 -11 -11 -11 -11 -12 -13 -13 -14 -14 -14 -14 -15 -15 -15 -16 -17 -19 -21 -24 -27 -28 -28 -28 -28

GFSGL_850_dewp_036.txt.gz
Dewpoint
-5 -5 -7 -8 -8 -10 -8 -7 -7 -7 -7 -7 -6 -5 -5 -4 -3 -4 -4 -4 -4 -5 -5 -5 -6 -7 -8 -9 -10 -10 -11 -11 -12 -12 -12 -12 -11 -11 -11 -9 -9 -9 -10
-6 -6 -6 -9 -9 -6 -7 -8 -7 -6 -8 -5 -4 -4 -4 -3 -3 -4 -4 -4 -5 -5 -6 -7 -8 -9 -9 -10 -10 -11 -11 -11 -10 -11 -11 -11 -11 -11 -11 -11 -10 -9 -9
-6 -7 -7 -6 -7 -7 -7 -7 -6 -6 -6 -4 -4 -4 -4 -4 -4 -5 -5 -5 -7 -7 -8 -8 -8 -9 -10 -11 -11 -11 -11 -10 -10 -10 -10 -11 -12 -12 -12 -11 -10 -9 -10
-7 -8 -7 -7 -12 -8 -8 -7 -6 -7 -6 -5 -5 -5 -5 -5 -5 -6 -7 -7 -7 -8 -8 -9 -10 -11 -11 -11 -11 -11 -11 -11 -11 -11 -11 -11 -11 -12 -12 -12 -11 -10 -8
-10 -8 -8 -10 -11 -6 -7 -7 -7 -9 -5 -4 -5 -5 -5 -6 -7 -8 -7 -8 -8 -9 -11 -12 -12 -12 -15 -12 -11 -11 -11 -11 -11 -11 -11 -11 -12 -12 -11 -12 -12 -12 -11
-8 -9 -10 -12 -10 -7 -7 -8 -6 -5 -5 -4 -4 -5 -5 -7 -9 -9 -9 -9 -10 -11 -12 -12 -12 -12 -11 -12 -11 -11 -12 -11 -11 -10 -10 -10 -11 -10 -12 -10 -10 -10 -10
-12 -15 -12 -11 -9 -7 -7 -6 -6 -5 -5 -4 -5 -5 -5 -6 -8 -8 -9 -10 -10 -11 -12 -12 -12 -12 -11 -11 -11 -12 -11 -11 -11 -11 -11 -10 -10 -10 -10 -11 -11 -11 -11
-16 -11 -10 -8 -7 -7 -6 -6 -6 -5 -5 -5 -5 -6 -6 -6 -7 -8 -9 -11 -10 -10 -11 -11 -11 -11 -11 -12 -12 -11 -11 -11 -11 -11 -11 -11 -11 -10 -10 -10 -10 -10 -10
-11 -8 -8 -7 -7 -7 -6 -5 -6 -6 -6 -5 -6 -6 -6 -7 -8 -9 -11 -12 -9 -10 -10 -11 -11 -12 -12 -13 -13 -12 -12 -11 -11 -11 -12 -13 -13 -12 -12 -11 -10 -10 -10
-13 -9 -8 -7 -7 -6 -6 -6 -6 -6 -6 -6 -6 -6 -7 -7 -8 -9 -12 -12 -10 -10 -10 -11 -11 -13 -22 -13 -13 -13 -12 -12 -12 -12 -11 -11 -11 -10 -11 -11 -10 -9 -10
-16 -10 -8 -8 -7 -6 -6 -6 -6 -6 -6 -6 -7 -7 -7 -8 -8 -10 -12 -13 -10 -10 -11 -11 -11 -17 -29 -18 -20 -13 -14 -14 -13 -12 -12 -11 -11 -10 -10 -10 -10 -10 -9
-13 -9 -9 -7 -7 -7 -6 -6 -6 -7 -7 -7 -7 -8 -8 -8 -9 -11 -12 -13 -14 -13 -11 -11 -13 -24 -29 -28 -22 -22 -23 -15 -13 -12 -12 -11 -11 -11 -10 -10 -10 -10 -10
-15 -13 -7 -6 -6 -6 -7 -7 -6 -7 -7 -7 -7 -8 -8 -9 -9 -9 -11 -12 -13 -14 -14 -19 -18 -21 -29 -22 -20 -27 -19 -14 -13 -13 -12 -12 -12 -11 -10 -10 -9 -9 -9
-15 -9 -6 -6 -6 -7 -7 -6 -7 -7 -7 -8 -8 -8 -9 -9 -9 -10 -10 -10 -11 -11 -11 -15 -18 -17 -19 -19 -15 -14 -15 -22 -16 -13 -13 -13 -12 -12 -11 -10 -10 -9 -8
-12 -7 -7 -6 -6 -6 -7 -6 -7 -7 -7 -8 -8 -9 -9 -9 -9 -10 -10 -11 -11 -12 -14 -14 -12 -12 -13 -15 -14 -14 -14 -18 -17 -14 -14 -13 -13 -12 -12 -11 -10 -10 -9
-12 -10 -6 -6 -6 -6 -6 -7 -7 -8 -9 -9 -11 -12 -11 -10 -10 -11 -11 -11 -12 -13 -13 -12 -12 -12 -13 -13 -14 -14 -15 -16 -24 -20 -14 -14 -13 -13 -12 -11 -11 -10 -10
-12 -12 -9 -8 -7 -7 -7 -7 -7 -7 -8 -8 -9 -11 -12 -12 -11 -11 -11 -11 -12 -12 -12 -11 -12 -12 -12 -13 -14 -14 -15 -18 -23 -21 -20 -15 -14 -14 -13 -12 -12 -11 -11
-11 -10 -8 -7 -8 -7 -7 -8 -7 -8 -8 -8 -9 -9 -10 -11 -11 -11 -11 -10 -11 -11 -12 -11 -12 -12 -12 -13 -14 -15 -17 -19 -18 -22 -21 -18 -16 -15 -13 -13 -12 -13 -12
-9 -6 -7 -7 -7 -8 -9 -9 -8 -8 -8 -9 -8 -9 -9 -10 -11 -12 -11 -11 -10 -11 -11 -11 -11 -12 -12 -13 -13 -17 -21 -20 -22 -22 -20 -19 -15 -16 -14 -14 -13 -13 -13
-6 -6 -6 -7 -8 -8 -7 -8 -8 -8 -8 -8 -8 -9 -9 -9 -9 -10 -11 -11 -10 -11 -11 -11 -11 -12 -12 -13 -13 -15 -16 -14 -15 -21 -23 -21 -17 -15 -15 -15 -14 -14 -14
-5 -6 -6 -7 -7 -7 -9 -9 -8 -8 -8 -8 -8 -9 -9 -10 -10 -9 -9 -10 -10 -10 -10 -11 -11 -12 -12 -13 -13 -14 -15 -15 -15 -18 -20 -22 -22 -18 -16 -15 -15 -14 -15
-6 -6 -7 -7 -7 -7 -8 -8 -9 -8 -8 -8 -8 -9 -9 -10 -11 -10 -10 -10 -11 -11 -10 -10 -11 -11 -12 -12 -13 -14 -14 -16 -15 -16 -17 -18 -17 -15 -18 -16 -16 -17 -16
-6 -6 -6 -7 -7 -7 -8 -8 -8 -9 -8 -8 -8 -8 -8 -9 -9 -9 -10 -10 -11 -11 -10 -11 -11 -12 -13 -14 -15 -15 -16 -15 -15 -15 -16 -17 -17 -16 -19 -15 -15 -16 -22
-7 -7 -8 -8 -8 -8 -8 -9 -9 -9 -8 -8 -8 -8 -8 -8 -8 -8 -9 -9 -9 -10 -10 -10 -11 -12 -12 -13 -15 -15 -15 -16 -16 -15 -16 -17 -17 -18 -21 -21 -16 -19 -19
-7 -8 -8 -9 -9 -9 -9 -9 -9 -9 -9 -9 -9 -9 -9 -8 -8 -8 -8 -8 -9 -10 -11 -11 -11 -12 -12 -13 -14 -14 -15 -15 -16 -16 -16 -17 -18 -20 -22 -25 -25 -18 -23
-8 -8 -9 -9 -9 -9 -9 -9 -9 -9 -9 -10 -10 -9 -9 -9 -9 -8 -9 -9 -9 -9 -11 -11 -11 -11 -13 -13 -14 -14 -14 -14 -15 -15 -16 -17 -19 -20 -22 -25 -26 -23 -22

GFSGL_850_dewp_039.txt.gz
Dewpoint
0 -3 -5 -2 -4 -4 -5 -5 -6 -6 -6 -7 -7 -5 -5 -5 -3 -5 -3 -3 -4 -3 -4 -4 -5 -6 -7 -8 -9 -10 -11 -11 -11 -11 -12 -11 -10 -10 -10 -10 -10 -10 -10
-1 1 -1 -4 -5 -5 -5 -6 -6 -6 -6 -7 -6 -5 -5 -4 -4 -4 -5 -6 -5 -5 -6 -7 -9 -9 -9 -10 -10 -11 -12 -12 -12 -11 -11 -10 -9 -10 -11 -11 -11 -11 -10
1 -2 -5 -5 -5 -6 -7 -6 -6 -6 -6 -6 -5 -5 -4 -4 -4 -5 -5 -5 -6 -7 -8 -9 -9 -9 -10 -11 -10 -11 -11 -12 -12 -10 -9 -10 -10 -11 -11 -11 -11 -11 -10
-3 -6 -8 -6 -5 -6 -6 -5 -5 -6 -5 -5 -5 -5 -5 -5 -5 -6 -7 -6 -7 -9 -9 -9 -10 -11 -11 -10 -11 -11 -11 -11 -11 -10 -10 -10 -11 -10 -10 -10 -10 -10 -11
-5 -8 -8 -7 -6 -6 -5 -5 -6 -5 -5 -5 -5 -5 -5 -6 -7 -7 -8 -8 -9 -10 -10 -10 -11 -12 -12 -12 -11 -11 -10 -11 -11 -11 -11 -10 -10 -9 -10 -11 -10 -11 -10
-7 -7 -7 -7 -6 -6 -5 -5 -6 -6 -5 -6 -5 -5 -5 -6 -6 -8 -9 -9 -9 -10 -10 -11 -11 -12 -12 -12 -10 -11 -12 -11 -11 -10 -10 -10 -11 -11 -9 -9 -9 -10 -10
-7 -7 -8 -6 -6 -7 -7 -7 -7 -6 -5 -5 -5 -5 -5 -5 -6 -7 -8 -9 -9 -10 -10 -10 -11 -12 -11 -11 -11 -12 -11 -11 -11 -10 -10 -10 -10 -10 -10 -10 -11 -9 -9
-7 -8 -8 -7 -7 -8 -7 -7 -6 -5 -5 -6 -5 -6 -5 -5 -6 -7 -8 -9 -9 -9 -9 -10 -11 -11 -11 -12 -14 -11 -11 -11 -11 -11 -11 -11 -11 -12 -12 -11 -10 -10 -11
-8 -9 -9 -8 -8 -8 -8 -7 -5 -6 -6 -6 -5 -6 -5 -5 -6 -8 -8 -10 -8 -9 -9 -10 -10 -11 -11 -17 -22 -12 -12 -12 -11 -12 -13 -12 -13 -13 -12 -10 -11 -10 -10
-10 -10 -9 -8 -8 -8 -7 -7 -6 -6 -7 -6 -5 -6 -5 -6 -7 -8 -9 -10 -9 -9 -9 -10 -10 -11 -12 -23 -27 -13 -12 -12 -13 -13 -12 -11 -11 -10 -10 -10 -10 -9 -9
-11 -8 -8 -8 -8 -7 -6 -6 -6 -7 -6 -6 -7 -7 -7 -7 -7 -8 -9 -11 -10 -9 -10 -10 -10 -11 -17 -25 -28 -22 -14 -23 -16 -12 -12 -11 -11 -10 -10 -10 -10 -10 -9
-8 -7 -8 -8 -7 -7 -6 -6 -6 -7 -6 -6 -6 -8 -8 -9 -8 -9 -9 -11 -12 -13 -10 -10 -10 -18 -18 -23 -24 -21 -24 -16 -12 -12 -12 -11 -11 -11 -11 -10 -10 -9 -9
-12 -14 -8 -7 -7 -6 -6 -7 -7 -7 -6 -6 -6 -7 -8 -8 -7 -8 -9 -10 -11 -12 -11 -11 -15 -18 -17 -16 -14 -15 -15 -12 -13 -13 -12 -12 -11 -11 -11 -11 -10 -9 -8
-13 -8 -7 -7 -6 -6 -6 -7 -7 -6 -6 -6 -7 -8 -8 -8 -8 -8 -8 -10 -10 -10 -10 -10 -14 -12 -12 -12 -13 -12 -12 -12 -14 -13 -13 -12 -12 -12 -11 -11 -11 -10 -9
-9 -7 -7 -6 -5 -6 -7 -7 -7 -6 -7 -7 -7 -8 -8 -8 -8 -9 -9 -9 -10 -10 -11 -13 -11 -10 -11 -11 -12 -12 -12 -13 -13 -14 -13 -13 -13 -12 -12 -11 -11 -11 -10
-13 -9 -5 -6 -5 -6 -6 -6 -6 -7 -7 -8 -8 -9 -10 -12 -12 -10 -10 -11 -11 -11 -12 -11 -10 -10 -11 -11 -11 -12 -12 -12 -13 -13 -13 -13 -13 -13 -12 -11 -11 -11 -10
-13 -12 -10 -9 -8 -8 -6 -7 -7 -7 -6 -8 -8 -8 -9 -10 -12 -11 -11 -11 -11 -11 -11 -11 -10 -10 -11 -11 -11 -12 -12 -12 -14 -13 -13 -13 -13 -13 -13 -12 -12 -12 -11
-10 -9 -7 -5 -5 -6 -6 -7 -7 -7 -7 -7 -8 -8 -8 -9 -10 -11 -11 -11 -11 -11 -11 -10 -10 -10 -10 -11 -11 -12 -12 -13 -13 -13 -14 -14 -14 -14 -13 -13 -13 -12 -12
-7 -5 -5 -5 -6 -6 -6 -7 -7 -7 -8 -7 -7 -8 -8 -9 -9 -9 -10 -10 -10 -10 -10 -10 -10 -10 -10 -11 -11 -12 -13 -13 -13 -14 -14 -14 -14 -14 -13 -14 -13 -13 -13
-6 -6 -5 -6 -6 -7 -7 -7 -7 -8 -8 -8 -7 -8 -8 -9 -9 -9 -10 -10 -11 -11 -11 -11 -10 -10 -10 -11 -11 -12 -13 -13 -13 -13 -14 -14 -14 -14 -13 -13 -14 -13 -13
-6 -6 -5 -6 -6 -6 -6 -7 -7 -7 -9 -8 -8 -8 -8 -8 -9 -9 -9 -9 -9 -10 -10 -11 -11 -11 -11 -11 -12 -12 -12 -13 -13 -13 -14 -14 -14 -14 -14 -14 -14 -14 -14
-6 -5 -5 -5 -6 -6 -7 -7 -7 -7 -8 -8 -8 -8 -8 -8 -9 -9 -9 -9 -9 -10 -10 -10 -10 -11 -10 -11 -11 -12 -12 -13 -13 -14 -14 -15 -14 -14 -14 -14 -14 -14 -14
-6 -6 -6 -6 -6 -7 -8 -9 -8 -7 -8 -9 -9 -8 -8 -8 -8 -8 -9 -9 -9 -9 -9 -10 -10 -10 -10 -11 -11 -12 -12 -13 -13 -13 -15 -16 -14 -14 -14 -14 -14 -14 -14
-6 -8 -7 -7 -8 -8 -8 -8 -8 -8 -8 -8 -9 -9 -8 -8 -8 -8 -8 -8 -8 -8 -8 -9 -9 -10 -10 -10 -11 -12 -14 -14 -15 -16 -16 -16 -16 -15 -15 -15 -14 -14 -15
-6 -7 -7 -7 -8 -8 -9 -9 -9 -9 -8 -8 -8 -9 -9 -9 -9 -8 -8 -8 -8 -8 -8 -9 -9 -10 -11 -10 -11 -11 -13 -15 -15 -15 -16 -16 -16 -18 -19 -21 -17 -17 -15
-8 -7 -7 -8 -8 -9 -9 -9 -9 -9 -9 -9 -9 -9 -9 -10 -10 -10 -9 -9 -9 -9 -9 -9 -9 -10 -10 -11 -11 -11 -12 -14 -13 -14 -15 -16 -16 -17 -15 -15 -17 -20 -15

GFSGL_850_dewp_042.txt.gz
Dewpoint
3 2 -0 -0 -1 -2 -3 -4 -4 -5 -6 -6 -7 -7 -5 -5 -5 -5 -5 -6 -5 -4 -5 -5 -6 -7 -7 -7 -8 -9 -10 -10 -10 -10 -11 -11 -11 -11 -14 -11 -11 -13 -13
2 0 -0 -2 -2 -3 -5 -5 -6 -6 -6 -7 -7 -6 -5 -4 -6 -7 -7 -6 -7 -7 -6 -6 -7 -7 -9 -9 -9 -10 -10 -11 -11 -11 -11 -11 -10 -12 -11 -11 -11 -11 -12
0 1 -1 -2 -4 -5 -5 -6 -6 -5 -6 -7 -6 -5 -5 -5 -6 -5 -7 -5 -5 -6 -8 -8 -8 -9 -10 -10 -10 -10 -13 -12 -11 -10 -11 -11 -12 -12 -12 -11 -12 -10 -10
0 -2 -3 -3 -5 -5 -5 -6 -5 -6 -7 -6 -5 -5 -5 -5 -6 -5 -5 -6 -7 -8 -9 -10 -10 -10 -11 -11 -12 -13 -12 -12 -12 -12 -12 -13 -12 -12 -11 -11 -10 -11 -11
-1 -4 -3 -6 -6 -5 -6 -6 -6 -5 -6 -5 -5 -5 -5 -6 -5 -6 -7 -9 -10 -10 -11 -10 -10 -11 -11 -12 -12 -11 -11 -11 -12 -12 -12 -11 -11 -13 -11 -10 -11 -10 -12
-3 -5 -6 -5 -6 -5 -6 -5 -5 -6 -6 -6 -5 -5 -5 -6 -5 -5 -6 -7 -8 -10 -10 -10 -10 -11 -12 -12 -10 -10 -10 -12 -12 -11 -12 -11 -13 -10 -10 -12 -11 -12 -10
-5 -4 -5 -6 -6 -6 -6 -7 -7 -7 -6 -5 -6 -5 -5 -6 -6 -6 -6 -7 -9 -11 -9 -9 -9 -10 -11 -11 -12 -12 -19 -15 -12 -11 -11 -10 -11 -12 -13 -14 -14 -13 -12
-4 -5 -6 -8 -7 -7 -7 -7 -7 -7 -6 -6 -6 -5 -4 -6 -6 -5 -6 -7 -8 -10 -9 -8 -10 -10 -10 -12 -13 -15 -26 -16 -12 -12 -11 -11 -13 -14 -13 -12 -11 -11 -12
-6 -4 -8 -8 -8 -8 -7 -8 -8 -7 -6 -6 -6 -6 -5 -6 -5 -5 -6 -7 -8 -11 -10 -10 -9 -10 -11 -11 -12 -20 -27 -24 -14 -13 -16 -15 -13 -12 -11 -10 -11 -10 -11
-8 -9 -6 -8 -8 -8 -8 -8 -7 -6 -6 -6 -6 -6 -7 -7 -6 -6 -6 -9 -9 -10 -10 -9 -10 -10 -10 -11 -15 -22 -27 -23 -25 -20 -14 -13 -13 -11 -11 -10 -11 -10 -10
-6 -5 -7 -8 -7 -7 -7 -6 -7 -7 -6 -6 -6 -6 -7 -8 -8 -7 -7 -9 -10 -11 -12 -13 -10 -10 -11 -16 -18 -21 -22 -20 -17 -15 -14 -13 -12 -12 -12 -12 -11 -10 -9
-5 -9 -12 -8 -7 -6 -6 -6 -6 -6 -6 -6 -6 -5 -6 -8 -9 -9 -9 -9 -10 -11 -11 -13 -12 -13 -15 -17 -16 -16 -14 -14 -13 -14 -14 -13 -13 -13 -12 -12 -11 -11 -9
-10 -15 -18 -15 -7 -6 -6 -6 -6 -7 -7 -7 -7 -7 -7 -8 -8 -7 -7 -8 -10 -11 -11 -12 -12 -13 -13 -13 -13 -12 -12 -13 -12 -15 -14 -14 -14 -13 -12 -12 -12 -11 -11
-14 -17 -11 -7 -7 -7 -7 -7 -6 -7 -7 -7 -8 -8 -8 -8 -9 -8 -8 -9 -8 -10 -11 -11 -11 -12 -11 -11 -11 -11 -12 -13 -12 -13 -14 -15 -14 -14 -13 -12 -12 -12 -11
-14 -13 -11 -12 -12 -9 -6 -6 -6 -7 -7 -6 -7 -8 -7 -7 -8 -8 -9 -9 -8 -9 -9 -10 -11 -12 -10 -12 -12 -12 -12 -13 -12 -13 -15 -14 -13 -14 -15 -13 -12 -12 -12
-14 -14 -14 -12 -11 -10 -10 -10 -9 -8 -7 -8 -8 -7 -8 -8 -8 -9 -11 -12 -9 -10 -10 -11 -12 -11 -10 -11 -12 -12 -12 -12 -12 -14 -13 -13 -13 -14 -15 -13 -12 -12 -12
-13 -13 -11 -10 -8 -7 -6 -6 -6 -9 -8 -8 -7 -7 -7 -8 -8 -9 -10 -11 -10 -10 -11 -11 -12 -11 -11 -11 -12 -12 -11 -12 -13 -13 -13 -14 -14 -14 -14 -14 -14 -13 -14
-10 -11 -9 -8 -6 -5 -5 -6 -6 -7 -8 -8 -9 -8 -7 -8 -8 -9 -9 -9 -10 -10 -11 -11 -11 -11 -11 -11 -12 -11 -11 -12 -13 -13 -14 -13 -14 -14 -14 -13 -15 -14 -13
-9 -7 -7 -6 -5 -5 -6 -6 -6 -7 -7 -9 -8 -8 -8 -8 -9 -9 -8 -9 -10 -10 -11 -10 -10 -10 -10 -10 -11 -12 -12 -12 -13 -14 -14 -13 -14 -14 -14 -14 -14 -15 -14
-7 -6 -6 -6 -5 -5 -5 -6 -5 -6 -6 -7 -7 -9 -8 -7 -8 -9 -9 -9 -9 -10 -10 -11 -11 -11 -11 -10 -10 -11 -12 -12 -12 -13 -13 -14 -14 -14 -14 -14 -14 -14 -15
-4 -5 -5 -7 -6 -5 -5 -5 -6 -6 -6 -7 -7 -7 -8 -8 -7 -8 -8 -9 -9 -9 -9 -9 -10 -10 -11 -11 -11 -11 -11 -12 -12 -13 -13 -14 -15 -16 -14 -14 -14 -14 -14
-6 -6 -6 -6 -6 -6 -6 -6 -7 -8 -9 -9 -7 -7 -8 -8 -8 -8 -8 -8 -9 -9 -9 -9 -9 -9 -9 -11 -11 -11 -11 -12 -12 -13 -14 -15 -16 -16 -14 -14 -14 -14 -14
-9 -8 -7 -7 -6 -6 -7 -7 -8 -8 -8 -8 -8 -8 -8 -8 -8 -8 -8 -8 -8 -8 -8 -9 -9 -9 -9 -10 -10 -11 -11 -11 -12 -13 -14 -15 -16 -16 -14 -15 -14 -14 -15
-11 -13 -10 -10 -7 -7 -7 -7 -8 -9 -9 -9 -9 -9 -8 -8 -8 -8 -8 -8 -8 -8 -8 -8 -8 -8 -9 -9 -10 -10 -11 -11 -12 -14 -14 -16 -16 -16 -16 -17 -17 -15 -15
-12 -11 -9 -9 -8 -7 -7 -8 -8 -8 -9 -9 -9 -8 -8 -8 -8 -9 -10 -11 -10 -9 -9 -8 -8 -9 -8 -9 -10 -10 -11 -11 -11 -13 -15 -15 -16 -16 -17 -18 -20 -19 -16
-9 -9 -8 -8 -8 -8 -8 -9 -9 -10 -10 -11 -11 -10 -10 -10 -10 -9 -9 -9 -9 -9 -9 -9 -9 -9 -9 -9 -9 -10 -11 -11 -11 -12 -14 -14 -15 -16 -17 -17 -16 -18 -18

GFSGL_850_dewp_045.txt.gz
Dewpoint
5 5 5 4 2 0 -1 -1 -3 -3 -4 -7 -9 -10 -9 -6 -6 -6 -7 -10 -8 -7 -8 -8 -6 -7 -7 -7 -8 -8 -9 -10 -10 -11 -12 -13 -13 -12 -12 -13 -13 -13 -13
5 5 3 2 0 -0 -1 -2 -2 -3 -5 -7 -8 -8 -8 -5 -5 -6 -9 -9 -6 -6 -6 -7 -8 -8 -8 -9 -10 -11 -11 -11 -12 -15 -16 -15 -13 -13 -14 -13 -14 -13 -12
4 3 3 0 -1 -1 -3 -2 -4 -5 -6 -6 -7 -11 -7 -6 -5 -5 -9 -5 -5 -5 -7 -8 -9 -10 -10 -11 -11 -11 -11 -14 -14 -13 -14 -15 -14 -14 -13 -13 -14 -13 -12
3 2 1 -1 -2 -3 -2 -4 -5 -6 -6 -7 -11 -9 -5 -5 -5 -5 -7 -5 -6 -7 -8 -10 -13 -10 -10 -11 -11 -12 -12 -12 -12 -12 -15 -14 -13 -13 -13 -12 -11 -11 -13
2 1 -2 -3 -2 -3 -3 -2 -5 -6 -7 -8 -9 -6 -5 -5 -5 -5 -7 -6 -6 -6 -8 -11 -11 -10 -10 -11 -12 -12 -11 -11 -11 -14 -15 -12 -13 -12 -11 -11 -13 -15 -16
0 -2 -3 -4 -5 -4 -1 -5 -5 -7 -8 -7 -6 -6 -5 -6 -5 -5 -7 -5 -5 -6 -8 -12 -10 -10 -10 -11 -11 -11 -11 -12 -18 -18 -12 -12 -12 -11 -11 -13 -14 -14 -13
-1 -4 -6 -5 -3 -2 -5 -8 -8 -7 -7 -7 -6 -5 -7 -5 -5 -5 -7 -7 -6 -7 -8 -10 -10 -9 -9 -10 -11 -11 -14 -16 -25 -15 -12 -11 -11 -11 -13 -14 -13 -11 -11
-4 -5 -5 -5 -3 -6 -6 -6 -7 -7 -6 -6 -6 -6 -7 -6 -6 -7 -7 -5 -6 -6 -8 -10 -11 -9 -10 -10 -11 -13 -14 -19 -26 -19 -12 -13 -14 -14 -12 -11 -10 -10 -11
-5 -4 -4 -5 -6 -5 -8 -9 -11 -7 -6 -6 -5 -6 -6 -6 -6 -7 -6 -7 -6 -7 -10 -11 -12 -10 -9 -10 -11 -13 -18 -20 -24 -24 -18 -15 -13 -12 -11 -11 -11 -11 -12
-5 -5 -4 -4 -5 -9 -9 -13 -9 -6 -7 -6 -6 -6 -6 -6 -6 -8 -9 -6 -7 -7 -9 -11 -11 -10 -11 -11 -13 -17 -18 -19 -18 -18 -21 -18 -14 -13 -13 -12 -11 -11 -11
-3 -3 -3 -4 -6 -11 -11 -8 -10 -7 -7 -8 -6 -6 -6 -6 -6 -8 -8 -9 -9 -9 -10 -12 -11 -12 -12 -12 -14 -16 -16 -15 -15 -15 -16 -16 -15 -14 -14 -13 -12 -11 -11
-2 -2 -4 -9 -11 -12 -13 -8 -6 -6 -7 -6 -7 -7 -7 -8 -7 -8 -8 -8 -8 -8 -9 -11 -11 -12 -13 -14 -14 -14 -13 -13 -13 -13 -13 -15 -16 -15 -14 -13 -13 -12 -11
-4 -5 -8 -10 -15 -13 -8 -7 -6 -6 -6 -6 -6 -7 -7 -8 -8 -8 -9 -8 -8 -8 -9 -9 -11 -12 -12 -13 -13 -12 -12 -12 -13 -13 -13 -13 -15 -15 -15 -15 -13 -12 -13
-6 -9 -14 -14 -11 -9 -9 -10 -8 -5 -6 -6 -6 -6 -7 -7 -8 -8 -8 -9 -9 -10 -10 -8 -10 -11 -11 -12 -11 -12 -11 -11 -13 -12 -13 -13 -15 -14 -16 -14 -12 -13 -13
-11 -15 -14 -13 -14 -14 -12 -10 -9 -6 -6 -6 -7 -7 -8 -7 -7 -7 -8 -8 -8 -8 -10 -9 -9 -10 -11 -12 -11 -11 -12 -12 -12 -13 -13 -14 -15 -14 -15 -14 -13 -12 -13
-11 -12 -13 -13 -13 -12 -11 -10 -9 -9 -9 -9 -8 -8 -8 -8 -7 -6 -8 -8 -8 -9 -11 -9 -10 -11 -11 -12 -10 -11 -12 -11 -11 -12 -13 -14 -15 -14 -14 -15 -15 -14 -14
-8 -9 -10 -11 -12 -10 -8 -7 -7 -8 -7 -7 -7 -9 -9 -9 -9 -7 -8 -8 -8 -10 -11 -11 -11 -11 -12 -12 -11 -11 -12 -11 -11 -12 -14 -15 -15 -15 -14 -14 -15 -15 -14
-8 -8 -9 -10 -9 -7 -6 -6 -6 -6 -6 -9 -9 -8 -9 -9 -9 -9 -7 -8 -8 -9 -10 -10 -11 -12 -11 -12 -11 -11 -11 -12 -11 -12 -14 -15 -15 -14 -14 -14 -14 -15 -15
-8 -7 -6 -6 -5 -5 -5 -5 -5 -5 -6 -6 -10 -8 -9 -8 -8 -9 -7 -8 -9 -9 -9 -10 -11 -11 -11 -10 -11 -10 -10 -11 -12 -12 -15 -14 -14 -14 -15 -14 -14 -14 -15
-6 -6 -6 -6 -6 -6 -6 -6 -5 -6 -7 -7 -7 -7 -8 -8 -7 -8 -8 -7 -8 -9 -9 -9 -9 -11 -11 -10 -11 -11 -10 -10 -11 -12 -14 -14 -14 -15 -15 -14 -14 -14 -14
-18 -16 -12 -10 -10 -9 -8 -8 -7 -6 -8 -7 -7 -8 -9 -8 -8 -7 -8 -8 -7 -8 -8 -9 -9 -9 -10 -10 -10 -11 -11 -11 -11 -12 -14 -14 -14 -16 -16 -15 -14 -14 -14
-13 -10 -10 -12 -13 -14 -12 -10 -9 -6 -8 -8 -8 -9 -10 -10 -8 -8 -8 -8 -8 -8 -8 -9 -9 -9 -9 -9 -9 -10 -10 -11 -11 -12 -14 -14 -15 -16 -16 -15 -15 -14 -15
-19 -17 -13 -12 -11 -10 -9 -9 -8 -7 -7 -8 -9 -8 -9 -9 -9 -8 -8 -9 -8 -8 -8 -8 -8 -9 -9 -9 -9 -9 -10 -10 -11 -12 -12 -14 -15 -16 -16 -16 -16 -15 -16
-12 -11 -11 -10 -9 -9 -9 -8 -8 -7 -8 -9 -9 -9 -9 -9 -8 -8 -8 -8 -9 -9 -9 -8 -8 -8 -8 -8 -8 -9 -9 -10 -10 -11 -11 -13 -14 -15 -16 -17 -17 -18 -17
-14 -13 -12 -12 -12 -12 -11 -10 -10 -10 -10 -10 -10 -11 -11 -11 -10 -10 -9 -9 -8 -9 -10 -10 -9 -9 -9 -9 -9 -9 -9 -10 -10 -11 -11 -12 -15 -16 -16 -17 -18 -19 -19
-15 -15 -15 -15 -14 -14 -14 -13 -13 -13 -13 -13 -13 -14 -14 -14 -13 -12 -12 -11 -10 -10 -9 -9 -9 -9 -9 -9 -9 -9 -9 -10 -11 -11 -11 -12 -14 -13 -15 -16 -17 -17 -19

GFSGL_850_dewp_048.txt.gz
Dewpoint
8 5 5 5 5 3 1 -0 0 -0 1 0 -2 -5 -9 -13 -16 -14 -8 -5 -9 -10 -8 -8 -7 -7 -7 -8 -8 -8 -9 -11 -11 -12 -14 -17 -18 -19 -19 -17 -15 -14 -14
6 6 5 5 4 1 1 2 1 -0 1 -3 -4 -6 -7 -14 -12 -9 -6 -5 -6 -8 -7 -7 -8 -8 -9 -9 -9 -10 -11 -11 -12 -13 -16 -16 -18 -20 -15 -14 -14 -14 -14
5 5 5 4 3 3 3 -1 -1 0 -3 -5 -6 -6 -11 -13 -8 -6 -5 -5 -6 -7 -5 -6 -7 -9 -12 -11 -10 -11 -11 -12 -13 -13 -13 -15 -22 -15 -14 -14 -13 -13 -12
5 5 4 4 4 0 -1 -1 -1 -5 -4 -5 -5 -11 -12 -9 -6 -5 -5 -5 -6 -6 -5 -6 -6 -8 -14 -10 -10 -10 -12 -12 -12 -12 -14 -20 -17 -14 -13 -13 -12 -14 -16
5 4 3 3 -1 -1 -1 -3 -3 -3 -5 -7 -9 -11 -9 -6 -5 -5 -5 -5 -5 -6 -5 -5 -6 -9 -13 -10 -10 -11 -11 -12 -11 -14 -16 -23 -14 -13 -12 -12 -13 -14 -15
5 3 -0 -1 -1 -3 -3 -2 -2 -4 -6 -7 -10 -9 -6 -6 -6 -6 -5 -5 -6 -7 -6 -5 -7 -9 -11 -10 -9 -10 -11 -10 -12 -14 -23 -21 -14 -13 -13 -13 -13 -12 -11
1 -0 -2 -2 -3 -4 -3 -4 -3 -6 -5 -7 -9 -6 -6 -6 -6 -7 -6 -6 -7 -7 -6 -5 -7 -8 -10 -9 -9 -11 -10 -11 -13 -19 -25 -20 -16 -15 -14 -13 -12 -12 -10
-1 -5 -5 -5 -4 -4 -3 -3 -1 -4 -9 -9 -7 -6 -6 -5 -6 -6 -6 -6 -7 -5 -6 -6 -8 -10 -11 -11 -11 -11 -12 -13 -17 -21 -22 -20 -16 -13 -12 -11 -11 -11 -12
-4 -5 -4 -4 -4 -2 -0 -2 -6 -8 -8 -8 -8 -7 -6 -6 -6 -6 -6 -6 -8 -9 -6 -7 -8 -10 -11 -11 -12 -12 -13 -17 -18 -17 -17 -18 -17 -14 -12 -12 -12 -12 -13
-5 -4 -4 -1 0 -2 -4 -7 -8 -9 -11 -10 -10 -9 -8 -7 -7 -6 -8 -7 -8 -9 -7 -7 -9 -11 -12 -12 -13 -12 -15 -17 -16 -16 -16 -16 -17 -17 -15 -13 -12 -12 -11
-4 -3 -0 -1 -4 -6 -7 -8 -10 -11 -8 -7 -7 -8 -7 -7 -6 -7 -8 -7 -8 -8 -8 -9 -8 -11 -12 -13 -13 -15 -15 -14 -14 -14 -14 -14 -14 -15 -16 -16 -14 -13 -12
0 -1 -2 -5 -8 -8 -10 -15 -12 -9 -8 -7 -7 -7 -6 -6 -6 -6 -7 -7 -8 -8 -8 -8 -8 -9 -11 -13 -13 -13 -13 -12 -13 -12 -13 -14 -13 -14 -15 -16 -17 -13 -12
-4 -6 -8 -10 -10 -14 -15 -14 -11 -10 -9 -9 -7 -6 -6 -6 -6 -7 -7 -7 -7 -7 -9 -9 -9 -9 -10 -12 -12 -12 -12 -12 -12 -12 -13 -13 -13 -14 -15 -16 -15 -13 -13
-9 -10 -12 -17 -17 -16 -15 -14 -13 -12 -12 -11 -8 -7 -7 -8 -8 -8 -8 -7 -7 -7 -8 -8 -9 -9 -9 -10 -10 -11 -12 -11 -12 -12 -12 -12 -12 -15 -16 -15 -15 -15 -14
-15 -16 -15 -15 -15 -15 -14 -13 -12 -12 -10 -10 -10 -9 -9 -9 -10 -9 -8 -7 -7 -8 -8 -8 -8 -9 -10 -10 -10 -11 -12 -11 -12 -12 -11 -12 -12 -15 -16 -15 -15 -16 -15
-9 -10 -10 -9 -9 -9 -9 -10 -10 -9 -8 -8 -8 -7 -8 -7 -8 -9 -9 -8 -8 -8 -8 -9 -9 -10 -10 -10 -11 -12 -11 -11 -11 -12 -11 -11 -12 -15 -16 -15 -15 -16 -16
-8 -9 -8 -8 -7 -7 -6 -6 -6 -7 -6 -6 -6 -5 -5 -7 -7 -9 -9 -9 -8 -7 -8 -9 -9 -10 -11 -11 -11 -12 -11 -11 -11 -12 -11 -11 -12 -15 -15 -15 -15 -15 -17
-7 -6 -5 -5 -5 -5 -5 -5 -5 -5 -6 -6 -6 -6 -6 -6 -7 -7 -8 -8 -7 -7 -8 -8 -9 -10 -10 -11 -11 -12 -11 -11 -11 -11 -11 -11 -13 -15 -16 -15 -15 -15 -15
-11 -11 -11 -13 -13 -12 -11 -11 -10 -9 -7 -6 -7 -7 -8 -9 -7 -7 -9 -7 -8 -8 -8 -8 -8 -9 -9 -10 -11 -11 -11 -11 -11 -10 -11 -11 -14 -14 -15 -15 -15 -15 -15
-25 -27 -25 -21 -19 -17 -17 -17 -16 -12 -9 -7 -7 -6 -8 -8 -9 -10 -10 -9 -7 -8 -8 -8 -8 -9 -9 -9 -11 -11 -10 -10 -11 -10 -10 -11 -13 -15 -14 -16 -15 -15 -15
-25 -25 -23 -21 -16 -13 -11 -10 -10 -10 -9 -9 -10 -7 -8 -8 -9 -10 -9 -10 -8 -8 -8 -8 -8 -8 -8 -9 -10 -11 -11 -11 -10 -10 -10 -11 -13 -15 -14 -16 -15 -15 -15
-22 -19 -17 -13 -11 -11 -10 -10 -10 -10 -10 -9 -8 -8 -8 -9 -9 -8 -8 -9 -9 -8 -8 -8 -8 -8 -9 -9 -9 -9 -9 -10 -10 -10 -10 -11 -13 -14 -15 -16 -15 -16 -15
-19 -17 -16 -14 -13 -13 -12 -12 -12 -11 -10 -9 -9 -9 -9 -9 -9 -9 -9 -8 -8 -8 -8 -9 -8 -8 -8 -8 -9 -9 -9 -9 -9 -10 -10 -11 -12 -14 -15 -16 -16 -16 -16
-18 -17 -16 -16 -16 -15 -14 -14 -13 -13 -12 -12 -12 -12 -11 -10 -10 -10 -10 -10 -9 -9 -9 -9 -9 -9 -8 -8 -8 -8 -8 -9 -9 -10 -10 -11 -11 -12 -14 -16 -16 -17 -18
-18 -18 -17 -17 -17 -16 -16 -16 -15 -15 -14 -14 -14 -14 -13 -13 -13 -13 -13 -12 -11 -10 -9 -9 -9 -9 -10 -9 -9 -9 -9 -9 -9 -9 -10 -11 -11 -12 -14 -16 -16 -17 -18
-20 -19 -19 -18 -18 -17 -17 -17 -17 -17 -16 -16 -16 -15 -15 -15 -14 -14 -14 -13 -13 -13 -13 -11 -9 -9 -9 -9 -9 -9 -9 -9 -9 -9 -10 -11 -11 -12 -15 -14 -16 -17 -17

GFSGL_850_dewp_051.txt.gz
Dewpoint
8 9 9 8 7 6 5 4 4 4 2 3 2 0 -3 -6 -8 -15 -15 -12 -10 -7 -6 -10 -9 -8 -8 -8 -9 -9 -9 -10 -11 -12 -12 -14 -17 -18 -20 -21 -18 -16 -15
8 8 8 7 5 5 4 3 2 2 3 1 0 -2 -4 -6 -13 -17 -13 -10 -6 -5 -5 -8 -7 -6 -7 -8 -9 -12 -11 -11 -11 -11 -13 -15 -18 -19 -22 -18 -17 -15 -14
7 8 8 5 5 4 4 2 2 3 1 1 -3 -5 -5 -12 -14 -13 -11 -7 -5 -5 -5 -6 -6 -5 -6 -6 -11 -12 -10 -10 -11 -12 -12 -14 -18 -20 -22 -18 -16 -15 -16
8 8 6 5 5 3 1 3 1 -1 -3 -3 -4 -6 -9 -10 -11 -10 -8 -7 -6 -5 -5 -6 -5 -5 -5 -8 -10 -11 -10 -11 -11 -11 -11 -15 -18 -22 -22 -16 -18 -18 -20
7 6 5 4 3 3 3 -1 -1 -3 -1 -4 -6 -5 -8 -8 -8 -7 -6 -7 -6 -5 -5 -7 -6 -6 -6 -8 -10 -11 -10 -10 -11 -10 -12 -16 -19 -23 -19 -17 -17 -16 -14
6 6 4 3 3 -0 -2 -2 -3 -2 -4 -2 -0 -3 -7 -7 -6 -6 -6 -6 -6 -6 -6 -7 -6 -5 -6 -7 -9 -10 -9 -10 -10 -11 -14 -18 -21 -22 -20 -17 -14 -13 -11
6 4 3 1 -0 -3 -3 -2 -4 -2 -0 -1 -3 -7 -6 -7 -6 -6 -6 -6 -6 -6 -6 -6 -6 -6 -6 -9 -11 -10 -9 -10 -10 -12 -17 -19 -20 -19 -18 -17 -14 -12 -11
4 2 0 -1 -3 -4 -4 -2 -0 -1 -4 -6 -7 -8 -9 -8 -7 -6 -6 -6 -6 -6 -7 -7 -7 -7 -7 -9 -10 -10 -10 -10 -11 -16 -18 -18 -17 -19 -16 -13 -12 -12 -13
0 -1 -3 -4 -3 -1 -0 -0 -0 -6 -7 -8 -9 -11 -12 -12 -10 -8 -7 -6 -6 -8 -7 -8 -9 -7 -9 -11 -11 -10 -10 -12 -14 -17 -17 -16 -15 -17 -17 -16 -15 -13 -13
-4 -4 -3 -1 -1 -0 -1 -4 -6 -8 -8 -9 -13 -11 -10 -11 -9 -8 -7 -6 -7 -7 -8 -8 -8 -9 -10 -11 -11 -11 -11 -12 -16 -16 -15 -15 -15 -15 -15 -15 -15 -14 -13
-3 -3 -1 -0 -1 -2 -7 -9 -9 -10 -15 -14 -12 -12 -11 -9 -9 -7 -7 -6 -6 -7 -7 -8 -8 -8 -8 -9 -11 -12 -12 -14 -14 -14 -14 -14 -15 -14 -15 -15 -15 -16 -15
0 -0 -2 -4 -6 -8 -9 -11 -14 -13 -12 -14 -14 -14 -13 -11 -8 -7 -7 -6 -6 -7 -7 -8 -9 -8 -8 -9 -9 -12 -12 -12 -13 -13 -13 -13 -14 -14 -14 -15 -16 -15 -12
-4 -6 -8 -9 -11 -14 -15 -15 -15 -14 -14 -14 -13 -13 -13 -12 -10 -9 -9 -7 -7 -7 -8 -8 -8 -8 -8 -9 -9 -11 -11 -11 -12 -12 -12 -13 -13 -13 -14 -16 -16 -16 -17
-10 -12 -14 -14 -14 -14 -14 -14 -13 -13 -12 -12 -11 -11 -10 -10 -10 -10 -9 -9 -9 -7 -8 -8 -8 -8 -8 -9 -9 -9 -10 -10 -11 -11 -12 -13 -13 -13 -13 -15 -16 -16 -18
-12 -11 -11 -10 -10 -10 -10 -9 -8 -8 -7 -7 -7 -7 -7 -7 -8 -8 -7 -8 -9 -9 -7 -7 -7 -9 -8 -9 -9 -9 -10 -10 -11 -11 -12 -12 -12 -12 -13 -16 -16 -16 -17
-11 -11 -10 -11 -10 -9 -9 -10 -9 -8 -8 -7 -6 -5 -5 -5 -5 -5 -5 -6 -8 -9 -8 -8 -8 -8 -9 -9 -10 -11 -10 -11 -12 -11 -12 -12 -12 -12 -13 -16 -16 -15 -16
-11 -10 -9 -8 -8 -9 -12 -15 -16 -22 -18 -16 -14 -12 -11 -8 -7 -6 -5 -6 -7 -7 -8 -8 -8 -8 -9 -9 -9 -10 -11 -12 -11 -10 -12 -12 -11 -11 -13 -15 -16 -16 -16
-18 -21 -24 -28 -29 -29 -27 -25 -22 -19 -18 -24 -26 -17 -10 -8 -9 -7 -6 -7 -7 -7 -7 -8 -9 -8 -8 -8 -9 -10 -11 -11 -11 -11 -11 -11 -11 -11 -14 -15 -16 -16 -15
-29 -32 -32 -30 -28 -26 -23 -20 -17 -13 -11 -11 -11 -14 -14 -14 -9 -7 -7 -7 -7 -8 -9 -8 -8 -8 -8 -8 -9 -9 -11 -11 -11 -12 -12 -11 -11 -11 -13 -14 -17 -16 -15
-32 -31 -30 -27 -25 -21 -18 -13 -12 -11 -11 -11 -11 -11 -11 -9 -11 -7 -8 -8 -10 -9 -8 -8 -8 -8 -8 -8 -8 -9 -10 -11 -11 -11 -11 -11 -11 -11 -12 -14 -16 -16 -16
-30 -29 -27 -24 -20 -17 -15 -14 -12 -12 -12 -12 -11 -10 -10 -9 -9 -8 -8 -9 -8 -9 -9 -8 -8 -8 -8 -8 -8 -9 -9 -11 -11 -11 -11 -11 -11 -11 -13 -15 -16 -16 -16
-27 -25 -23 -20 -19 -18 -17 -15 -14 -14 -14 -13 -13 -12 -12 -11 -11 -10 -9 -9 -9 -9 -8 -8 -8 -8 -8 -8 -8 -9 -9 -9 -10 -10 -11 -11 -11 -11 -12 -15 -16 -17 -17
-24 -23 -22 -21 -20 -19 -18 -17 -16 -16 -16 -15 -15 -14 -14 -13 -13 -13 -11 -10 -9 -9 -9 -9 -9 -8 -9 -8 -8 -8 -9 -9 -9 -9 -9 -10 -11 -11 -12 -14 -16 -17 -17
-23 -23 -22 -21 -20 -19 -19 -18 -17 -17 -17 -17 -17 -16 -15 -15 -14 -14 -13 -12 -12 -12 -11 -10 -9 -9 -9 -9 -9 -9 -9 -9 -9 -9 -9 -10 -11 -11 -11 -13 -14 -16 -17
-22 -22 -21 -21 -20 -20 -19 -19 -18 -18 -18 -18 -18 -17 -17 -16 -16 -15 -14 -14 -14 -14 -13 -12 -11 -10 -9 -9 -9 -9 -9 -9 -9 -9 -9 -9 -10 -11 -12 -12 -14 -16 -17
-22 -21 -21 -20 -20 -20 -20 -19 -19 -19 -19 -19 -18 -18 -18 -18 -17 -16 -16 -15 -14 -13 -13 -12 -11 -12 -11 -9 -9 -9 -9 -9 -9 -9 -9 -10 -10 -11 -12 -12 -14 -15 -16

GFSGL_850_dewp_054.txt.gz
Dewpoint
8 9 9 8 8 8 7 6 5 5 5 4 3 4 3 0 0 -4 -14 -13 -10 -9 -6 -5 -5 -8 -8 -7 -7 -8 -8 -10 -11 -12 -12 -11 -13 -15 -19 -20 -22 -20 -18
9 9 8 8 8 8 8 7 7 6 5 4 4 3 1 -2 -3 -8 -8 -11 -8 -5 -5 -5 -6 -7 -7 -6 -7 -7 -8 -11 -11 -11 -11 -13 -14 -16 -19 -20 -22 -19 -18
6 7 7 7 7 9 8 7 5 4 4 3 2 1 -2 -3 -7 -5 -10 -7 -6 -7 -6 -6 -6 -8 -6 -5 -5 -6 -9 -11 -11 -10 -11 -12 -14 -18 -20 -21 -21 -20 -21
6 7 7 8 8 8 5 4 3 2 2 1 -1 -2 -5 -4 -4 -8 -7 -7 -8 -7 -7 -5 -6 -7 -7 -6 -6 -7 -9 -10 -10 -10 -10 -12 -14 -18 -19 -21 -21 -20 -20
7 8 9 8 7 4 3 2 2 2 -0 -2 -3 -1 -1 -3 -5 -7 -7 -8 -6 -6 -7 -6 -6 -7 -7 -6 -6 -7 -8 -9 -10 -10 -11 -12 -14 -18 -20 -20 -19 -20 -19
8 9 8 6 3 3 2 3 1 -1 -2 -3 -0 -1 -1 -3 -7 -7 -7 -7 -6 -6 -7 -6 -6 -6 -6 -6 -6 -6 -9 -10 -9 -9 -11 -12 -15 -19 -18 -19 -18 -15 -12
7 6 4 3 2 2 0 -1 -2 -3 -1 -0 -0 -1 -4 -7 -7 -8 -8 -7 -6 -7 -7 -6 -7 -7 -6 -7 -7 -7 -9 -9 -9 -10 -10 -12 -17 -17 -17 -18 -17 -16 -14
5 4 3 2 -0 -2 -3 -2 -2 -0 -0 -0 -4 -7 -8 -10 -12 -12 -10 -8 -7 -7 -6 -7 -7 -7 -7 -8 -7 -8 -10 -10 -10 -10 -11 -15 -17 -16 -16 -16 -15 -15 -16
4 2 -1 -3 -3 -2 -1 -1 -0 -0 -3 -7 -8 -9 -10 -13 -12 -12 -11 -9 -8 -7 -6 -7 -7 -8 -8 -8 -8 -10 -12 -11 -10 -11 -13 -16 -15 -15 -14 -14 -15 -15 -16
-1 -2 -2 -1 -1 -1 0 -1 -2 -6 -9 -9 -11 -14 -14 -13 -11 -10 -9 -7 -7 -7 -7 -6 -6 -7 -8 -8 -8 -9 -10 -12 -11 -12 -14 -14 -14 -14 -14 -14 -14 -15 -15
-3 -2 -1 0 -0 -2 -5 -7 -8 -10 -12 -15 -15 -14 -14 -13 -12 -10 -9 -7 -7 -7 -7 -6 -7 -8 -7 -8 -8 -8 -9 -11 -12 -13 -13 -13 -13 -14 -15 -15 -15 -16 -16
0 -1 -4 -6 -8 -9 -11 -13 -14 -15 -15 -15 -14 -15 -14 -13 -12 -12 -10 -8 -8 -7 -7 -7 -8 -9 -8 -8 -9 -9 -9 -10 -12 -11 -12 -12 -13 -13 -14 -14 -15 -16 -16
-6 -9 -11 -13 -14 -14 -13 -13 -12 -12 -11 -10 -9 -10 -11 -12 -11 -10 -9 -9 -9 -8 -9 -9 -8 -7 -7 -8 -8 -8 -9 -9 -11 -10 -11 -11 -12 -12 -13 -13 -15 -17 -17
-12 -13 -13 -13 -13 -12 -11 -10 -10 -10 -9 -9 -8 -7 -7 -7 -7 -8 -7 -6 -7 -7 -8 -9 -9 -8 -7 -7 -8 -8 -8 -9 -10 -10 -10 -11 -11 -12 -12 -12 -14 -17 -18
-13 -13 -13 -13 -12 -12 -12 -12 -12 -13 -15 -17 -18 -17 -13 -13 -12 -10 -7 -6 -6 -6 -6 -7 -9 -10 -8 -8 -8 -8 -8 -9 -9 -10 -10 -11 -11 -12 -12 -12 -15 -17 -17
-14 -14 -14 -16 -21 -27 -32 -34 -34 -35 -33 -30 -25 -18 -19 -15 -15 -15 -10 -8 -8 -7 -6 -7 -8 -9 -9 -9 -8 -8 -9 -9 -10 -10 -10 -11 -11 -12 -12 -12 -15 -16 -17
-20 -24 -27 -32 -34 -34 -34 -33 -32 -33 -30 -26 -19 -16 -15 -14 -12 -14 -13 -11 -8 -7 -7 -7 -7 -8 -9 -10 -8 -8 -9 -9 -10 -11 -11 -11 -11 -12 -12 -12 -15 -16 -17
-29 -33 -34 -34 -32 -31 -30 -28 -24 -21 -17 -17 -16 -14 -14 -14 -13 -12 -11 -9 -9 -8 -7 -7 -7 -8 -8 -8 -9 -8 -8 -9 -10 -11 -11 -11 -11 -12 -12 -12 -14 -16 -17
-34 -34 -33 -32 -30 -29 -27 -24 -20 -17 -13 -14 -14 -14 -14 -14 -12 -11 -11 -9 -8 -8 -8 -8 -9 -9 -8 -8 -8 -8 -8 -9 -10 -11 -12 -11 -11 -12 -12 -12 -13 -16 -17
-32 -31 -30 -30 -28 -26 -24 -23 -21 -18 -16 -15 -16 -15 -15 -15 -13 -12 -10 -9 -9 -8 -9 -9 -9 -8 -8 -8 -8 -8 -8 -9 -10 -11 -11 -12 -11 -12 -11 -11 -13 -15 -17
-30 -29 -28 -27 -26 -24 -23 -22 -20 -18 -17 -17 -17 -17 -17 -15 -14 -13 -13 -12 -11 -10 -10 -10 -9 -8 -8 -8 -8 -8 -8 -9 -9 -10 -11 -11 -11 -12 -11 -11 -14 -15 -17
-28 -27 -26 -25 -24 -23 -22 -21 -20 -19 -18 -18 -18 -18 -18 -17 -16 -15 -14 -13 -13 -13 -12 -11 -10 -9 -9 -9 -9 -9 -9 -8 -9 -9 -11 -11 -11 -11 -11 -11 -13 -16 -17
-27 -26 -25 -24 -23 -22 -22 -21 -20 -20 -19 -19 -19 -19 -18 -18 -17 -17 -16 -15 -14 -13 -13 -12 -11 -10 -9 -9 -9 -9 -9 -9 -9 -9 -9 -10 -10 -11 -11 -11 -13 -15 -17
-25 -24 -24 -23 -22 -22 -21 -21 -20 -20 -20 -20 -20 -19 -19 -18 -18 -18 -17 -16 -15 -14 -14 -13 -13 -12 -10 -10 -9 -9 -9 -9 -9 -9 -9 -9 -9 -10 -11 -11 -13 -15 -16
-24 -23 -22 -22 -22 -21 -21 -21 -21 -21 -20 -20 -20 -20 -20 -19 -19 -19 -18 -18 -16 -15 -14 -14 -13 -12 -12 -11 -10 -10 -10 -9 -9 -9 -9 -9 -9 -10 -11 -11 -12 -14 -16
-22 -22 -22 -21 -21 -21 -21 -21 -21 -21 -22 -22 -22 -22 -22 -21 -21 -21 -20 -18 -17 -16 -15 -15 -14 -13 -13 -11 -11 -10 -10 -10 -9 -9 -9 -9 -9 -10 -11 -11 -12 -13 -15

GFSGL_850_dewp_057.txt.gz
Dewpoint
7 7 8 8 9 10 10 9 8 7 6 5 4 2 1 3 2 0 -3 -2 -8 -10 -9 -7 -8 -6 -7 -8 -8 -6 -7 -7 -7 -9 -10 -10 -11 -11 -11 -14 -21 -21 -21
7 8 8 9 10 9 7 7 8 8 6 5 4 2 2 2 1 0 -1 -5 -8 -9 -8 -8 -7 -6 -6 -8 -7 -6 -7 -6 -6 -9 -10 -10 -10 -10 -14 -18 -20 -21 -21
7 8 7 7 7 7 8 9 8 6 7 5 2 3 2 1 1 -2 -4 -7 -8 -8 -8 -7 -7 -6 -6 -8 -8 -6 -6 -6 -8 -9 -9 -10 -10 -10 -11 -13 -17 -17 -17
8 8 8 8 9 9 8 8 6 6 5 3 3 2 1 0 -1 -3 -7 -7 -7 -7 -7 -7 -7 -6 -7 -7 -7 -7 -6 -6 -8 -9 -9 -10 -10 -10 -11 -14 -14 -14 -14
10 9 9 8 8 7 7 7 5 4 2 2 2 0 0 0 -0 -3 -5 -6 -6 -7 -7 -7 -7 -7 -7 -7 -6 -7 -7 -7 -8 -8 -9 -10 -10 -11 -12 -15 -13 -13 -13
9 8 8 8 7 6 4 2 2 2 1 0 -0 -0 -0 -0 -1 -5 -6 -6 -7 -7 -7 -7 -7 -7 -7 -8 -7 -7 -7 -7 -7 -8 -9 -10 -10 -10 -12 -13 -12 -12 -13
7 7 6 5 4 2 2 2 1 0 -1 -1 -0 -0 -1 -2 -6 -7 -7 -7 -8 -7 -7 -7 -7 -7 -7 -8 -7 -6 -8 -8 -8 -8 -9 -9 -9 -10 -14 -12 -12 -12 -12
6 5 3 2 2 2 0 -1 -2 -2 -1 -0 -1 -1 -6 -7 -8 -9 -11 -12 -11 -11 -9 -8 -7 -7 -7 -7 -7 -6 -8 -8 -10 -11 -11 -10 -10 -12 -16 -12 -11 -12 -11
4 3 2 0 -1 -1 -1 -1 -0 -0 -0 -2 -6 -7 -8 -9 -9 -11 -10 -9 -9 -9 -9 -8 -7 -6 -7 -7 -7 -7 -7 -8 -10 -11 -11 -10 -12 -15 -15 -11 -11 -11 -11
0 -1 -1 -1 -1 0 0 -0 -3 -6 -8 -8 -9 -11 -13 -12 -12 -12 -11 -9 -7 -8 -9 -8 -7 -7 -6 -6 -7 -7 -7 -8 -8 -9 -11 -12 -13 -14 -14 -13 -12 -12 -12
-1 -2 -1 1 -0 -3 -7 -8 -9 -10 -13 -14 -15 -15 -15 -14 -14 -14 -13 -10 -10 -10 -8 -7 -7 -7 -6 -6 -8 -7 -8 -9 -8 -9 -11 -11 -12 -12 -11 -11 -11 -12 -12
-1 1 -2 -6 -8 -10 -12 -14 -15 -14 -14 -13 -13 -13 -12 -12 -11 -11 -10 -9 -8 -7 -7 -8 -8 -9 -7 -6 -8 -8 -8 -8 -9 -8 -10 -11 -11 -10 -11 -11 -12 -13 -13
-5 -8 -10 -12 -13 -13 -13 -13 -13 -13 -12 -12 -13 -18 -21 -21 -17 -21 -28 -22 -10 -6 -6 -6 -8 -8 -8 -7 -7 -7 -8 -8 -8 -8 -10 -10 -10 -10 -11 -12 -13 -13 -15
-12 -13 -14 -14 -14 -14 -15 -17 -23 -31 -33 -33 -28 -18 -15 -15 -12 -11 -11 -11 -11 -10 -12 -9 -7 -7 -7 -7 -7 -7 -7 -7 -8 -8 -9 -10 -10 -11 -11 -11 -12 -12 -12
-14 -15 -15 -18 -23 -29 -33 -35 -35 -34 -31 -28 -20 -12 -12 -14 -11 -13 -13 -12 -11 -12 -10 -10 -7 -8 -7 -7 -8 -8 -8 -8 -8 -8 -9 -9 -10 -10 -11 -11 -12 -12 -12
-18 -23 -27 -31 -35 -36 -36 -35 -34 -33 -32 -30 -24 -16 -14 -15 -15 -16 -15 -15 -13 -12 -11 -11 -8 -8 -8 -7 -8 -8 -9 -9 -8 -9 -9 -9 -10 -10 -11 -11 -12 -12 -12
-26 -31 -34 -35 -35 -34 -34 -33 -32 -29 -28 -26 -24 -22 -19 -18 -16 -15 -15 -13 -11 -11 -10 -10 -9 -8 -7 -7 -7 -8 -9 -10 -8 -9 -9 -10 -10 -11 -11 -11 -12 -12 -13
-33 -35 -34 -34 -33 -32 -32 -30 -29 -28 -23 -23 -25 -23 -22 -21 -20 -17 -15 -12 -10 -10 -9 -8 -7 -7 -8 -8 -8 -8 -8 -9 -8 -9 -9 -10 -11 -12 -11 -12 -12 -12 -13
-34 -33 -32 -31 -31 -30 -29 -28 -27 -26 -25 -25 -25 -24 -23 -22 -21 -19 -16 -14 -13 -12 -11 -10 -9 -9 -9 -9 -9 -9 -8 -9 -8 -9 -9 -10 -11 -12 -11 -12 -12 -12 -14
-32 -31 -30 -30 -29 -28 -27 -26 -25 -25 -24 -23 -23 -22 -22 -22 -21 -19 -18 -15 -14 -13 -12 -12 -11 -10 -9 -9 -9 -9 -9 -9 -8 -9 -9 -10 -11 -12 -11 -12 -12 -12 -13
-30 -29 -29 -28 -27 -26 -25 -24 -24 -23 -22 -22 -22 -21 -20 -20 -20 -19 -18 -18 -16 -15 -14 -13 -13 -12 -10 -10 -9 -9 -9 -9 -9 -9 -9 -10 -11 -12 -12 -11 -12 -12 -14
-28 -28 -28 -27 -25 -25 -24 -23 -23 -22 -22 -21 -21 -21 -21 -20 -20 -20 -19 -18 -18 -16 -15 -14 -13 -13 -12 -11 -10 -10 -10 -10 -9 -9 -9 -9 -10 -11 -11 -11 -12 -12 -14
-27 -27 -26 -25 -24 -23 -23 -22 -22 -22 -21 -21 -21 -21 -21 -21 -21 -20 -20 -19 -19 -18 -16 -15 -14 -13 -13 -12 -11 -10 -10 -10 -10 -10 -9 -9 -10 -11 -11 -11 -12 -12 -14
-26 -25 -24 -24 -23 -23 -22 -22 -21 -21 -21 -22 -22 -23 -24 -23 -23 -22 -22 -21 -21 -19 -18 -16 -15 -15 -14 -13 -12 -11 -10 -10 -10 -10 -10 -9 -9 -10 -10 -11 -11 -12 -14
-25 -24 -23 -23 -22 -22 -22 -21 -21 -22 -23 -24 -24 -24 -24 -23 -23 -23 -23 -23 -23 -23 -20 -18 -16 -15 -14 -14 -13 -12 -11 -10 -10 -10 -10 -10 -9 -9 -10 -10 -11 -12 -14
-23 -23 -22 -22 -22 -21 -21 -22 -23 -24 -24 -24 -23 -23 -23 -23 -23 -23 -23 -23 -23 -23 -23 -21 -17 -15 -15 -14 -14 -13 -12 -11 -10 -10 -9 -9 -10 -10 -9 -10 -11 -12 -13

GFSGL_850_dewp_060.txt.gz
Dewpoint
10 10 8 9 9 9 9 9 9 9 9 9 6 5 5 4 2 0 2 0 0 -0 -3 -4 -4 -4 -4 -5 -5 -6 -6 -7 -8 -9 -9 -10 -9 -9 -9 -10 -10 -11 -14
10 10 8 9 9 9 9 9 8 9 9 6 6 6 5 3 1 2 1 1 -0 -3 -3 -3 -4 -4 -4 -4 -5 -6 -7 -7 -8 -9 -8 -9 -10 -10 -9 -9 -10 -13 -14
9 9 10 10 10 10 9 9 9 9 7 7 5 5 3 2 2 1 1 -0 -1 -3 -4 -4 -4 -4 -4 -5 -6 -6 -7 -8 -8 -8 -9 -10 -10 -9 -10 -10 -11 -13 -14
9 10 11 10 10 9 9 9 8 7 6 5 4 2 2 1 0 0 0 -1 -2 -3 -3 -3 -4 -4 -5 -5 -6 -7 -7 -8 -8 -9 -9 -10 -10 -10 -10 -12 -12 -15 -15
10 9 9 8 8 8 8 7 6 6 5 3 2 2 1 0 0 -0 -1 -1 -2 -3 -3 -3 -4 -4 -5 -6 -7 -7 -8 -8 -9 -9 -9 -9 -9 -10 -11 -12 -12 -15 -14
9 8 8 7 7 7 6 5 4 4 3 2 1 1 1 0 -0 -1 -1 -3 -2 -3 -4 -4 -5 -5 -5 -6 -7 -8 -8 -7 -8 -7 -7 -7 -8 -10 -11 -11 -13 -14 -14
7 7 6 6 5 4 4 3 2 2 1 1 1 1 -0 -0 -1 -4 -6 -6 -4 -4 -4 -5 -6 -7 -6 -5 -5 -6 -7 -7 -7 -6 -7 -7 -8 -10 -10 -11 -13 -13 -13
5 5 4 3 2 2 2 2 1 0 1 0 -0 -1 -1 -2 -6 -7 -7 -8 -6 -6 -6 -6 -6 -6 -6 -5 -5 -6 -6 -6 -7 -7 -7 -8 -9 -9 -10 -11 -12 -11 -11
3 2 2 2 2 1 0 0 1 0 -0 -1 -2 -3 -4 -4 -6 -12 -12 -12 -7 -6 -6 -6 -6 -6 -7 -6 -5 -5 -6 -6 -7 -7 -8 -9 -10 -11 -11 -11 -11 -11 -11
2 1 1 0 -1 1 1 0 -2 -3 -5 -5 -6 -10 -13 -14 -14 -16 -14 -12 -10 -6 -6 -6 -6 -6 -6 -6 -6 -6 -5 -6 -6 -7 -8 -9 -10 -11 -11 -12 -10 -11 -12
-0 -1 -1 1 0 -2 -5 -7 -8 -8 -14 -16 -16 -15 -14 -9 -9 -11 -11 -9 -7 -6 -6 -6 -6 -6 -6 -6 -6 -5 -5 -6 -6 -7 -7 -8 -8 -10 -11 -10 -10 -11 -11
-2 -0 -1 -5 -7 -10 -12 -11 -11 -7 -7 -7 -9 -12 -9 -9 -9 -12 -19 -21 -20 -11 -11 -10 -8 -7 -6 -5 -6 -6 -5 -6 -7 -7 -8 -8 -8 -9 -10 -10 -10 -10 -11
-3 -6 -9 -12 -15 -16 -15 -15 -11 -13 -16 -13 -12 -10 -10 -9 -10 -10 -9 -14 -20 -19 -15 -14 -13 -11 -12 -10 -7 -7 -6 -6 -7 -7 -8 -8 -9 -8 -9 -9 -10 -10 -10
-10 -13 -15 -16 -16 -19 -23 -26 -19 -23 -25 -19 -11 -10 -10 -10 -10 -10 -13 -11 -12 -15 -12 -11 -10 -12 -12 -11 -9 -8 -7 -6 -7 -7 -7 -8 -8 -9 -9 -10 -10 -10 -10
-15 -16 -18 -23 -28 -24 -23 -33 -33 -28 -34 -33 -15 -15 -14 -11 -12 -22 -20 -15 -15 -16 -12 -10 -9 -9 -9 -9 -7 -7 -8 -7 -7 -7 -8 -8 -8 -9 -9 -10 -10 -10 -10
-19 -24 -28 -31 -33 -31 -22 -15 -24 -30 -32 -32 -29 -27 -26 -25 -26 -25 -25 -23 -18 -16 -10 -9 -9 -10 -10 -9 -8 -7 -8 -7 -8 -8 -8 -8 -9 -9 -9 -10 -10 -11 -10
-27 -30 -32 -34 -33 -31 -25 -16 -13 -12 -19 -21 -27 -27 -27 -26 -26 -26 -26 -25 -18 -14 -11 -11 -11 -9 -8 -7 -7 -7 -8 -7 -8 -8 -8 -8 -8 -9 -10 -10 -10 -10 -11
-30 -34 -33 -32 -30 -30 -28 -25 -15 -14 -12 -14 -14 -24 -25 -25 -25 -25 -25 -22 -15 -14 -13 -13 -12 -11 -9 -8 -7 -8 -8 -8 -9 -9 -8 -9 -9 -9 -10 -10 -10 -10 -10
-33 -33 -33 -32 -31 -31 -29 -25 -19 -14 -15 -15 -14 -15 -18 -24 -23 -19 -18 -15 -15 -15 -15 -14 -14 -12 -11 -10 -9 -8 -9 -9 -9 -9 -9 -9 -9 -9 -10 -10 -10 -10 -11
-32 -32 -31 -30 -29 -28 -27 -25 -20 -15 -15 -15 -15 -15 -20 -22 -16 -15 -16 -16 -16 -16 -16 -16 -16 -14 -13 -12 -11 -9 -9 -9 -9 -9 -9 -9 -9 -9 -10 -11 -11 -11 -11
-30 -30 -30 -29 -28 -27 -26 -24 -23 -17 -17 -17 -16 -16 -22 -22 -17 -17 -17 -17 -17 -18 -17 -17 -16 -15 -14 -13 -13 -12 -10 -10 -9 -9 -9 -9 -9 -9 -10 -11 -10 -11 -11
-29 -29 -28 -28 -27 -26 -25 -24 -23 -20 -18 -18 -17 -17 -22 -18 -18 -18 -18 -18 -19 -19 -19 -18 -17 -16 -15 -14 -14 -13 -12 -11 -10 -10 -10 -10 -10 -10 -10 -11 -11 -11 -11
-28 -28 -27 -27 -26 -25 -24 -23 -22 -20 -20 -21 -20 -19 -20 -19 -19 -19 -19 -19 -19 -20 -20 -20 -19 -18 -16 -15 -14 -14 -13 -12 -12 -11 -11 -10 -10 -10 -10 -11 -11 -11 -11
-27 -26 -26 -25 -25 -24 -23 -22 -21 -21 -22 -22 -22 -20 -19 -20 -20 -20 -20 -20 -21 -21 -22 -23 -23 -21 -18 -16 -15 -14 -14 -13 -12 -11 -11 -11 -10 -10 -10 -10 -11 -11 -11
-25 -25 -24 -24 -23 -22 -22 -21 -21 -21 -22 -23 -22 -22 -21 -21 -20 -21 -21 -21 -22 -21 -22 -23 -23 -23 -21 -17 -15 -15 -14 -13 -13 -11 -11 -11 -11 -10 -10 -10 -10 -11 -11
-24 -23 -23 -22 -21 -21 -21 -21 -22 -23 -24 -24 -25 -23 -22 -21 -21 -21 -21 -21 -20 -20 -21 -21 -21 -22 -22 -19 -16 -15 -14 -14 -13 -13 -11 -10 -10 -10 -10 -10 -10 -10 -11

GFSGL_850_dewp_066.txt.gz
Dewpoint
10 10 10 11 11 10 9 8 9 10 9 9 9 8 8 8 7 6 5 4 4 3 1 2 2 1 1 -2 -2 -3 -3 -4 -5 -5 -6 -7 -8 -8 -9 -9 -8 -8 -9
10 10 10 11 10 9 10 10 10 10 9 9 8 8 8 7 6 5 4 4 3 2 1 1 1 -1 -2 -2 -2 -3 -3 -4 -5 -6 -6 -6 -7 -8 -9 -9 -9 -9 -9
11 10 10 10 10 11 10 10 9 9 8 8 8 7 6 5 5 4 4 2 1 1 1 1 -1 -0 -1 -1 -2 -2 -3 -4 -4 -5 -5 -6 -7 -7 -8 -9 -9 -9 -9
10 10 10 11 10 10 9 9 9 8 8 8 7 6 5 5 4 3 2 1 1 1 -1 -1 -1 -1 -1 -2 -2 -3 -3 -3 -4 -5 -5 -5 -6 -7 -8 -8 -8 -9 -8
10 11 11 10 9 9 9 8 8 8 7 7 6 5 4 3 3 2 1 1 1 -0 -1 -1 -1 -2 -3 -3 -3 -4 -4 -4 -5 -5 -7 -7 -7 -7 -8 -8 -8 -9 -10
11 10 10 9 8 8 8 8 7 6 6 5 4 4 3 2 1 1 1 -0 -1 -1 -1 -3 -2 -2 -3 -3 -4 -3 -3 -4 -4 -5 -3 -5 -7 -7 -7 -8 -8 -7 -8
9 9 8 8 7 7 6 5 5 5 4 3 3 2 2 1 1 -1 -3 -5 -7 -6 -4 -5 -5 -5 -5 -6 -6 -6 -6 -5 -6 -6 -4 -4 -4 -6 -6 -7 -10 -8 -8
7 7 6 6 5 4 4 4 3 3 2 2 1 1 0 -2 -2 -3 -5 -7 -8 -10 -8 -6 -6 -6 -6 -6 -6 -6 -6 -6 -6 -5 -5 -5 -5 -6 -5 -5 -8 -9 -9
4 4 3 3 2 2 2 2 1 1 1 0 -1 -2 -2 -3 -3 -4 -5 -8 -11 -12 -13 -13 -12 -12 -10 -7 -6 -6 -6 -6 -7 -6 -5 -5 -6 -6 -5 -6 -7 -8 -8
3 3 2 2 1 1 1 0 0 -1 -1 -2 -3 -3 -4 -6 -6 -6 -7 -8 -11 -22 -27 -30 -33 -35 -37 -35 -30 -21 -18 -21 -15 -16 -9 -6 -6 -6 -5 -6 -6 -6 -8
3 2 2 1 1 0 -0 -1 -2 -3 -4 -5 -7 -9 -6 -5 -5 -9 -14 -18 -24 -30 -34 -38 -38 -37 -36 -34 -30 -25 -24 -22 -19 -15 -17 -19 -10 -6 -6 -6 -7 -10 -12
2 1 0 -0 -1 -2 -3 -5 -7 -6 -5 -5 -6 -9 -12 -9 -9 -12 -19 -27 -22 -27 -36 -36 -36 -35 -34 -24 -13 -11 -10 -10 -11 -11 -10 -8 -8 -7 -6 -7 -7 -8 -10
-0 -2 -3 -5 -5 -5 -5 -6 -7 -8 -10 -11 -12 -15 -10 -9 -9 -13 -21 -22 -33 -35 -34 -33 -32 -32 -21 -15 -11 -9 -9 -8 -7 -8 -8 -8 -9 -8 -6 -6 -7 -8 -8
-3 -4 -5 -7 -9 -10 -11 -14 -13 -13 -14 -16 -18 -15 -13 -13 -19 -28 -28 -34 -33 -32 -31 -31 -29 -20 -14 -14 -12 -11 -10 -10 -8 -7 -8 -8 -7 -7 -6 -6 -8 -7 -8
-5 -6 -8 -10 -13 -14 -14 -16 -20 -23 -28 -33 -29 -25 -29 -31 -32 -32 -32 -31 -30 -29 -28 -25 -15 -12 -15 -15 -15 -12 -11 -11 -9 -7 -7 -7 -8 -8 -6 -7 -8 -8 -8
-9 -10 -12 -16 -16 -14 -16 -17 -18 -20 -22 -27 -31 -30 -29 -32 -31 -30 -29 -29 -28 -25 -20 -14 -13 -14 -14 -15 -13 -13 -13 -11 -10 -8 -7 -7 -7 -7 -7 -8 -7 -7 -8
-11 -12 -16 -19 -18 -19 -18 -16 -13 -13 -14 -17 -16 -17 -25 -25 -27 -26 -27 -27 -22 -14 -13 -13 -13 -14 -14 -14 -14 -14 -14 -13 -10 -10 -8 -8 -7 -7 -7 -8 -8 -8 -8
-15 -17 -17 -17 -18 -20 -20 -20 -18 -14 -13 -12 -11 -13 -14 -14 -18 -19 -24 -19 -14 -15 -14 -14 -14 -15 -15 -15 -15 -15 -15 -14 -12 -10 -9 -8 -8 -8 -8 -8 -8 -8 -8
-23 -21 -20 -24 -29 -31 -32 -30 -25 -21 -16 -12 -13 -12 -12 -12 -13 -20 -14 -14 -14 -15 -15 -15 -16 -16 -16 -16 -16 -16 -16 -15 -14 -12 -11 -10 -8 -8 -8 -8 -8 -8 -8
-26 -31 -29 -32 -32 -31 -28 -26 -21 -17 -15 -14 -13 -13 -13 -14 -17 -21 -16 -15 -15 -15 -16 -16 -17 -17 -17 -17 -17 -17 -17 -16 -15 -14 -13 -12 -10 -9 -8 -8 -8 -8 -9
-7 -11 -30 -31 -28 -27 -27 -25 -21 -20 -17 -15 -14 -14 -14 -15 -17 -17 -15 -16 -16 -16 -17 -17 -17 -18 -18 -18 -18 -18 -18 -18 -16 -15 -15 -13 -12 -10 -9 -9 -9 -8 -9
-17 -24 -29 -29 -27 -26 -25 -24 -24 -20 -16 -14 -14 -15 -15 -16 -16 -16 -17 -17 -17 -18 -18 -18 -19 -19 -19 -19 -19 -19 -19 -19 -18 -17 -16 -15 -13 -12 -10 -9 -8 -9 -9
-27 -29 -27 -25 -24 -24 -23 -16 -15 -15 -15 -16 -16 -16 -16 -17 -17 -17 -18 -18 -18 -19 -19 -19 -20 -19 -20 -20 -20 -20 -20 -20 -19 -18 -17 -16 -14 -13 -12 -10 -10 -9 -9
-28 -27 -24 -22 -18 -18 -18 -15 -16 -16 -16 -16 -17 -17 -17 -17 -18 -18 -19 -19 -19 -19 -20 -20 -20 -20 -20 -20 -20 -20 -20 -19 -19 -18 -18 -16 -15 -14 -13 -11 -10 -10 -10
-23 -22 -20 -18 -15 -16 -16 -16 -17 -17 -17 -17 -18 -18 -19 -19 -19 -19 -20 -20 -20 -21 -20 -21 -21 -21 -20 -20 -19 -19 -19 -20 -20 -19 -17 -16 -15 -14 -13 -12 -11 -10 -10
-19 -17 -16 -16 -16 -17 -17 -17 -18 -18 -18 -19 -19 -20 -20 -20 -20 -21 -21 -21 -21 -21 -21 -21 -21 -20 -20 -19 -19 -19 -19 -18 -18 -19 -17 -16 -15 -14 -13 -12 -11 -11 -10

GFSGL_850_dewp_069.txt.gz
Dewpoint
8 8 9 8 9 10 9 10 9 10 8 8 10 9 9 8 9 8 7 7 5 5 5 4 3 2 2 2 1 -0 -2 -2 -3 -3 -3 -4 -5 -6 -8 -8 -8 -8 -8
8 9 9 9 9 9 10 10 6 8 10 9 9 9 9 8 8 8 7 5 5 4 4 3 2 2 1 -0 -2 -2 -2 -2 -3 -3 -3 -4 -6 -6 -5 -6 -7 -8 -8
9 10 9 10 10 8 7 8 10 10 10 9 8 8 8 7 7 6 5 4 4 3 2 2 1 1 -0 -1 -1 -1 -1 -2 -3 -2 -3 -4 -4 -4 -5 -5 -5 -5 -4
6 7 9 8 8 9 10 10 9 9 8 8 8 8 8 7 6 5 4 3 3 2 1 1 1 -1 -1 -1 -1 -2 -2 -2 -3 -3 -3 -4 -4 -5 -5 -6 -6 -8 -6
7 9 8 10 11 10 9 9 8 9 8 8 8 7 5 5 4 4 4 2 2 1 1 0 -1 -1 -1 -2 -2 -2 -2 -3 -2 -2 -2 -3 -3 -4 -5 -5 -5 -5 -6
10 10 10 10 10 9 9 9 8 8 7 7 6 5 5 4 3 2 2 1 1 0 -1 -3 -2 -2 -2 -3 -3 -4 -5 -5 -5 -4 -4 -3 -3 -4 -4 -4 -5 -4 -5
10 10 10 9 9 8 8 8 7 6 6 5 5 4 3 3 2 1 1 -1 -3 -6 -7 -7 -6 -7 -7 -7 -8 -7 -7 -6 -5 -5 -5 -5 -5 -5 -4 -4 -4 -4 -5
9 9 8 8 8 7 6 6 5 4 4 4 3 2 1 1 -0 -2 -4 -6 -7 -9 -11 -11 -10 -10 -9 -8 -10 -12 -13 -16 -15 -13 -11 -8 -6 -5 -5 -5 -5 -6 -5
8 8 7 6 6 5 4 4 3 3 2 1 1 -0 -1 -2 -2 -3 -4 -6 -9 -9 -10 -12 -17 -22 -28 -33 -37 -38 -39 -39 -37 -33 -31 -30 -29 -23 -16 -6 -5 -5 -5
6 6 5 4 3 2 2 2 1 1 0 -1 -2 -1 -2 -3 -3 -5 -8 -7 -8 -13 -21 -29 -35 -38 -38 -37 -37 -35 -32 -23 -16 -15 -15 -17 -18 -20 -22 -23 -9 -5 -6
4 3 2 3 2 1 1 0 -1 -1 -1 -1 -3 -4 -4 -5 -7 -8 -7 -10 -17 -28 -34 -38 -38 -38 -37 -35 -31 -20 -14 -13 -11 -10 -9 -9 -10 -11 -11 -9 -10 -6 -6
3 3 2 1 0 -0 -1 -2 -2 -1 -2 -3 -4 -6 -6 -7 -11 -14 -15 -17 -25 -28 -36 -37 -37 -36 -34 -31 -27 -23 -18 -13 -11 -11 -11 -10 -8 -9 -8 -8 -8 -6 -6
3 2 1 -0 -1 -1 -2 -3 -4 -5 -6 -7 -7 -8 -11 -11 -11 -11 -13 -19 -26 -34 -36 -35 -34 -32 -29 -28 -25 -24 -22 -16 -12 -11 -10 -10 -9 -7 -8 -9 -8 -7 -6
2 0 -1 -2 -3 -4 -5 -6 -7 -7 -7 -9 -11 -12 -12 -12 -13 -13 -20 -32 -36 -35 -34 -33 -31 -26 -24 -23 -24 -26 -26 -20 -15 -13 -10 -10 -9 -8 -7 -8 -9 -7 -7
-1 -3 -5 -5 -6 -6 -6 -8 -11 -11 -12 -14 -18 -20 -18 -19 -24 -32 -35 -35 -34 -31 -31 -28 -24 -20 -21 -22 -22 -23 -25 -24 -19 -15 -11 -10 -8 -7 -7 -7 -8 -7 -8
-4 -6 -8 -9 -12 -13 -14 -15 -18 -21 -23 -25 -28 -31 -32 -32 -29 -30 -33 -30 -29 -27 -24 -19 -15 -15 -15 -17 -19 -20 -21 -22 -21 -16 -13 -10 -10 -8 -8 -7 -7 -7 -8
-5 -8 -11 -13 -13 -15 -15 -17 -18 -17 -17 -19 -20 -21 -21 -23 -24 -23 -23 -27 -25 -23 -16 -14 -14 -15 -15 -17 -19 -20 -21 -21 -20 -18 -15 -12 -11 -9 -8 -7 -8 -8 -8
-9 -10 -12 -14 -15 -15 -16 -17 -19 -19 -18 -18 -17 -14 -16 -18 -16 -14 -14 -19 -17 -18 -17 -16 -16 -16 -17 -19 -19 -20 -22 -22 -20 -19 -16 -14 -12 -11 -9 -8 -8 -8 -8
-13 -16 -15 -16 -21 -24 -21 -20 -27 -25 -22 -18 -13 -13 -13 -13 -13 -13 -14 -19 -17 -16 -16 -16 -16 -17 -18 -18 -19 -20 -21 -21 -20 -19 -18 -15 -14 -12 -11 -9 -8 -8 -8
-8 -10 -18 -15 -9 -10 -16 -14 -22 -22 -18 -16 -14 -13 -12 -12 -13 -15 -19 -18 -16 -16 -16 -16 -17 -18 -19 -19 -20 -20 -20 -20 -22 -21 -19 -16 -15 -14 -13 -12 -9 -9 -8
-8 -8 -8 -9 -9 -9 -12 -20 -24 -21 -19 -17 -15 -14 -14 -14 -15 -17 -17 -16 -16 -17 -17 -18 -19 -19 -20 -21 -21 -20 -20 -21 -21 -21 -20 -18 -17 -15 -14 -13 -11 -9 -9
-9 -9 -10 -10 -11 -15 -23 -23 -22 -22 -19 -17 -15 -14 -15 -15 -16 -16 -17 -17 -17 -18 -18 -19 -19 -20 -21 -21 -20 -20 -20 -20 -20 -20 -21 -20 -18 -16 -15 -14 -12 -10 -10
-10 -11 -12 -14 -19 -24 -23 -21 -18 -16 -16 -16 -15 -16 -17 -17 -17 -17 -18 -18 -18 -19 -19 -19 -21 -22 -21 -21 -21 -20 -20 -20 -20 -20 -20 -20 -19 -17 -16 -15 -13 -11 -11
-13 -17 -21 -21 -19 -18 -17 -17 -16 -16 -16 -16 -17 -17 -17 -18 -18 -18 -19 -19 -19 -20 -20 -22 -22 -21 -21 -21 -20 -20 -19 -19 -19 -20 -20 -20 -20 -18 -16 -15 -14 -12 -12
-21 -19 -19 -18 -17 -16 -16 -16 -16 -17 -17 -17 -18 -18 -19 -19 -19 -20 -20 -20 -20 -22 -23 -22 -21 -21 -21 -21 -20 -19 -19 -19 -19 -20 -20 -19 -19 -17 -16 -15 -14 -13 -12
-18 -17 -16 -17 -17 -17 -17 -17 -18 -18 -19 -19 -19 -20 -20 -21 -21 -21 -21 -22 -23 -24 -23 -22 -21 -21 -20 -20 -19 -19 -19 -19 -19 -19 -18 -18 -19 -18 -16 -15 -14 -14 -12

GFSGL_850_dewp_072.txt.gz
Dewpoint
5 6 7 7 7 8 7 7 8 7 8 8 6 5 8 9 8 8 8 8 7 7 6 5 5 5 4 3 2 2 1 1 -0 -2 -2 -3 -3 -3 -3 -4 -6 -8 -7
8 8 9 9 9 9 9 9 9 8 7 5 9 8 9 9 9 8 8 8 7 6 5 5 4 3 2 2 2 1 -1 -2 -1 -1 -2 -2 -3 -3 -4 -5 -5 -5 -5
9 9 8 9 9 9 10 8 9 7 4 8 9 9 9 9 8 8 8 7 6 5 4 4 3 2 2 1 1 -1 -2 -1 -2 -2 -2 -3 -4 -5 -4 -4 -3 -3 -4
10 7 2 7 10 9 8 9 9 8 8 9 9 9 8 8 8 7 7 6 5 4 3 2 2 1 1 -0 -1 -1 -1 -2 -2 -2 -2 -2 -2 -3 -2 -2 -3 -4 -4
10 7 4 6 4 8 8 9 10 9 10 9 8 8 8 8 7 6 5 4 4 3 2 1 1 0 -1 -1 -1 -2 -3 -4 -4 -4 -5 -5 -5 -5 -5 -5 -4 -4 -4
10 9 7 7 10 10 9 9 9 8 8 8 8 7 7 6 5 5 4 3 2 2 1 1 -1 -2 -2 -2 -3 -3 -3 -4 -4 -5 -5 -5 -5 -6 -6 -6 -5 -5 -5
9 9 9 10 9 9 8 9 8 8 8 7 7 6 5 5 4 3 2 2 1 1 -0 -6 -6 -6 -7 -8 -8 -8 -8 -7 -7 -7 -9 -13 -19 -25 -24 -12 -8 -6 -5
9 10 10 9 8 8 8 8 7 7 6 6 5 4 4 3 2 2 1 0 -2 -6 -9 -10 -13 -14 -13 -14 -16 -19 -26 -33 -37 -38 -38 -36 -28 -24 -21 -22 -22 -20 -13
10 9 9 9 8 7 7 6 6 6 5 4 3 3 2 1 1 0 -1 -4 -6 -8 -10 -11 -11 -14 -23 -29 -37 -38 -39 -39 -37 -31 -26 -22 -18 -14 -12 -12 -13 -12 -10
8 8 7 7 6 6 5 5 4 4 3 2 1 1 0 0 -0 -2 -3 -5 -7 -8 -8 -14 -23 -31 -38 -38 -38 -37 -36 -32 -31 -30 -29 -28 -20 -19 -13 -9 -9 -9 -8
7 7 6 5 5 5 4 3 3 2 1 0 0 -1 -1 -2 -3 -4 -5 -6 -6 -10 -19 -28 -34 -37 -37 -36 -36 -33 -28 -31 -30 -31 -28 -21 -14 -12 -14 -12 -9 -9 -9
6 5 5 4 3 2 1 1 1 0 -1 -1 -1 -3 -4 -4 -5 -6 -7 -9 -13 -17 -28 -34 -36 -36 -35 -34 -32 -29 -30 -30 -31 -33 -30 -20 -14 -12 -12 -11 -9 -8 -8
4 3 2 2 1 1 0 -1 -1 -1 -1 -2 -3 -4 -5 -6 -7 -9 -11 -12 -14 -22 -33 -35 -34 -33 -31 -29 -27 -28 -28 -28 -29 -30 -29 -21 -16 -12 -12 -10 -9 -8 -8
3 3 2 1 0 -0 -1 -1 -2 -2 -3 -4 -5 -5 -7 -9 -11 -11 -11 -12 -22 -33 -33 -32 -31 -30 -26 -23 -24 -25 -25 -25 -26 -26 -26 -21 -17 -11 -11 -9 -8 -8 -8
3 2 1 0 -1 -2 -4 -5 -5 -5 -6 -7 -8 -9 -10 -11 -11 -11 -14 -28 -32 -32 -31 -29 -26 -22 -21 -21 -22 -23 -25 -26 -26 -26 -25 -24 -18 -12 -11 -10 -9 -8 -7
2 -1 -3 -3 -4 -5 -6 -7 -9 -10 -11 -12 -14 -15 -13 -16 -22 -24 -24 -26 -27 -28 -26 -23 -20 -18 -18 -19 -20 -22 -24 -25 -26 -26 -25 -22 -18 -14 -11 -10 -9 -7 -7
-1 -4 -7 -9 -11 -12 -13 -14 -16 -18 -18 -17 -17 -19 -21 -20 -19 -19 -18 -17 -19 -22 -21 -20 -19 -18 -18 -18 -20 -21 -22 -23 -24 -23 -24 -22 -19 -16 -13 -11 -10 -8 -8
-6 -8 -8 -9 -9 -8 -12 -13 -13 -17 -11 -8 -12 -15 -15 -15 -15 -14 -13 -14 -14 -18 -19 -18 -17 -17 -17 -18 -19 -21 -21 -23 -23 -22 -23 -24 -21 -17 -15 -13 -12 -10 -9
-5 -5 -6 -7 -10 -9 -8 -9 -10 -8 -11 -12 -11 -11 -12 -12 -12 -13 -13 -14 -17 -18 -16 -16 -17 -17 -18 -19 -21 -22 -23 -23 -22 -22 -22 -23 -23 -18 -16 -14 -13 -12 -10
-6 -6 -7 -7 -7 -8 -9 -9 -10 -10 -11 -11 -12 -12 -12 -13 -13 -13 -15 -17 -18 -17 -17 -17 -18 -18 -19 -20 -22 -23 -22 -22 -22 -21 -21 -22 -22 -21 -18 -15 -14 -13 -11
-7 -8 -8 -8 -9 -9 -10 -11 -11 -12 -12 -13 -13 -13 -14 -14 -14 -15 -16 -16 -17 -17 -17 -18 -18 -19 -19 -21 -22 -21 -21 -21 -21 -21 -20 -20 -21 -21 -19 -16 -15 -14 -13
-8 -9 -9 -10 -10 -11 -11 -12 -13 -13 -14 -14 -14 -15 -15 -15 -16 -16 -17 -17 -17 -18 -18 -19 -19 -20 -20 -22 -21 -21 -21 -21 -21 -20 -20 -20 -20 -21 -20 -18 -16 -14 -14
-10 -11 -11 -12 -13 -13 -14 -15 -15 -15 -15 -15 -16 -16 -16 -17 -17 -17 -18 -18 -19 -19 -19 -20 -20 -22 -22 -21 -21 -21 -21 -20 -20 -19 -19 -20 -20 -20 -20 -19 -16 -15 -14
-12 -14 -15 -17 -17 -17 -16 -16 -16 -16 -16 -17 -17 -17 -18 -18 -19 -19 -19 -20 -20 -20 -20 -21 -22 -23 -22 -22 -21 -21 -20 -20 -19 -19 -19 -19 -19 -20 -20 -19 -17 -16 -15
-19 -18 -17 -17 -17 -17 -17 -17 -17 -17 -18 -18 -19 -19 -19 -20 -20 -21 -21 -22 -22 -22 -23 -23 -24 -23 -22 -21 -21 -20 -19 -19 -19 -19 -19 -19 -19 -19 -19 -19 -17 -16 -15
-16 -16 -17 -17 -17 -18 -18 -18 -19 -19 -19 -20 -20 -20 -21 -21 -21 -22 -22 -23 -23 -23 -24 -25 -25 -22 -21 -20 -20 -19 -19 -18 -18 -19 -19 -18 -18 -18 -19 -19 -17 -16 -15

GFSGL_850_dewp_075.txt.gz
Dewpoint
5 6 6 6 6 5 5 4 5 7 8 9 9 8 7 7 7 8 7 9 8 9 8 8 7 6 5 5 4 3 2 2 2 1 1 -1 -2 -2 -3 -3 -3 -3 -3
7 7 6 5 5 5 6 6 6 7 8 7 7 7 6 6 7 6 8 9 9 8 8 7 6 5 5 4 3 2 2 2 -0 -2 -2 -2 -2 -3 -3 -3 -5 -5 -5
8 7 7 6 6 6 7 7 7 8 9 6 6 7 8 6 9 8 8 9 8 7 7 6 5 5 4 3 2 2 1 0 -1 -2 -2 -2 -2 -3 -3 -4 -4 -5 -5
7 8 7 7 7 7 8 8 8 7 7 5 7 9 8 7 7 8 9 8 8 7 6 5 4 3 2 2 1 1 0 -1 -1 -1 -2 -3 -4 -5 -5 -5 -6 -6 -6
7 8 8 8 8 9 9 10 10 10 8 7 9 8 7 8 9 9 8 8 7 6 4 4 3 2 2 1 1 -0 -1 -1 -2 -3 -4 -4 -5 -5 -5 -7 -8 -9 -11
8 9 9 9 10 9 9 9 11 10 10 10 9 9 9 8 8 8 7 6 5 4 4 3 2 1 1 0 -1 -2 -2 -3 -4 -4 -5 -7 -9 -12 -20 -32 -31 -28 -27
9 9 9 10 8 8 8 9 9 9 9 9 9 8 8 8 7 6 5 4 4 3 2 1 1 0 -1 -3 -3 -4 -6 -7 -9 -11 -16 -27 -36 -35 -26 -23 -18 -14 -14
10 10 10 10 9 9 10 9 9 9 8 8 8 8 7 6 5 4 4 3 2 1 1 0 -2 -5 -7 -9 -10 -12 -13 -20 -32 -37 -37 -35 -30 -30 -27 -22 -15 -12 -12
10 10 10 9 9 8 9 8 8 8 8 7 6 6 5 4 4 3 2 1 1 -0 -3 -6 -8 -9 -11 -12 -20 -30 -37 -38 -38 -37 -35 -36 -36 -35 -25 -16 -17 -9 -9
9 9 9 9 9 8 8 8 7 6 6 5 4 4 3 3 1 1 1 -1 -2 -4 -6 -8 -9 -11 -21 -31 -36 -37 -37 -37 -36 -36 -36 -36 -36 -33 -21 -13 -12 -10 -9
9 9 8 7 8 7 6 6 5 5 4 3 3 2 1 1 0 0 -1 -2 -3 -5 -7 -8 -16 -25 -34 -37 -37 -36 -32 -32 -31 -32 -32 -33 -33 -32 -25 -15 -13 -11 -10
7 7 7 6 6 5 4 4 4 3 3 2 1 1 -0 -1 -1 -2 -2 -4 -5 -7 -11 -16 -26 -34 -35 -34 -33 -28 -27 -27 -28 -29 -30 -31 -31 -31 -29 -22 -13 -12 -9
6 6 5 4 4 3 3 3 2 1 1 0 -0 -1 -1 -2 -3 -4 -5 -7 -9 -11 -14 -25 -33 -33 -32 -28 -24 -24 -25 -26 -28 -29 -30 -30 -30 -30 -30 -27 -16 -12 -9
5 4 3 2 2 1 1 1 0 -0 -1 -1 -1 -2 -4 -4 -5 -7 -9 -10 -11 -13 -25 -31 -31 -29 -26 -23 -22 -22 -25 -26 -27 -28 -29 -30 -31 -31 -30 -25 -16 -11 -10
3 3 2 1 1 0 -0 -0 -0 -1 -2 -3 -3 -4 -5 -6 -8 -9 -9 -9 -14 -26 -28 -28 -25 -22 -21 -20 -20 -22 -23 -25 -26 -28 -29 -31 -32 -32 -31 -26 -18 -12 -10
3 2 2 1 0 -0 -1 -2 -4 -5 -5 -6 -7 -9 -9 -9 -9 -12 -18 -20 -21 -21 -23 -22 -20 -19 -19 -19 -20 -21 -21 -23 -25 -26 -28 -29 -29 -30 -31 -26 -19 -13 -11
2 1 0 -1 -3 -4 -5 -5 -5 -6 -9 -15 -17 -18 -18 -17 -13 -12 -15 -15 -14 -14 -15 -17 -17 -17 -17 -18 -18 -19 -20 -22 -24 -26 -26 -25 -25 -26 -27 -26 -20 -14 -12
-1 -3 -3 -5 -6 -6 -6 -6 -7 -8 -9 -8 -8 -8 -8 -9 -10 -11 -11 -12 -12 -13 -14 -16 -16 -16 -17 -17 -18 -19 -20 -23 -24 -24 -24 -23 -23 -23 -24 -24 -20 -16 -13
-5 -5 -5 -5 -5 -6 -6 -7 -7 -8 -8 -8 -9 -10 -11 -11 -12 -12 -13 -13 -14 -14 -15 -16 -16 -17 -18 -18 -19 -20 -22 -24 -23 -23 -22 -22 -22 -22 -23 -23 -20 -17 -14
-5 -5 -6 -7 -7 -8 -8 -9 -9 -10 -10 -11 -12 -12 -12 -13 -13 -13 -14 -15 -15 -16 -16 -17 -17 -18 -18 -19 -20 -21 -23 -23 -22 -22 -22 -22 -21 -21 -21 -22 -20 -17 -15
-7 -7 -8 -8 -9 -9 -10 -10 -11 -11 -12 -13 -13 -14 -14 -14 -15 -15 -16 -16 -17 -17 -17 -18 -18 -18 -19 -20 -21 -23 -23 -22 -22 -22 -21 -21 -20 -20 -20 -21 -21 -20 -17
-8 -9 -9 -10 -11 -11 -12 -12 -13 -14 -14 -14 -15 -15 -15 -16 -16 -17 -17 -17 -18 -18 -19 -19 -19 -20 -20 -21 -22 -23 -22 -22 -22 -21 -21 -20 -20 -20 -20 -20 -21 -20 -17
-10 -11 -11 -12 -12 -13 -15 -15 -16 -16 -16 -16 -16 -17 -17 -17 -18 -18 -19 -19 -20 -20 -20 -20 -21 -21 -21 -22 -23 -22 -22 -21 -21 -20 -20 -19 -19 -19 -19 -19 -20 -20 -17
-13 -15 -17 -18 -18 -18 -17 -17 -17 -17 -17 -18 -18 -19 -19 -19 -20 -20 -21 -21 -22 -22 -23 -22 -22 -23 -23 -24 -24 -22 -21 -21 -20 -19 -19 -19 -19 -19 -19 -19 -19 -20 -18
-16 -16 -16 -16 -17 -17 -18 -18 -18 -19 -19 -19 -20 -20 -20 -21 -21 -21 -22 -22 -23 -23 -23 -24 -24 -24 -25 -25 -22 -21 -20 -20 -19 -19 -19 -19 -19 -19 -18 -18 -19 -19 -19
-18 -19 -20 -21 -21 -21 -21 -21 -21 -21 -21 -22 -22 -22 -22 -22 -22 -23 -23 -24 -24 -24 -25 -25 -25 -25 -25 -22 -21 -20 -20 -20 -19 -19 -19 -19 -18 -18 -18 -18 -18 -19 -18

GFSGL_850_dewp_078.txt.gz
Dewpoint
1 2 3 3 3 2 1 1 2 3 3 1 -0 3 6 8 8 8 8 7 7 8 8 8 8 8 7 7 6 5 5 4 3 2 2 1 1 -1 -2 -2 -3 -3 -3
2 2 1 0 1 1 0 0 2 1 -0 2 5 7 7 7 7 8 8 7 6 7 7 8 8 7 7 6 5 5 4 3 2 2 1 -0 -1 -2 -2 -5 -4 -4 -4
4 3 3 3 5 4 4 5 5 4 5 5 6 7 8 8 6 6 7 7 6 7 7 8 7 7 6 6 5 4 3 2 1 1 0 -1 -2 -3 -3 -5 -8 -10 -10
6 5 5 6 7 6 6 6 6 7 7 8 8 8 8 9 7 7 8 8 7 8 8 7 7 6 6 5 4 3 2 1 1 0 -1 -2 -2 -4 -5 -7 -11 -18 -24
7 7 7 7 7 7 7 7 8 8 8 9 9 8 7 8 7 8 8 8 8 8 6 5 5 4 4 3 3 2 1 0 -0 -2 -2 -3 -5 -7 -11 -18 -30 -37 -38
7 7 7 8 8 8 8 8 9 9 9 10 10 10 9 8 8 8 8 8 7 6 6 5 4 3 3 1 2 1 0 -1 -3 -3 -4 -8 -12 -20 -36 -37 -36 -36 -34
6 7 8 8 8 8 9 9 10 10 9 9 9 9 9 9 8 8 8 7 6 5 4 3 3 2 2 1 0 -1 -2 -4 -7 -11 -14 -22 -36 -37 -36 -36 -38 -37 -32
7 8 8 9 9 9 10 10 8 9 8 8 9 8 8 8 7 7 7 5 5 4 3 2 1 1 0 -1 -4 -7 -10 -13 -17 -28 -36 -37 -36 -36 -37 -36 -34 -28 -27
8 9 9 10 10 10 10 9 9 9 9 8 8 8 7 6 5 5 4 4 3 2 1 1 -0 -2 -5 -7 -10 -12 -21 -31 -36 -37 -36 -35 -36 -36 -35 -32 -29 -18 -23
9 10 10 9 9 9 8 8 9 8 8 7 6 5 4 4 3 2 2 2 1 1 0 -2 -4 -6 -9 -12 -20 -30 -35 -37 -36 -35 -35 -34 -34 -34 -34 -32 -27 -21 -16
9 9 9 9 9 8 8 7 7 7 6 5 5 4 3 2 2 1 0 0 -1 -2 -3 -5 -7 -9 -16 -24 -32 -35 -36 -35 -35 -34 -34 -34 -34 -34 -34 -33 -30 -26 -19
9 8 8 7 7 7 6 6 5 5 5 4 3 3 2 1 0 -0 -1 -2 -2 -3 -5 -7 -11 -16 -24 -33 -35 -34 -33 -32 -29 -30 -31 -31 -32 -32 -32 -33 -32 -29 -23
7 6 6 6 5 5 4 4 4 3 3 3 2 1 1 -0 -1 -1 -2 -3 -4 -6 -8 -12 -16 -24 -33 -33 -30 -30 -27 -24 -26 -28 -29 -30 -30 -31 -32 -32 -32 -31 -28
6 6 5 4 4 3 3 2 2 2 1 1 0 -0 -1 -2 -2 -3 -4 -5 -7 -8 -12 -16 -26 -30 -29 -26 -24 -22 -22 -24 -26 -26 -27 -28 -29 -31 -31 -31 -32 -32 -31
4 4 3 2 2 2 1 1 1 0 -0 -1 -1 -1 -2 -3 -4 -5 -6 -7 -9 -12 -21 -24 -25 -24 -22 -20 -20 -21 -22 -24 -24 -24 -25 -27 -29 -30 -30 -29 -30 -31 -27
3 3 2 2 1 1 1 0 -1 -2 -2 -3 -4 -4 -5 -5 -6 -7 -8 -13 -18 -17 -16 -17 -19 -19 -19 -19 -19 -17 -19 -21 -20 -21 -25 -27 -28 -28 -27 -27 -26 -26 -27
3 2 1 1 -0 -1 -2 -3 -3 -4 -4 -5 -6 -8 -10 -12 -15 -16 -12 -10 -11 -11 -12 -12 -12 -13 -14 -14 -15 -15 -15 -16 -20 -22 -25 -25 -25 -25 -24 -25 -24 -24 -26
1 -1 -2 -3 -3 -4 -4 -5 -5 -6 -7 -7 -8 -8 -9 -10 -10 -11 -11 -12 -12 -13 -13 -14 -14 -15 -15 -16 -16 -17 -18 -20 -21 -23 -24 -23 -23 -23 -23 -22 -22 -23 -24
-3 -4 -4 -4 -5 -6 -6 -7 -7 -8 -8 -9 -10 -11 -11 -11 -12 -12 -13 -13 -14 -15 -15 -16 -16 -16 -17 -17 -18 -19 -19 -20 -22 -23 -22 -22 -21 -21 -21 -21 -21 -22 -22
-4 -5 -5 -6 -7 -7 -8 -8 -9 -10 -10 -11 -11 -12 -12 -13 -13 -14 -14 -15 -16 -16 -17 -17 -17 -18 -18 -18 -19 -19 -20 -21 -22 -22 -21 -21 -21 -21 -21 -20 -20 -20 -22
-6 -7 -7 -8 -8 -9 -10 -10 -11 -11 -12 -13 -13 -14 -14 -15 -15 -16 -16 -17 -17 -18 -18 -18 -19 -19 -19 -20 -20 -20 -20 -22 -22 -21 -21 -21 -21 -20 -20 -20 -20 -20 -20
-8 -9 -9 -9 -10 -11 -11 -12 -13 -14 -14 -15 -16 -16 -17 -17 -17 -18 -18 -18 -19 -19 -20 -20 -20 -21 -21 -21 -21 -21 -22 -23 -22 -21 -21 -21 -20 -20 -20 -20 -20 -20 -20
-9 -10 -10 -12 -14 -16 -17 -17 -17 -17 -17 -17 -18 -18 -18 -19 -19 -20 -20 -21 -21 -21 -22 -22 -23 -23 -23 -23 -23 -23 -24 -24 -22 -21 -20 -20 -20 -19 -19 -19 -19 -19 -19
-13 -15 -16 -16 -16 -17 -17 -18 -18 -19 -19 -20 -20 -21 -21 -21 -21 -22 -22 -22 -23 -23 -23 -24 -24 -24 -25 -25 -25 -25 -24 -22 -21 -20 -20 -20 -20 -20 -19 -19 -19 -19 -19
-17 -19 -20 -21 -22 -23 -23 -24 -23 -23 -23 -23 -23 -23 -24 -24 -23 -24 -24 -24 -25 -25 -25 -25 -25 -25 -25 -25 -25 -23 -21 -21 -21 -21 -20 -20 -20 -19 -19 -19 -18 -19 -18
-27 -27 -27 -27 -26 -26 -26 -25 -25 -25 -25 -25 -25 -26 -26 -26 -26 -26 -26 -26 -26 -26 -25 -25 -25 -25 -25 -25 -22 -21 -21 -20 -20 -20 -20 -20 -20 -19 -19 -18 -18 -18 -18

GFSGL_850_dewp_081.txt.gz
Dewpoint
-0 2 5 6 6 5 3 3 2 2 2 2 1 0 0 1 5 4 4 7 6 8 7 6 6 8 8 8 8 6 6 6 5 4 4 3 2 2 1 -1 -2 -2 -2
-3 -1 1 1 2 3 3 1 2 1 1 1 1 0 2 4 4 6 7 7 8 9 8 8 6 7 7 7 7 6 6 5 5 4 3 3 2 1 -0 -1 -2 -5 -5
2 -0 -1 -1 -1 -2 1 1 0 0 1 1 1 1 3 3 5 6 7 8 7 8 8 8 8 8 8 7 6 6 5 5 4 3 2 2 1 0 -1 -3 -5 -7 -10
5 3 2 2 -0 -0 3 3 3 2 2 2 3 3 5 6 7 7 9 9 8 7 8 8 8 8 8 6 5 5 4 4 3 2 2 1 -0 -1 -3 -5 -9 -16 -27
7 6 5 4 5 2 2 3 4 5 6 7 7 8 8 8 8 9 9 9 8 8 8 8 7 7 7 6 5 4 4 2 2 1 0 -0 -3 -4 -5 -12 -23 -36 -36
6 6 6 6 5 5 5 6 7 7 7 8 8 9 9 9 9 9 9 8 8 7 8 7 6 6 5 4 3 2 2 1 -0 -1 -2 -3 -6 -11 -19 -36 -36 -34 -20
5 6 7 7 7 7 6 6 7 7 8 9 9 9 9 9 9 9 8 8 7 7 6 5 5 4 3 2 1 1 0 -0 -2 -3 -6 -11 -18 -33 -35 -35 -35 -31 -25
5 6 7 7 8 8 8 8 9 9 9 9 8 9 9 8 8 8 8 7 7 5 4 3 3 2 1 1 -0 -1 -2 -5 -9 -13 -21 -33 -35 -35 -35 -35 -35 -33 -33
5 6 7 8 8 8 9 9 9 9 8 8 8 8 8 7 7 6 5 6 4 3 2 1 0 0 -1 -1 -3 -5 -9 -15 -23 -33 -35 -34 -34 -34 -35 -34 -34 -30 -17
6 8 9 10 9 9 9 9 9 8 8 8 7 6 6 5 4 3 3 3 3 2 1 -0 -1 -2 -3 -5 -9 -16 -25 -30 -33 -32 -32 -32 -32 -33 -33 -34 -34 -31 -30
9 9 9 9 9 9 9 8 8 8 7 6 5 5 4 3 2 1 1 1 1 0 -1 -2 -3 -4 -5 -11 -18 -26 -31 -34 -35 -33 -32 -32 -32 -32 -33 -34 -33 -33 -33
9 9 9 9 8 8 7 7 6 6 5 5 4 3 2 1 1 0 -0 -1 -1 -2 -3 -4 -5 -6 -13 -20 -28 -33 -34 -33 -31 -28 -28 -25 -23 -24 -26 -32 -32 -33 -33
9 8 8 7 7 6 6 5 5 4 4 3 3 2 1 -0 -0 -1 -1 -2 -2 -4 -4 -5 -8 -14 -20 -28 -27 -25 -25 -22 -20 -24 -22 -15 -18 -27 -29 -30 -31 -32 -33
7 6 5 5 5 4 4 3 3 3 2 2 1 1 -0 -1 -1 -2 -3 -4 -5 -5 -6 -7 -12 -20 -22 -21 -21 -21 -21 -22 -22 -23 -20 -21 -25 -23 -19 -22 -29 -31 -31
5 5 4 4 3 3 2 2 2 1 1 1 -0 -1 -1 -2 -3 -4 -5 -5 -6 -6 -9 -16 -18 -18 -18 -16 -17 -19 -20 -19 -17 -15 -16 -15 -14 -17 -23 -27 -27 -26 -26
4 3 3 2 2 1 1 0 -1 -1 -1 -2 -2 -3 -4 -5 -5 -6 -7 -10 -13 -15 -12 -11 -11 -11 -12 -12 -13 -13 -14 -14 -15 -15 -15 -16 -17 -21 -23 -22 -23 -18 -20
3 3 2 1 0 -1 -2 -2 -2 -4 -4 -4 -5 -5 -6 -7 -9 -11 -11 -10 -11 -12 -12 -13 -13 -14 -14 -14 -15 -16 -16 -16 -16 -17 -18 -18 -20 -20 -20 -19 -18 -18 -18
1 -0 -1 -2 -3 -3 -4 -4 -4 -5 -6 -7 -8 -8 -9 -9 -10 -11 -11 -12 -12 -13 -14 -14 -15 -15 -16 -16 -17 -17 -18 -18 -18 -19 -19 -20 -20 -20 -20 -19 -19 -19 -19
-2 -3 -3 -4 -4 -4 -5 -6 -7 -8 -8 -9 -10 -11 -11 -12 -12 -12 -13 -14 -14 -15 -15 -16 -17 -17 -17 -18 -19 -19 -19 -19 -19 -19 -20 -20 -21 -21 -21 -20 -20 -20 -20
-4 -5 -5 -5 -6 -7 -7 -8 -9 -9 -10 -11 -11 -12 -12 -13 -13 -14 -15 -16 -17 -17 -18 -18 -18 -19 -19 -20 -20 -21 -21 -21 -21 -21 -22 -22 -22 -22 -21 -21 -21 -21 -20
-6 -7 -7 -7 -8 -8 -9 -10 -11 -11 -12 -12 -13 -14 -15 -15 -16 -17 -18 -18 -18 -19 -19 -20 -20 -21 -21 -21 -22 -22 -23 -23 -22 -22 -22 -22 -22 -22 -22 -22 -21 -21 -21
-7 -8 -8 -9 -9 -10 -11 -12 -13 -14 -15 -16 -17 -17 -18 -18 -19 -20 -20 -21 -21 -22 -22 -22 -23 -23 -23 -24 -24 -24 -23 -23 -24 -24 -23 -21 -21 -22 -22 -22 -22 -22 -21
-9 -9 -10 -12 -15 -16 -17 -17 -17 -17 -18 -19 -21 -22 -23 -24 -24 -23 -23 -24 -24 -24 -24 -24 -25 -25 -25 -25 -25 -25 -25 -25 -25 -24 -22 -21 -21 -21 -22 -22 -22 -22 -22
-14 -16 -16 -17 -18 -20 -23 -25 -26 -26 -26 -26 -26 -25 -25 -25 -25 -25 -25 -25 -26 -26 -26 -26 -26 -25 -25 -25 -25 -25 -25 -24 -22 -21 -21 -21 -21 -21 -21 -21 -21 -20 -20
-24 -27 -28 -29 -29 -30 -29 -28 -27 -27 -26 -26 -26 -26 -26 -27 -27 -26 -26 -26 -26 -26 -26 -25 -25 -25 -25 -25 -25 -24 -22 -21 -21 -21 -21 -21 -20 -20 -20 -20 -20 -19 -19
-33 -32 -31 -30 -29 -28 -28 -27 -27 -27 -27 -27 -27 -27 -26 -26 -26 -26 -26 -26 -26 -25 -25 -25 -25 -26 -25 -24 -22 -21 -21 -21 -21 -21 -21 -20 -20 -20 -20 -20 -20 -19 -19

GFSGL_850_dewp_084.txt.gz
Dewpoint
9 9 9 9 8 8 8 8 8 8 8 8 6 6 4 3 3 4 5 3 6 7 6 6 7 7 7 7 7 7 6 7 5 5 5 5 4 3 3 2 2 1 0
9 9 9 9 8 8 8 7 6 6 6 5 4 4 5 5 4 6 7 7 5 5 6 7 7 8 8 8 8 7 5 7 7 7 6 5 4 3 3 2 1 -0 -1
7 7 7 7 6 5 5 5 6 5 4 7 7 7 3 3 3 3 3 2 4 5 6 8 8 8 8 8 8 8 7 7 6 6 5 4 3 2 2 1 0 -0 -2
7 6 3 -0 2 4 7 8 8 8 8 8 8 7 5 5 3 2 3 5 7 7 7 8 8 8 8 8 8 7 7 6 5 5 4 3 2 2 1 0 -1 -3 -6
8 7 3 1 -0 -0 1 3 5 6 7 8 8 8 7 7 7 7 7 7 8 8 8 9 8 8 7 7 7 6 5 5 5 4 2 1 0 0 -1 -3 -6 -9 -12
7 6 7 5 3 3 2 4 7 7 7 8 6 5 6 8 8 9 9 9 9 9 9 8 8 7 6 6 5 4 4 4 2 1 1 -0 -1 -3 -4 -8 -10 -12 -13
6 7 7 7 6 5 5 7 8 8 8 8 7 7 8 9 9 9 9 9 8 8 8 7 7 6 5 4 3 2 1 1 0 -0 -1 -2 -4 -8 -10 -12 -12 -12 -11
5 6 6 6 7 7 7 7 8 7 6 6 8 8 9 9 9 9 8 8 7 7 6 5 4 3 2 2 1 1 0 -0 -1 -2 -4 -8 -15 -24 -31 -26 -19 -17 -15
4 6 6 6 7 8 7 7 7 7 8 8 9 9 9 8 8 8 8 7 5 5 3 2 2 1 1 0 -0 -1 -1 -3 -9 -16 -17 -18 -32 -35 -35 -35 -33 -12 -10
6 7 7 6 6 7 8 8 8 9 9 9 8 8 7 7 6 6 5 4 4 3 2 1 0 -0 -1 -1 -2 -6 -10 -10 -14 -26 -33 -35 -36 -35 -35 -33 -26 -19 -13
7 5 6 7 8 9 9 9 9 9 8 8 7 6 5 4 3 2 2 2 2 1 0 -1 -1 -2 -3 -5 -9 -12 -16 -22 -32 -34 -33 -32 -30 -29 -28 -24 -23 -23 -14
8 8 9 9 9 9 9 8 8 7 7 6 5 4 2 1 1 0 0 -0 -0 -1 -1 -2 -4 -4 -6 -11 -15 -22 -28 -23 -21 -22 -20 -18 -15 -16 -15 -10 -11 -17 -18
9 9 8 8 8 8 7 7 6 6 5 4 3 2 1 0 -0 -0 -1 -1 -1 -2 -3 -4 -4 -5 -7 -9 -10 -17 -20 -19 -19 -19 -16 -14 -14 -14 -15 -18 -16 -16 -15
8 7 7 7 6 6 5 4 4 3 3 2 2 1 -0 -1 -2 -2 -3 -4 -4 -4 -5 -6 -7 -10 -18 -19 -18 -15 -14 -14 -16 -16 -13 -13 -13 -13 -13 -13 -14 -14 -14
6 5 4 4 4 3 3 2 2 2 1 1 0 -0 -1 -2 -4 -4 -5 -5 -6 -6 -9 -13 -12 -11 -11 -11 -12 -12 -13 -13 -13 -13 -14 -14 -14 -14 -14 -15 -15 -14 -14
5 4 4 3 2 1 1 -0 -1 -2 -2 -2 -3 -2 -4 -5 -5 -6 -6 -8 -10 -12 -10 -10 -11 -12 -12 -12 -12 -13 -13 -14 -14 -15 -16 -16 -15 -15 -15 -16 -16 -15 -15
4 3 2 1 1 0 -1 -1 -2 -4 -4 -5 -5 -5 -6 -6 -8 -9 -9 -10 -11 -11 -11 -12 -12 -13 -13 -13 -14 -14 -15 -15 -16 -16 -16 -16 -17 -17 -17 -17 -16 -16 -16
2 0 -0 -1 -2 -3 -4 -4 -5 -5 -7 -8 -8 -8 -9 -9 -10 -11 -12 -12 -12 -13 -13 -13 -14 -14 -15 -15 -15 -16 -16 -17 -17 -18 -18 -18 -18 -18 -18 -18 -17 -17 -17
-1 -2 -3 -4 -4 -5 -5 -6 -7 -8 -8 -9 -10 -10 -11 -12 -12 -13 -13 -13 -14 -14 -15 -15 -16 -16 -17 -17 -18 -18 -18 -18 -19 -19 -19 -19 -19 -19 -19 -19 -18 -19 -19
-4 -5 -5 -5 -6 -6 -7 -8 -9 -10 -11 -12 -13 -13 -13 -13 -14 -14 -15 -16 -16 -17 -17 -17 -18 -18 -19 -19 -19 -19 -20 -20 -20 -20 -20 -20 -20 -20 -20 -20 -19 -19 -19
-5 -5 -5 -6 -7 -7 -8 -9 -10 -11 -12 -12 -13 -14 -15 -15 -16 -17 -17 -18 -18 -19 -19 -19 -19 -20 -20 -20 -20 -21 -21 -21 -21 -21 -21 -21 -21 -21 -21 -21 -20 -20 -19
-7 -7 -7 -8 -9 -9 -10 -12 -13 -14 -15 -15 -16 -18 -19 -20 -18 -18 -19 -20 -21 -20 -20 -21 -21 -21 -21 -22 -22 -22 -22 -22 -22 -22 -22 -22 -22 -22 -21 -21 -21 -20 -20
-8 -9 -9 -12 -14 -15 -15 -15 -16 -16 -17 -17 -18 -19 -19 -19 -20 -20 -21 -24 -24 -26 -25 -27 -26 -26 -25 -25 -24 -24 -23 -23 -23 -23 -23 -23 -23 -22 -22 -22 -21 -21 -20
-15 -16 -18 -20 -23 -25 -26 -28 -29 -29 -24 -21 -20 -21 -23 -22 -22 -24 -27 -27 -27 -27 -27 -26 -26 -26 -26 -26 -26 -25 -25 -23 -22 -21 -21 -22 -23 -23 -22 -22 -22 -21 -21
-30 -32 -33 -32 -32 -31 -30 -29 -28 -28 -27 -27 -26 -25 -26 -27 -27 -27 -27 -27 -27 -26 -26 -26 -26 -26 -26 -26 -25 -24 -22 -21 -21 -21 -21 -21 -21 -21 -22 -23 -22 -22 -21
-34 -33 -32 -31 -30 -30 -29 -29 -28 -28 -28 -28 -28 -28 -27 -27 -27 -27 -26 -26 -26 -26 -26 -26 -26 -26 -25 -24 -22 -21 -21 -21 -20 -20 -20 -20 -20 -20 -21 -22 -22 -22 -21

GFSGL_850_dewp_087.txt.gz
Dewpoint
9 9 9 8 9 9 9 8 7 5 5 6 6 6 7 8 7 8 7 7 8 7 7 7 7 8 8 7 7 8 8 8 7 7 6 6 6 5 5 4 3 3 2
9 9 9 9 9 9 9 8 7 7 6 7 7 7 8 8 8 7 7 8 7 7 7 8 8 8 8 7 8 8 8 8 8 7 7 7 6 5 4 3 3 2 2
9 9 9 9 9 9 9 8 8 8 7 7 7 7 8 8 8 7 7 7 7 7 7 7 7 7 7 8 8 8 8 8 7 7 6 6 6 5 4 4 3 2 2
8 9 9 9 9 9 9 9 9 9 8 8 8 8 8 8 7 7 7 7 7 7 8 7 6 8 8 9 8 8 8 8 7 6 5 5 4 4 4 3 2 2 1
8 8 9 9 9 9 10 9 9 9 9 9 8 8 8 8 8 8 7 7 7 8 8 8 8 9 9 8 8 8 8 7 6 5 4 4 4 3 2 1 0 -0 -2
9 8 9 9 9 9 9 9 9 9 9 8 8 8 8 8 8 7 8 8 9 9 9 8 8 8 8 8 8 7 7 5 4 4 3 3 2 1 0 -0 -1 -3 -6
9 9 9 9 9 9 9 9 9 9 8 8 8 8 8 9 9 9 9 9 9 9 8 8 8 7 7 6 6 4 3 2 2 2 1 0 -0 -1 -2 -3 -4 -7 -10
9 9 9 9 8 8 8 8 8 8 8 8 8 8 8 9 9 9 9 9 9 9 8 7 6 5 4 3 2 2 1 1 0 -0 -1 -1 -2 -4 -6 -9 -11 -13 -13
9 9 8 8 8 8 8 8 8 8 9 9 8 9 8 8 9 9 9 8 8 7 6 4 3 2 2 1 0 0 -0 -1 -2 -3 -4 -7 -12 -21 -24 -16 -19 -30 -23
8 8 8 8 8 8 8 8 8 9 9 9 8 8 8 8 8 8 8 7 6 5 3 2 1 0 -0 -0 -1 -1 -3 -5 -7 -14 -19 -14 -9 -12 -17 -27 -31 -24 -12
7 8 8 8 8 9 9 9 8 8 8 8 7 7 7 6 6 5 4 4 3 2 1 0 -0 -1 -2 -2 -4 -7 -11 -12 -10 -13 -22 -26 -17 -14 -12 -12 -13 -12 -13
7 8 9 9 9 9 9 8 8 8 8 7 7 6 5 3 2 2 1 1 1 1 -0 -1 -2 -3 -4 -5 -7 -6 -7 -12 -11 -12 -12 -11 -10 -11 -11 -11 -11 -12 -12
8 9 9 8 8 8 8 8 7 6 7 5 4 3 2 1 0 -0 -0 -0 -1 -2 -2 -3 -4 -4 -5 -5 -7 -13 -18 -17 -14 -11 -10 -10 -11 -11 -12 -12 -12 -12 -12
7 7 7 6 6 5 5 6 5 4 4 3 2 1 -1 -2 -2 -2 -2 -3 -3 -4 -4 -5 -6 -8 -11 -13 -11 -10 -11 -11 -12 -12 -12 -12 -12 -12 -12 -12 -13 -13 -13
6 6 5 4 4 4 3 2 2 2 2 1 -1 -1 -2 -3 -4 -5 -5 -5 -5 -6 -8 -9 -9 -9 -9 -10 -11 -11 -11 -12 -12 -13 -14 -14 -14 -14 -14 -14 -14 -14 -15
5 3 3 3 2 2 1 0 -1 -2 -2 -2 -3 -2 -4 -4 -6 -6 -5 -6 -8 -9 -9 -9 -10 -11 -11 -11 -12 -12 -13 -13 -14 -14 -15 -15 -15 -15 -15 -15 -16 -16 -16
4 2 1 -0 0 0 -0 -1 -2 -4 -4 -5 -5 -5 -6 -6 -7 -8 -9 -11 -11 -10 -11 -11 -12 -12 -12 -13 -13 -14 -14 -15 -15 -16 -16 -16 -17 -17 -17 -17 -17 -17 -17
1 0 -0 -2 -3 -3 -3 -4 -5 -6 -7 -8 -8 -8 -8 -9 -10 -11 -11 -11 -11 -12 -12 -13 -13 -14 -14 -14 -15 -15 -16 -16 -16 -17 -17 -17 -18 -18 -18 -18 -18 -18 -18
-1 -2 -3 -4 -5 -6 -6 -6 -7 -7 -8 -10 -10 -10 -11 -11 -12 -13 -13 -13 -13 -14 -14 -14 -15 -15 -16 -16 -17 -17 -17 -18 -18 -18 -18 -18 -19 -19 -19 -19 -18 -19 -19
-4 -5 -5 -5 -6 -7 -7 -8 -9 -10 -11 -11 -12 -13 -13 -13 -13 -14 -16 -16 -15 -16 -16 -16 -17 -17 -18 -18 -18 -18 -18 -18 -19 -19 -19 -19 -20 -20 -19 -19 -19 -19 -19
-5 -6 -7 -7 -8 -9 -9 -10 -10 -11 -11 -12 -13 -13 -14 -14 -15 -16 -16 -17 -17 -18 -18 -18 -18 -18 -19 -19 -19 -19 -20 -20 -20 -20 -20 -20 -20 -20 -20 -20 -20 -19 -19
-7 -7 -8 -8 -9 -10 -11 -12 -13 -13 -14 -15 -16 -19 -21 -17 -17 -17 -18 -18 -19 -19 -19 -19 -20 -20 -20 -21 -21 -21 -21 -21 -21 -21 -21 -21 -21 -21 -21 -20 -20 -20 -20
-8 -9 -10 -12 -12 -13 -13 -14 -14 -15 -15 -16 -16 -17 -17 -18 -18 -19 -19 -23 -26 -26 -24 -25 -23 -22 -21 -22 -24 -22 -22 -22 -22 -22 -22 -22 -22 -22 -21 -21 -21 -20 -20
-13 -15 -17 -17 -16 -17 -19 -23 -24 -18 -17 -17 -18 -18 -18 -18 -19 -20 -22 -27 -27 -26 -26 -26 -26 -26 -26 -26 -26 -25 -24 -23 -22 -21 -21 -21 -22 -23 -22 -22 -22 -21 -21
-29 -26 -22 -19 -18 -17 -17 -17 -18 -18 -18 -18 -19 -19 -20 -19 -20 -20 -22 -26 -26 -26 -26 -26 -26 -26 -26 -26 -25 -23 -22 -22 -21 -21 -20 -20 -20 -20 -21 -22 -22 -21 -21
-27 -25 -21 -19 -18 -18 -18 -18 -19 -20 -20 -20 -19 -20 -20 -20 -21 -23 -23 -25 -26 -26 -26 -26 -27 -27 -26 -24 -23 -22 -22 -21 -21 -20 -20 -20 -20 -20 -20 -21 -22 -21 -21

GFSGL_850_dewp_093.txt.gz
Dewpoint
9 8 8 8 8 8 7 6 4 1 0 2 3 2 2 2 4 5 6 6 5 5 4 3 3 2 3 3 3 4 4 5 6 5 6 5 6 7 7 7 7 7 6
8 9 8 8 8 8 8 7 7 4 2 0 1 1 1 3 3 5 6 5 5 5 3 4 3 4 4 4 5 4 5 4 5 6 5 6 7 7 7 8 8 7 7
9 9 9 8 8 8 8 8 8 6 4 3 2 2 2 3 3 5 5 5 6 6 6 5 5 5 5 5 5 5 6 6 6 6 7 7 8 8 8 7 7 7 6
7 9 9 9 9 8 8 8 8 8 7 5 4 3 2 3 5 5 6 7 6 6 5 6 6 6 5 6 7 8 7 7 7 8 8 8 7 7 6 6 5 5 4
7 7 8 9 9 9 9 8 9 8 8 7 7 6 3 3 3 6 6 6 6 6 6 6 7 7 7 8 8 7 7 8 9 8 8 7 5 5 4 4 3 3 2
8 8 8 8 9 10 9 9 9 9 9 9 8 7 6 4 4 4 4 4 5 7 8 7 8 7 8 8 8 8 9 9 8 7 5 4 3 2 1 1 1 0 0
9 8 8 9 9 8 8 9 9 9 9 9 8 8 8 8 7 7 7 7 7 8 8 8 8 8 8 8 8 8 7 7 6 5 4 2 1 -0 -0 -1 -1 -1 -1
9 9 8 9 10 9 9 8 8 8 8 9 8 8 8 8 9 9 9 9 9 9 8 9 8 8 8 8 5 5 5 4 3 1 1 -0 -1 -1 -1 -2 -3 -5 -8
9 9 9 8 9 10 10 10 10 9 9 9 9 8 9 9 9 9 9 9 9 9 9 8 8 6 4 3 3 2 1 0 -0 -1 -1 -2 -3 -5 -7 -11 -12 -11 -9
10 9 9 9 9 9 10 10 10 10 10 10 10 9 8 8 9 9 9 9 9 9 8 8 4 3 1 -0 -0 -0 -1 -2 -2 -3 -6 -9 -11 -8 -8 -10 -12 -12 -12
10 10 10 9 9 9 9 10 10 10 10 10 10 10 9 9 9 9 9 8 8 8 4 1 -0 -1 -1 -1 -2 -2 -2 -3 -5 -6 -7 -7 -9 -11 -11 -11 -11 -11 -11
9 10 10 10 10 9 9 9 10 10 10 10 10 9 8 8 8 7 8 8 6 4 1 -1 -3 -2 -2 -3 -2 -3 -4 -5 -6 -7 -9 -11 -11 -11 -11 -11 -12 -12 -12
8 8 8 9 9 9 9 9 9 9 9 9 8 7 6 3 3 1 1 1 -0 -0 -2 -4 -4 -4 -4 -4 -5 -6 -6 -7 -8 -11 -12 -13 -14 -14 -15 -16 -17 -19 -19
7 7 6 6 6 7 7 8 8 8 5 5 2 1 -1 -3 -4 -4 -3 -3 -4 -4 -4 -4 -5 -5 -6 -7 -8 -9 -11 -12 -12 -12 -13 -15 -18 -21 -24 -24 -24 -25 -24
5 4 3 3 2 2 2 2 3 2 1 0 -2 -5 -5 -5 -5 -5 -5 -4 -4 -5 -6 -6 -8 -8 -8 -9 -10 -11 -12 -13 -15 -17 -18 -21 -23 -23 -24 -23 -22 -21 -21
2 2 1 -1 -2 -3 -3 -5 -3 -3 -3 -4 -4 -4 -5 -5 -5 -4 -5 -6 -6 -6 -7 -8 -9 -9 -10 -12 -13 -14 -15 -17 -18 -19 -20 -21 -21 -22 -23 -23 -22 -21 -21
1 1 0 -1 -3 -4 -5 -6 -7 -6 -6 -5 -5 -5 -6 -7 -6 -7 -7 -8 -9 -9 -8 -10 -11 -12 -13 -14 -16 -17 -18 -20 -20 -21 -23 -21 -21 -21 -23 -22 -22 -22 -22
-0 -1 -2 -3 -3 -4 -6 -7 -7 -7 -7 -8 -7 -7 -7 -8 -8 -8 -9 -8 -9 -10 -12 -13 -15 -17 -19 -20 -21 -22 -23 -24 -24 -23 -23 -22 -23 -24 -23 -22 -22 -22 -21
-3 -3 -4 -5 -5 -6 -6 -6 -6 -7 -8 -8 -9 -9 -10 -9 -10 -10 -11 -12 -16 -19 -20 -21 -21 -22 -23 -24 -24 -25 -25 -24 -23 -23 -24 -24 -23 -23 -23 -23 -22 -22 -22
-5 -6 -6 -6 -7 -7 -7 -7 -8 -9 -10 -11 -11 -11 -11 -11 -13 -18 -24 -25 -24 -23 -22 -23 -25 -27 -27 -26 -27 -27 -26 -26 -25 -25 -25 -25 -24 -24 -23 -23 -23 -22 -22
-6 -7 -7 -7 -8 -8 -8 -9 -10 -11 -11 -12 -13 -15 -20 -26 -27 -27 -27 -27 -28 -28 -29 -29 -28 -28 -28 -28 -27 -27 -26 -26 -27 -26 -25 -24 -23 -23 -22 -22 -22 -22 -21
-8 -8 -9 -9 -10 -10 -11 -11 -12 -12 -13 -14 -15 -19 -23 -26 -27 -28 -29 -30 -29 -28 -28 -29 -29 -28 -28 -27 -27 -27 -27 -27 -26 -25 -23 -23 -22 -22 -21 -21 -21 -21 -20
-9 -9 -9 -10 -10 -11 -12 -14 -17 -19 -20 -21 -22 -22 -25 -27 -27 -28 -29 -29 -29 -28 -28 -27 -27 -27 -27 -28 -27 -27 -27 -26 -25 -23 -23 -22 -22 -21 -21 -20 -20 -20 -20
-9 -10 -11 -13 -15 -16 -18 -19 -20 -21 -22 -22 -23 -24 -26 -27 -28 -29 -28 -28 -28 -28 -28 -28 -28 -29 -29 -28 -28 -27 -26 -24 -23 -23 -22 -22 -21 -20 -20 -19 -19 -19 -19
-22 -22 -22 -21 -22 -22 -22 -21 -21 -22 -23 -24 -24 -24 -24 -25 -27 -28 -27 -28 -28 -28 -28 -28 -28 -29 -29 -28 -28 -26 -24 -23 -23 -23 -22 -21 -21 -20 -19 -19 -19 -19 -19
-26 -25 -24 -23 -23 -23 -23 -23 -23 -23 -24 -25 -26 -26 -26 -25 -27 -27 -27 -28 -28 -27 -28 -28 -28 -28 -28 -28 -27 -25 -24 -23 -23 -22 -22 -21 -20 -19 -19 -19 -19 -19 -19

GFSGL_850_dewp_099.txt.gz
Dewpoint
4 4 7 8 7 7 8 7 8 8 8 8 8 7 6 5 5 5 5 4 4 4 4 3 2 4 6 5 5 6 6 5 5 4 3 3 4 4 4 5 6 6 6
5 5 6 7 7 7 7 7 7 6 6 6 8 8 7 7 7 6 6 5 4 4 4 4 4 6 6 5 5 6 6 4 4 4 4 4 4 5 5 6 7 8 8
7 5 6 7 7 7 7 6 5 5 6 4 6 7 7 7 6 6 6 5 4 3 4 4 4 5 6 6 5 6 5 4 4 5 4 5 5 6 6 7 7 7 7
8 6 5 6 7 7 7 6 6 6 6 5 4 5 5 5 5 5 5 4 4 4 4 4 5 5 6 5 5 5 5 6 6 6 6 7 6 6 6 7 7 7 7
9 8 6 5 6 7 7 7 7 6 6 6 5 3 4 4 3 4 6 5 4 5 5 6 5 5 6 6 6 6 6 6 6 6 7 6 7 7 8 7 8 7 5
10 9 8 6 7 7 8 7 7 7 7 7 6 5 3 3 2 2 4 5 5 4 2 2 2 3 3 4 7 7 6 6 6 7 7 8 8 8 7 7 5 4 4
10 10 9 8 7 7 8 8 8 7 7 7 7 7 7 7 6 3 2 3 3 2 2 2 1 2 4 6 7 6 6 7 6 7 8 8 7 5 4 4 3 1 1
10 10 10 9 9 7 8 8 7 8 7 7 7 8 8 8 7 7 5 3 2 2 2 2 3 3 3 4 5 6 7 6 7 8 7 6 5 2 1 -1 -2 -2 -2
10 9 10 10 10 9 8 8 8 7 7 7 8 8 8 8 8 8 8 8 7 7 7 7 6 5 6 6 5 6 7 5 5 3 3 2 1 -1 -1 -2 -3 -3 -4
9 9 9 9 9 10 10 9 9 8 8 8 8 8 8 8 8 8 9 9 9 8 8 8 7 7 7 7 7 4 2 -0 -1 -1 -1 -2 -2 -2 -2 -2 -3 -4 -6
7 8 9 9 9 9 9 10 10 9 9 9 9 9 9 8 8 8 9 9 9 9 8 7 6 6 6 4 -0 -0 -0 -2 -3 -3 -3 -3 -3 -4 -4 -6 -7 -8 -10
6 6 7 7 9 9 9 9 9 9 9 9 9 9 9 9 9 9 9 9 9 8 6 2 1 -2 -2 -2 -2 -3 -3 -3 -2 -3 -4 -5 -6 -6 -7 -9 -18 -26 -29
5 6 6 6 7 7 8 9 9 9 8 8 7 6 2 0 4 6 6 5 5 2 -2 -3 -4 -3 -3 -3 -3 -4 -5 -5 -6 -6 -7 -7 -8 -17 -28 -32 -33 -33 -32
3 4 3 4 3 3 4 4 5 6 5 3 -0 0 0 -1 -2 -2 -1 1 -1 -1 -3 -3 -3 -3 -3 -4 -6 -7 -7 -7 -7 -8 -15 -26 -31 -32 -32 -33 -33 -33 -33
2 1 1 1 0 0 0 0 0 0 1 1 0 -2 -3 -5 -6 -6 -5 -4 -4 -3 -2 -3 -5 -6 -7 -7 -7 -8 -9 -18 -27 -30 -30 -32 -32 -32 -33 -33 -33 -32 -32
0 -0 -0 -1 -2 -2 -2 -2 -3 -4 -4 -3 -3 -2 -3 -2 -3 -4 -3 -4 -5 -6 -6 -6 -6 -7 -8 -9 -11 -23 -28 -30 -31 -31 -32 -32 -32 -32 -32 -32 -31 -29 -28
-1 -1 -1 -2 -3 -4 -5 -6 -5 -6 -6 -7 -7 -7 -6 -6 -5 -4 -4 -5 -6 -6 -6 -8 -8 -9 -9 -17 -26 -28 -30 -31 -31 -32 -32 -32 -31 -31 -30 -28 -28 -27 -26
-2 -2 -3 -3 -4 -5 -5 -6 -6 -6 -7 -7 -6 -6 -6 -7 -7 -8 -7 -7 -8 -8 -8 -9 -10 -15 -22 -26 -29 -30 -31 -31 -31 -31 -31 -30 -29 -28 -27 -27 -26 -25 -25
-4 -4 -4 -4 -5 -5 -6 -6 -6 -6 -7 -8 -8 -8 -8 -8 -8 -9 -9 -8 -8 -10 -15 -21 -24 -26 -28 -29 -30 -31 -31 -31 -30 -29 -28 -28 -27 -26 -25 -25 -24 -24 -23
-5 -5 -5 -6 -6 -6 -6 -7 -7 -8 -8 -9 -9 -9 -9 -9 -9 -10 -15 -21 -24 -26 -26 -28 -28 -29 -30 -30 -30 -30 -29 -29 -28 -27 -27 -26 -25 -25 -24 -23 -23 -22 -22
-6 -6 -6 -6 -7 -7 -7 -7 -8 -8 -9 -9 -10 -10 -13 -19 -27 -28 -28 -29 -30 -30 -30 -30 -30 -30 -30 -29 -29 -28 -28 -27 -27 -27 -26 -24 -24 -23 -22 -22 -22 -22 -21
-7 -7 -8 -8 -8 -8 -9 -9 -9 -9 -10 -13 -22 -26 -26 -30 -31 -31 -31 -31 -31 -31 -31 -30 -29 -29 -29 -29 -28 -28 -28 -27 -27 -25 -24 -23 -23 -22 -22 -22 -21 -21 -20
-8 -8 -8 -9 -9 -9 -10 -10 -12 -15 -22 -28 -28 -29 -29 -31 -31 -32 -31 -31 -30 -29 -29 -29 -29 -29 -29 -29 -29 -28 -27 -27 -26 -24 -23 -23 -23 -23 -22 -21 -20 -20 -20
-9 -9 -9 -10 -11 -12 -14 -18 -23 -25 -26 -27 -28 -29 -30 -30 -30 -30 -30 -29 -29 -29 -29 -29 -29 -29 -29 -29 -29 -28 -28 -27 -26 -24 -24 -24 -23 -22 -21 -20 -20 -19 -19
-11 -12 -15 -18 -20 -23 -24 -25 -26 -26 -27 -27 -28 -28 -28 -28 -28 -28 -28 -28 -28 -28 -28 -28 -28 -28 -29 -29 -29 -29 -28 -27 -26 -25 -24 -24 -23 -22 -21 -20 -19 -19 -19
-24 -24 -25 -24 -25 -25 -26 -27 -27 -27 -27 -27 -27 -27 -27 -28 -28 -28 -28 -28 -28 -28 -28 -28 -29 -29 -29 -29 -29 -28 -28 -27 -26 -25 -24 -23 -23 -22 -22 -21 -20 -19 -19

GFSGL_850_dewp_102.txt.gz
Dewpoint
8 8 3 6 7 7 7 7 7 7 8 8 8 8 8 7 7 6 7 6 4 5 5 4 4 4 4 3 3 3 4 6 6 6 4 4 4 3 3 4 5 5 5
8 7 2 6 7 7 7 8 7 7 8 8 7 7 7 7 7 7 5 5 4 5 5 4 4 4 3 4 4 6 6 6 6 4 5 5 3 3 3 4 5 5 6
9 6 3 6 7 7 7 7 7 7 7 8 8 7 7 7 7 7 6 5 5 5 5 4 4 5 5 4 4 6 6 5 6 6 6 5 4 4 5 5 5 6 6
9 7 4 6 7 7 7 7 7 7 6 6 6 7 8 7 7 6 6 6 6 6 5 4 4 5 5 5 5 6 5 6 5 6 6 5 6 5 5 5 6 7 7
9 9 7 5 5 7 7 7 7 7 6 6 6 5 5 7 7 7 7 6 6 6 5 5 4 4 4 4 5 6 6 7 7 7 6 6 5 6 6 7 7 7 6
10 9 9 8 7 7 7 7 7 6 6 6 6 6 5 5 6 6 6 6 6 6 6 5 4 4 4 5 6 4 5 6 5 5 8 8 7 7 7 7 7 7 4
10 9 9 9 9 7 7 7 7 7 7 6 6 6 6 6 4 4 4 4 4 5 5 5 4 4 5 5 3 2 3 4 5 7 7 7 7 7 7 6 6 4 3
10 9 10 9 9 9 8 7 7 7 7 7 7 7 7 6 6 5 5 4 3 3 2 4 5 5 4 3 3 3 4 5 5 4 5 6 6 6 5 3 1 0 -0
9 9 9 9 9 9 9 8 8 8 7 7 7 7 7 7 7 7 7 7 6 6 5 3 2 3 3 3 3 5 6 6 5 6 6 5 4 1 -0 -1 -1 -2 -3
8 9 9 9 9 9 9 9 9 8 8 8 8 7 7 7 7 7 7 8 8 8 7 7 6 5 5 5 5 6 6 4 2 -0 -1 -2 -2 -2 -2 -3 -3 -3 -4
6 7 8 8 8 9 9 8 9 9 9 8 8 8 8 8 8 8 8 8 8 8 8 7 7 6 5 5 5 3 2 -1 -3 -2 -3 -3 -3 -3 -4 -4 -5 -6 -8
5 5 5 6 7 7 8 8 9 8 8 8 8 8 8 7 7 7 8 7 6 3 3 3 2 2 1 -0 -1 -2 -2 -3 -3 -4 -4 -5 -5 -5 -5 -7 -18 -35 -37
4 4 4 5 5 6 6 7 7 8 8 8 7 6 5 4 4 4 4 4 4 3 1 -3 -4 -4 -4 -3 -3 -3 -4 -5 -5 -5 -5 -6 -7 -12 -27 -35 -35 -35 -34
3 3 3 3 3 3 3 3 3 3 3 3 3 1 0 -0 0 0 0 -1 -0 -0 -2 -4 -4 -4 -4 -5 -7 -7 -6 -6 -6 -7 -9 -26 -34 -35 -35 -35 -35 -34 -34
0 0 1 0 0 1 1 -0 -0 -0 -0 -0 -1 -1 -1 -2 -3 -3 -3 -3 -3 -3 -4 -4 -5 -6 -7 -7 -7 -7 -7 -9 -26 -34 -35 -35 -35 -35 -35 -35 -35 -34 -31
-1 -1 -1 -1 -2 -3 -3 -4 -5 -4 -3 -3 -3 -3 -4 -5 -5 -5 -4 -5 -5 -6 -6 -6 -7 -7 -7 -8 -9 -16 -26 -33 -33 -33 -34 -35 -35 -35 -34 -32 -30 -30 -29
-2 -2 -2 -2 -3 -4 -5 -5 -6 -7 -6 -6 -6 -6 -6 -5 -5 -5 -5 -6 -6 -6 -6 -7 -8 -8 -9 -14 -26 -31 -32 -33 -33 -34 -35 -34 -33 -32 -30 -29 -29 -28 -27
-2 -3 -3 -3 -4 -5 -5 -6 -6 -6 -6 -7 -7 -6 -6 -6 -6 -6 -6 -6 -7 -7 -7 -8 -11 -22 -27 -30 -31 -32 -33 -33 -33 -33 -32 -32 -30 -29 -28 -28 -27 -26 -25
-4 -4 -4 -5 -6 -6 -6 -6 -6 -7 -7 -8 -8 -7 -8 -8 -8 -8 -8 -8 -8 -11 -20 -27 -30 -31 -31 -31 -32 -33 -33 -32 -32 -31 -31 -30 -28 -27 -27 -26 -25 -25 -24
-5 -5 -5 -6 -6 -6 -7 -7 -7 -8 -8 -8 -9 -9 -9 -8 -9 -10 -14 -20 -26 -29 -29 -31 -31 -31 -32 -32 -32 -31 -31 -30 -30 -30 -29 -28 -27 -26 -26 -25 -24 -24 -23
-7 -7 -7 -7 -7 -7 -8 -8 -8 -8 -8 -9 -9 -11 -13 -18 -26 -28 -29 -29 -30 -30 -30 -31 -31 -31 -31 -30 -30 -30 -29 -29 -28 -28 -27 -26 -26 -25 -24 -23 -23 -22 -21
-7 -8 -8 -8 -8 -8 -8 -9 -9 -9 -10 -14 -23 -27 -28 -31 -30 -30 -30 -30 -31 -31 -31 -30 -30 -30 -29 -29 -29 -29 -28 -28 -28 -27 -26 -25 -25 -24 -23 -23 -22 -21 -20
-8 -8 -9 -9 -9 -9 -9 -11 -15 -22 -29 -30 -29 -29 -30 -31 -32 -31 -31 -31 -31 -30 -30 -30 -29 -29 -29 -30 -30 -29 -29 -28 -28 -27 -25 -24 -24 -24 -23 -22 -21 -20 -20
-9 -9 -9 -10 -11 -12 -15 -21 -26 -28 -29 -30 -30 -31 -31 -31 -31 -31 -30 -30 -30 -30 -30 -30 -30 -30 -30 -30 -30 -30 -29 -28 -27 -26 -24 -24 -24 -23 -23 -22 -21 -20 -19
-12 -13 -16 -18 -21 -24 -26 -27 -28 -28 -29 -30 -30 -30 -30 -30 -30 -30 -29 -29 -29 -29 -30 -30 -30 -29 -30 -30 -29 -29 -29 -29 -27 -26 -25 -24 -23 -23 -23 -22 -21 -20 -19
-22 -23 -24 -24 -25 -25 -26 -27 -28 -28 -28 -28 -29 -29 -29 -29 -29 -28 -28 -29 -29 -29 -28 -28 -29 -29 -29 -29 -29 -29 -29 -28 -27 -26 -25 -24 -23 -23 -23 -23 -22 -21 -19

GFSGL_850_dewp_105.txt.gz
Dewpoint
10 10 9 8 4 6 7 7 8 7 7 8 8 8 9 9 8 8 8 5 2 3 5 5 7 5 4 2 2 4 5 4 4 4 3 4 4 5 4 4 3 3 3
10 9 9 7 4 7 7 8 7 7 7 8 7 8 8 8 8 8 7 7 4 5 6 4 6 5 4 2 3 5 5 4 4 4 4 4 4 5 4 5 4 4 4
9 9 8 6 5 7 7 8 7 7 8 8 7 7 7 7 7 7 7 6 5 5 4 5 5 5 5 4 5 5 4 4 5 6 5 6 6 6 5 4 4 5 6
10 9 9 5 5 7 7 8 8 7 7 8 8 7 7 7 7 7 6 6 5 3 4 4 4 5 4 4 5 5 5 5 6 7 7 6 6 6 6 6 6 6 6
9 9 9 5 5 7 8 8 7 7 7 8 8 8 7 7 6 7 6 6 6 5 4 5 5 5 4 4 5 5 5 6 5 6 6 6 7 6 6 6 7 7 7
9 9 9 8 5 6 7 7 7 7 7 7 7 6 6 6 7 7 7 7 6 6 6 5 5 6 5 5 5 5 5 5 5 7 5 6 7 5 4 5 7 7 6
9 9 9 9 9 6 7 7 7 7 7 7 6 5 6 6 5 6 7 7 7 6 6 6 6 6 6 5 5 5 5 5 6 6 4 6 5 5 7 7 7 6 4
9 9 9 9 9 9 8 7 7 7 7 6 6 6 6 6 6 6 5 5 6 6 6 6 6 6 6 6 6 5 5 6 6 4 4 5 5 6 6 6 5 4 1
8 8 8 9 9 9 9 9 8 7 7 7 6 6 6 6 7 7 7 6 5 5 5 4 4 4 3 4 6 7 6 5 5 4 4 5 5 5 4 2 0 -1 -2
8 8 8 8 8 8 8 8 8 8 8 8 7 7 7 7 7 7 7 7 7 7 7 6 6 5 6 5 4 4 5 5 5 4 3 1 -1 -1 -2 -2 -2 -3 -3
5 6 7 8 8 8 8 8 8 8 8 8 8 8 8 7 7 7 7 7 7 7 7 7 7 6 6 5 5 5 4 3 -1 -2 -2 -3 -4 -4 -3 -4 -4 -5 -5
4 5 5 6 6 7 7 7 8 8 8 8 8 7 7 7 7 7 7 7 6 5 5 4 4 5 4 2 1 -1 -2 -3 -4 -4 -5 -6 -5 -5 -5 -6 -8 -16 -28
3 4 4 4 5 5 5 6 6 6 6 6 5 5 4 4 4 4 5 5 4 4 3 2 1 -1 -1 -2 -3 -3 -4 -5 -5 -5 -5 -6 -7 -9 -19 -35 -37 -37 -37
1 1 1 2 2 2 3 3 3 3 3 2 2 2 1 1 1 1 1 1 1 2 -0 -2 -2 -3 -4 -5 -7 -7 -7 -6 -6 -6 -7 -10 -23 -36 -37 -37 -36 -35 -34
-0 -0 -0 -1 -1 -0 -0 -0 -0 -1 -0 0 -0 -1 -1 -1 -2 -2 -1 -1 -2 -3 -4 -5 -6 -6 -7 -7 -7 -7 -7 -8 -8 -12 -27 -35 -36 -36 -35 -34 -34 -31 -31
-2 -2 -2 -2 -3 -3 -3 -4 -4 -3 -3 -3 -3 -2 -4 -4 -4 -4 -4 -4 -4 -5 -6 -6 -6 -7 -7 -7 -7 -7 -8 -12 -24 -36 -37 -36 -35 -34 -34 -32 -31 -30 -29
-2 -3 -3 -4 -4 -4 -5 -5 -6 -6 -6 -6 -6 -6 -6 -5 -5 -6 -6 -6 -6 -5 -6 -7 -7 -7 -8 -8 -15 -27 -33 -35 -35 -35 -35 -34 -33 -32 -31 -30 -29 -27 -26
-3 -3 -3 -4 -5 -5 -5 -5 -6 -6 -6 -7 -7 -7 -7 -6 -6 -6 -6 -6 -6 -7 -7 -8 -10 -19 -28 -32 -33 -34 -34 -34 -34 -34 -33 -32 -31 -29 -28 -28 -27 -26 -25
-4 -4 -4 -5 -5 -6 -6 -6 -6 -7 -7 -7 -7 -7 -7 -7 -7 -7 -7 -7 -8 -13 -21 -28 -31 -32 -32 -33 -34 -34 -33 -33 -32 -31 -30 -29 -28 -28 -27 -27 -26 -25 -25
-5 -6 -6 -6 -6 -6 -7 -7 -7 -8 -8 -8 -8 -8 -8 -8 -8 -9 -14 -22 -28 -30 -30 -31 -31 -32 -32 -32 -32 -31 -31 -30 -30 -29 -29 -28 -27 -27 -26 -26 -25 -24 -23
-7 -7 -7 -7 -7 -7 -7 -7 -8 -8 -8 -8 -9 -10 -11 -16 -27 -29 -29 -30 -31 -30 -31 -31 -31 -31 -30 -30 -30 -30 -30 -29 -29 -29 -28 -27 -27 -26 -26 -25 -24 -23 -22
-8 -8 -8 -8 -8 -8 -8 -8 -8 -8 -9 -13 -25 -27 -28 -30 -31 -31 -31 -31 -31 -31 -31 -31 -31 -30 -30 -30 -30 -29 -29 -29 -28 -28 -27 -26 -26 -26 -25 -24 -23 -22 -22
-9 -9 -9 -9 -9 -9 -9 -11 -17 -25 -29 -29 -29 -29 -30 -32 -32 -32 -31 -31 -30 -30 -30 -30 -30 -30 -31 -31 -30 -30 -30 -29 -28 -28 -27 -26 -25 -25 -25 -24 -23 -22 -21
-10 -10 -10 -10 -10 -12 -17 -25 -29 -29 -29 -30 -30 -31 -31 -31 -31 -31 -30 -30 -30 -30 -30 -30 -30 -30 -30 -30 -30 -30 -30 -30 -29 -28 -27 -26 -25 -25 -25 -24 -24 -22 -21
-11 -12 -14 -16 -20 -24 -26 -27 -28 -29 -30 -30 -30 -30 -30 -30 -30 -30 -30 -29 -29 -29 -30 -30 -30 -30 -30 -30 -30 -30 -30 -30 -29 -28 -27 -26 -26 -25 -24 -24 -23 -23 -22
-21 -22 -24 -24 -25 -26 -27 -28 -28 -28 -29 -29 -29 -29 -29 -29 -29 -29 -29 -29 -29 -29 -29 -29 -29 -29 -29 -29 -30 -30 -30 -29 -29 -28 -27 -26 -26 -25 -24 -24 -23 -23 -22

GFSGL_850_dewp_108.txt.gz
Dewpoint
9 10 10 10 9 9 8 6 6 7 8 8 8 9 9 9 9 9 9 7 7 7 7 6 5 7 4 4 3 2 1 5 5 5 5 5 4 5 5 5 5 4 5
9 10 10 10 9 8 7 6 6 7 8 7 7 8 8 9 9 9 8 7 7 6 6 6 5 4 6 5 5 4 5 3 3 4 3 6 3 4 5 5 5 5 4
9 9 10 10 9 6 7 6 7 7 8 7 7 8 8 8 8 8 8 7 7 5 3 4 2 3 7 6 5 4 4 3 3 5 5 5 7 5 5 4 5 5 5
9 9 9 9 8 6 7 6 7 7 7 7 7 6 6 7 7 7 7 7 7 6 5 5 4 4 6 6 5 5 4 4 4 5 6 5 6 6 6 7 7 7 7
8 8 9 9 7 8 8 7 7 7 7 7 7 7 6 6 7 7 7 7 7 6 6 5 3 4 5 5 5 5 4 4 5 6 5 5 6 5 7 7 7 7 7
8 8 9 9 7 8 7 8 8 7 8 8 7 7 7 6 6 6 7 7 6 6 6 6 5 5 5 4 6 5 5 6 5 6 6 6 5 5 6 5 6 6 6
8 9 9 8 6 7 7 8 8 8 8 8 8 7 7 6 6 6 7 7 7 6 6 5 4 4 4 5 5 6 5 5 5 6 6 6 6 5 6 4 6 6 6
8 8 8 9 9 8 6 7 7 8 8 8 8 7 6 6 6 6 6 7 7 7 6 6 5 5 5 6 6 6 6 6 6 6 6 6 6 6 6 6 6 5 5
8 8 8 8 8 9 9 8 7 7 7 7 7 7 6 6 6 6 6 6 7 7 7 7 7 7 6 7 7 6 6 6 6 6 6 6 6 6 5 5 4 3 1
7 7 8 8 8 8 8 8 8 8 8 8 7 7 6 6 6 7 7 7 6 6 7 7 6 6 7 7 6 6 6 6 5 5 5 4 3 2 2 1 0 -1 -2
5 6 6 7 8 8 8 8 8 8 8 8 8 7 7 7 7 7 7 7 7 7 6 6 6 6 6 6 6 6 5 5 3 1 -0 -1 -2 -2 -3 -3 -4 -4 -4
-0 4 5 6 6 7 7 7 8 8 8 8 7 7 6 6 7 7 7 7 6 6 6 5 5 5 5 4 3 2 1 0 -0 -2 -3 -4 -5 -5 -5 -5 -5 -5 -6
2 3 4 4 4 5 5 6 6 6 6 6 5 4 4 4 4 5 5 5 5 5 3 3 3 2 2 1 0 -1 -2 -3 -4 -4 -5 -5 -5 -5 -6 -8 -10 -13 -16
0 0 1 2 2 2 2 3 3 3 3 3 2 2 2 2 2 2 3 2 2 2 2 -1 -1 -2 -2 -4 -5 -5 -6 -6 -5 -5 -5 -5 -6 -8 -9 -13 -26 -37 -36
-3 -3 -2 -2 -1 -1 -1 -1 -1 -1 -0 0 -0 -0 -0 -1 -2 -2 -1 -1 -2 -3 -3 -4 -5 -6 -6 -7 -7 -6 -6 -6 -6 -6 -7 -11 -21 -31 -35 -35 -34 -32 -31
-3 -3 -4 -4 -4 -4 -4 -4 -4 -3 -3 -3 -3 -3 -4 -4 -4 -4 -4 -4 -5 -6 -6 -6 -7 -7 -7 -7 -7 -7 -8 -8 -13 -23 -30 -33 -34 -34 -33 -31 -28 -25 -27
-4 -4 -4 -5 -6 -7 -6 -6 -6 -7 -6 -6 -5 -5 -5 -5 -5 -5 -5 -6 -6 -6 -6 -7 -7 -7 -9 -9 -9 -11 -20 -30 -31 -29 -32 -33 -33 -32 -29 -28 -26 -26 -26
-4 -4 -4 -5 -5 -6 -7 -7 -7 -7 -7 -6 -6 -6 -6 -6 -6 -6 -6 -6 -6 -7 -7 -8 -9 -10 -14 -21 -30 -32 -34 -33 -32 -31 -32 -31 -29 -25 -26 -26 -24 -20 -17
-5 -5 -6 -6 -6 -6 -7 -8 -8 -8 -8 -8 -8 -7 -7 -7 -7 -7 -7 -6 -7 -10 -14 -19 -25 -29 -32 -33 -34 -34 -34 -33 -33 -32 -31 -30 -28 -26 -27 -26 -26 -26 -21
-6 -6 -6 -7 -7 -7 -8 -8 -8 -8 -8 -8 -8 -8 -8 -8 -8 -8 -12 -21 -26 -26 -25 -28 -28 -31 -33 -34 -33 -33 -33 -32 -31 -31 -30 -29 -28 -26 -26 -25 -23 -17 -21
-7 -7 -7 -7 -7 -7 -8 -8 -8 -8 -8 -9 -9 -9 -9 -13 -20 -27 -29 -30 -30 -30 -31 -32 -32 -32 -31 -31 -31 -31 -31 -30 -30 -29 -28 -28 -27 -25 -25 -25 -24 -24 -24
-8 -8 -8 -8 -8 -8 -8 -8 -8 -9 -11 -18 -23 -25 -27 -30 -30 -30 -31 -32 -32 -32 -31 -31 -30 -30 -31 -30 -30 -29 -29 -29 -28 -28 -27 -27 -26 -26 -25 -25 -24 -24 -22
-8 -8 -8 -9 -9 -9 -9 -10 -13 -20 -25 -27 -27 -28 -30 -32 -32 -32 -32 -32 -32 -32 -31 -31 -31 -31 -31 -31 -30 -29 -29 -29 -29 -28 -27 -27 -26 -25 -25 -25 -24 -23 -22
-9 -9 -9 -10 -10 -11 -17 -25 -29 -29 -29 -30 -31 -32 -32 -32 -31 -31 -31 -31 -31 -31 -31 -31 -31 -31 -31 -31 -31 -31 -30 -30 -29 -28 -28 -27 -26 -26 -25 -25 -24 -24 -23
-11 -11 -11 -12 -17 -24 -27 -28 -29 -29 -30 -31 -31 -31 -31 -31 -31 -31 -30 -30 -30 -30 -30 -30 -30 -30 -30 -30 -30 -30 -30 -30 -30 -29 -28 -27 -27 -26 -25 -25 -24 -24 -23
-20 -22 -23 -25 -26 -26 -27 -28 -29 -29 -29 -29 -29 -30 -30 -30 -30 -30 -29 -29 -29 -29 -29 -29 -29 -29 -29 -29 -29 -30 -30 -29 -29 -29 -28 -27 -27 -26 -26 -25 -24 -24 -23

GFSGL_850_dewp_111.txt.gz
Dewpoint
10 9 9 10 11 11 11 11 10 6 9 9 9 8 9 9 9 9 9 9 8 8 8 8 8 7 7 6 6 6 4 3 3 4 6 6 6 6 5 7 6 6 6
9 9 8 10 10 10 10 9 7 7 9 9 9 8 8 8 9 9 8 8 8 8 8 8 8 7 7 6 5 7 4 4 5 5 5 6 5 5 4 5 6 7 6
9 9 9 9 10 10 10 8 5 9 8 7 8 9 8 8 9 9 9 8 8 8 8 8 8 7 6 7 7 6 5 4 3 2 3 5 4 4 4 6 7 6 5
9 9 9 9 10 10 10 7 6 10 9 7 7 9 8 8 8 8 8 8 8 7 7 7 7 7 6 5 6 5 5 5 4 4 5 3 2 3 5 6 7 7 7
9 8 9 9 9 10 9 9 8 9 8 7 6 8 7 6 7 7 7 8 7 7 7 7 7 7 7 6 5 5 7 6 5 5 5 4 4 5 5 5 6 6 7
8 8 8 9 9 9 9 9 9 9 8 8 6 7 6 6 6 6 6 7 7 7 6 6 6 6 5 3 2 4 6 6 5 5 6 5 5 5 6 6 6 6 6
8 8 8 8 9 8 9 8 9 9 8 8 8 7 7 6 6 6 6 7 7 7 7 6 6 6 6 6 4 4 6 6 6 6 6 5 5 5 5 6 6 6 6
8 8 8 8 8 8 8 8 8 9 8 8 8 8 6 6 5 6 6 7 7 7 7 7 6 6 6 6 5 5 6 5 5 6 6 6 6 6 6 6 6 6 6
8 8 8 7 8 8 9 9 8 8 7 8 8 8 8 7 6 6 6 6 6 7 7 7 7 7 6 5 5 5 5 5 6 6 6 5 6 6 6 6 5 5 3
3 6 7 7 8 8 8 8 8 8 8 8 8 8 7 7 6 6 6 6 6 7 7 7 7 7 6 7 6 6 6 6 6 6 6 6 5 5 4 3 3 2 1
-0 4 5 6 7 8 8 8 8 8 8 8 8 7 7 7 6 6 7 7 7 7 6 6 6 7 7 7 7 6 6 6 5 3 3 2 1 1 0 -0 -1 -2 -3
-1 3 3 5 4 6 8 8 8 8 8 7 7 7 7 7 7 7 7 7 7 6 6 6 6 6 6 6 6 4 4 3 2 1 -0 -1 -2 -3 -4 -4 -4 -4 -4
2 2 2 2 2 3 6 6 7 7 7 6 6 5 5 5 6 6 6 6 6 6 5 4 4 4 3 3 3 1 0 -1 -2 -3 -3 -4 -5 -5 -5 -5 -5 -5 -6
-0 0 0 1 1 1 3 4 3 2 2 2 2 2 2 2 2 3 3 3 2 2 1 -0 -1 -0 -1 -1 -3 -4 -4 -5 -5 -5 -5 -5 -6 -6 -7 -9 -12 -21 -33
-4 -6 -5 -4 -2 -3 -2 -2 -1 -1 -0 0 0 -0 -0 -0 -1 -1 -1 -1 -2 -2 -2 -3 -4 -4 -5 -6 -6 -6 -6 -6 -6 -6 -7 -7 -9 -15 -24 -33 -35 -31 -26
-3 -4 -4 -4 -4 -4 -5 -5 -5 -4 -3 -3 -3 -2 -3 -3 -4 -4 -4 -4 -5 -6 -5 -6 -7 -7 -7 -7 -7 -7 -7 -7 -8 -11 -17 -25 -28 -30 -30 -29 -25 -20 -17
-4 -4 -5 -5 -6 -7 -7 -6 -6 -6 -5 -5 -5 -5 -5 -5 -5 -5 -6 -6 -6 -6 -6 -8 -8 -8 -9 -9 -10 -9 -10 -15 -20 -20 -22 -26 -30 -32 -23 -20 -18 -15 -15
-5 -5 -5 -6 -7 -7 -7 -7 -7 -7 -7 -7 -7 -6 -7 -7 -7 -7 -7 -7 -7 -7 -8 -10 -10 -11 -11 -12 -14 -16 -17 -20 -19 -18 -19 -19 -16 -16 -15 -14 -13 -13 -14
-6 -6 -7 -7 -7 -8 -8 -8 -8 -9 -8 -8 -8 -8 -7 -7 -7 -7 -7 -8 -10 -10 -11 -11 -12 -12 -13 -13 -14 -16 -18 -18 -20 -20 -20 -18 -17 -15 -17 -22 -26 -26 -19
-7 -7 -8 -8 -9 -9 -9 -9 -10 -10 -9 -9 -10 -10 -9 -8 -8 -8 -10 -12 -13 -13 -13 -13 -14 -14 -15 -19 -23 -25 -23 -24 -23 -20 -18 -15 -15 -15 -18 -19 -16 -14 -15
-8 -8 -8 -8 -9 -9 -9 -9 -9 -9 -9 -9 -9 -10 -10 -10 -12 -13 -13 -13 -14 -14 -14 -14 -14 -15 -15 -15 -15 -16 -17 -18 -17 -17 -18 -20 -19 -17 -18 -20 -17 -19 -22
-9 -9 -9 -9 -9 -9 -10 -10 -11 -11 -13 -15 -16 -19 -17 -14 -14 -15 -16 -16 -16 -16 -16 -17 -17 -17 -16 -16 -18 -21 -23 -22 -20 -22 -27 -27 -20 -24 -21 -20 -18 -17 -16
-10 -10 -10 -10 -10 -11 -11 -12 -12 -13 -13 -14 -14 -15 -15 -15 -16 -17 -19 -22 -27 -28 -27 -28 -29 -30 -30 -29 -25 -21 -22 -26 -29 -28 -24 -22 -19 -17 -21 -17 -18 -19 -17
-10 -11 -11 -11 -12 -12 -13 -17 -17 -15 -14 -15 -15 -16 -17 -20 -22 -26 -27 -29 -30 -31 -32 -32 -32 -32 -31 -29 -29 -31 -32 -32 -31 -30 -29 -29 -24 -22 -22 -20 -18 -18 -23
-12 -12 -12 -13 -13 -14 -14 -14 -15 -15 -15 -16 -16 -17 -18 -20 -25 -29 -31 -31 -31 -31 -31 -31 -31 -31 -31 -31 -31 -31 -31 -31 -31 -30 -30 -29 -28 -28 -26 -26 -23 -23 -19
-14 -14 -14 -14 -14 -14 -15 -15 -16 -16 -16 -17 -17 -18 -18 -21 -25 -29 -30 -30 -30 -30 -30 -30 -30 -30 -30 -30 -30 -30 -30 -30 -30 -30 -29 -29 -28 -25 -20 -20 -20 -20 -20

GFSGL_850_dewp_114.txt.gz
Dewpoint
8 8 10 9 9 10 11 12 11 11 10 10 9 9 10 8 9 9 8 9 9 8 8 8 8 8 8 7 5 7 6 5 3 4 4 5 5 6 6 6 8 7 6
9 10 10 9 9 10 11 12 11 10 10 10 9 9 9 9 9 9 9 9 9 9 8 8 8 7 7 8 6 6 6 6 4 5 4 5 5 5 5 6 6 5 4
9 10 10 8 8 9 11 11 10 10 9 9 9 9 9 9 9 9 9 9 9 8 8 8 8 8 8 8 7 7 6 5 4 4 5 6 6 6 6 5 5 5 4
8 9 9 9 8 9 11 11 10 9 10 9 10 9 8 7 8 8 8 9 8 8 8 8 8 8 8 8 8 7 6 6 7 6 5 5 4 4 5 4 5 5 5
7 9 9 9 9 9 10 10 10 9 9 9 9 8 7 7 7 8 8 8 8 8 8 8 8 8 8 8 8 7 7 6 6 6 5 5 5 4 5 4 5 6 5
7 9 9 9 9 10 10 10 9 9 9 9 9 7 7 6 6 7 8 8 7 7 7 7 7 7 7 7 7 7 6 6 6 6 6 5 5 5 5 5 6 6 6
7 8 8 8 9 9 9 9 9 8 8 9 8 8 8 7 6 6 6 6 7 7 7 7 7 7 7 7 7 7 6 6 5 5 6 6 5 6 6 6 6 6 6
7 8 8 8 9 9 9 8 8 8 8 8 8 9 8 9 7 6 7 7 7 7 7 7 7 6 6 6 6 6 5 4 5 5 6 6 6 6 6 6 6 6 6
2 6 7 8 8 8 8 8 8 8 8 8 8 8 8 8 7 6 6 7 6 7 7 7 7 7 6 6 6 6 6 6 5 5 5 6 5 6 6 6 5 5 4
1 1 4 7 8 8 8 8 8 8 8 8 8 8 8 8 8 7 6 6 7 7 6 6 7 7 7 6 6 6 6 6 6 6 6 5 5 5 5 5 4 3 2
-0 -0 1 5 7 8 8 8 8 8 8 8 7 7 8 7 7 7 7 6 6 7 7 7 7 7 6 6 6 6 6 6 5 5 4 3 2 2 2 2 1 1 0
-0 -0 -0 2 1 6 7 8 8 7 7 7 8 7 7 7 7 7 7 7 7 7 6 6 6 6 6 6 6 5 5 4 3 2 1 0 -0 -1 -1 -1 -2 -2 -2
-1 -0 0 -0 0 1 2 5 6 6 7 6 6 6 5 5 6 7 6 6 6 6 5 5 5 4 4 4 4 3 3 1 0 -1 -1 -2 -3 -3 -3 -4 -4 -5 -5
-2 -0 -0 -1 0 1 1 2 1 1 2 3 3 3 2 2 3 3 2 3 2 2 1 -0 1 1 1 1 -1 -2 -2 -2 -3 -3 -3 -4 -5 -5 -5 -7 -8 -12 -20
-4 -3 -3 -4 -3 -2 -2 -1 -1 -1 -1 -0 -0 0 1 -0 -2 -1 -1 -1 -1 -2 -2 -2 -3 -2 -3 -4 -4 -5 -5 -5 -5 -5 -5 -5 -6 -8 -13 -22 -29 -34 -34
-5 -5 -5 -5 -4 -4 -5 -5 -5 -4 -3 -2 -3 -2 -4 -4 -4 -3 -4 -4 -4 -4 -4 -5 -6 -6 -6 -7 -7 -7 -7 -6 -6 -7 -8 -13 -21 -29 -31 -28 -23 -24 -25
-7 -7 -7 -7 -7 -7 -7 -7 -7 -7 -6 -6 -6 -6 -6 -6 -6 -6 -6 -6 -6 -6 -6 -7 -8 -8 -8 -8 -8 -8 -8 -10 -14 -19 -23 -26 -27 -25 -23 -22 -20 -20 -19
-7 -7 -7 -8 -8 -8 -8 -7 -7 -7 -8 -8 -8 -8 -8 -8 -8 -8 -7 -7 -7 -8 -8 -9 -9 -9 -10 -11 -13 -16 -18 -21 -23 -24 -26 -24 -23 -22 -19 -17 -16 -16 -18
-8 -8 -8 -8 -8 -8 -8 -8 -8 -9 -9 -9 -9 -8 -8 -8 -7 -7 -7 -8 -9 -9 -10 -10 -11 -12 -12 -14 -19 -23 -24 -24 -24 -25 -24 -22 -19 -19 -21 -24 -25 -21 -19
-8 -8 -8 -8 -8 -8 -8 -8 -9 -9 -9 -9 -10 -10 -9 -8 -8 -10 -11 -12 -12 -13 -14 -16 -17 -20 -25 -26 -27 -28 -29 -27 -26 -24 -22 -21 -20 -23 -24 -23 -21 -17 -20
-9 -9 -9 -9 -9 -9 -9 -8 -8 -8 -9 -9 -10 -10 -9 -9 -11 -14 -15 -15 -15 -16 -16 -18 -18 -18 -19 -20 -19 -19 -21 -23 -24 -25 -24 -23 -23 -22 -23 -24 -23 -23 -23
-9 -9 -9 -9 -10 -10 -10 -10 -10 -11 -12 -12 -14 -15 -17 -18 -20 -21 -20 -19 -18 -18 -19 -21 -21 -20 -19 -20 -22 -24 -24 -24 -24 -24 -26 -25 -25 -25 -25 -23 -25 -22 -17
-10 -10 -10 -10 -11 -11 -11 -11 -12 -13 -15 -16 -18 -19 -21 -23 -24 -26 -26 -26 -26 -28 -28 -28 -28 -26 -25 -25 -26 -27 -28 -27 -26 -28 -28 -26 -26 -24 -24 -21 -23 -23 -21
-11 -11 -11 -12 -11 -12 -13 -14 -14 -15 -16 -16 -18 -20 -22 -23 -24 -26 -28 -29 -31 -30 -30 -31 -31 -30 -31 -31 -31 -30 -31 -32 -32 -31 -30 -29 -30 -28 -27 -27 -23 -22 -21
-12 -12 -12 -13 -13 -13 -14 -14 -14 -15 -15 -15 -16 -17 -19 -22 -27 -29 -30 -30 -31 -31 -31 -32 -32 -31 -31 -31 -31 -31 -31 -31 -31 -31 -30 -31 -30 -29 -28 -27 -26 -26 -24
-13 -13 -13 -14 -14 -14 -14 -15 -15 -16 -16 -16 -16 -17 -18 -21 -26 -29 -30 -30 -30 -31 -30 -31 -30 -31 -31 -30 -31 -31 -30 -30 -30 -30 -30 -30 -30 -30 -29 -27 -27 -26 -25

GFSGL_850_dewp_120.txt.gz
Dewpoint
-1 -1 -1 -1 -0 2 4 3 6 10 11 10 9 10 12 10 10 11 11 10 9 8 8 8 9 9 9 9 9 8 8 8 7 7 7 6 4 6 3 5 6 7 7
1 1 1 1 1 4 9 7 6 9 11 10 9 10 12 11 10 10 10 10 8 9 8 9 9 9 8 9 8 8 8 8 7 7 7 5 5 6 6 6 6 6 6
1 1 1 1 2 6 9 10 9 9 10 9 9 10 11 11 10 10 9 9 8 8 9 8 8 8 8 8 8 8 8 8 8 7 6 6 7 5 6 6 6 6 7
1 1 1 2 4 7 9 10 10 10 9 9 9 10 11 10 10 8 8 8 8 8 9 9 8 8 8 8 8 8 8 8 7 7 6 5 5 6 6 6 6 6 7
0 0 1 3 5 7 8 9 9 9 8 9 9 11 11 10 8 8 8 8 8 9 9 8 9 8 8 8 8 8 8 7 7 6 7 6 6 5 6 6 6 7 6
-1 -0 1 2 5 7 8 9 9 9 9 10 11 9 10 8 8 8 8 8 9 8 9 8 8 8 8 8 8 8 8 8 7 7 6 5 6 6 6 7 7 6 6
-1 -1 1 2 4 6 8 9 9 9 9 9 10 8 9 8 8 8 8 8 8 8 8 8 8 8 8 8 8 8 8 8 8 6 6 6 6 7 7 7 6 6 5
-1 -1 0 1 3 5 7 9 9 9 9 10 9 9 8 8 8 7 7 8 8 8 8 8 8 7 7 8 8 8 8 7 7 7 7 7 6 6 6 5 6 6 6
-1 -1 -1 0 2 4 6 9 8 9 9 9 9 9 9 8 8 7 7 7 7 7 7 7 7 7 7 7 7 7 7 7 7 7 7 7 6 6 6 6 5 5 6
-2 -2 -1 -0 1 3 5 8 9 9 8 9 8 8 8 7 6 7 7 6 7 6 6 7 7 7 7 6 6 7 7 7 6 6 6 6 6 5 5 5 5 6 6
-2 -2 -1 -0 0 1 3 6 8 9 9 9 8 8 8 7 7 6 7 6 6 6 7 7 7 6 6 6 6 6 6 6 5 5 5 5 5 5 5 5 5 4 4
-3 -2 -2 -1 -1 0 1 3 6 7 8 8 8 8 8 7 7 7 6 7 6 6 6 7 7 6 6 6 6 6 6 6 6 5 5 5 4 4 4 3 3 2 2
-4 -3 -2 -2 -2 -1 -0 1 -0 2 6 6 7 6 7 7 7 7 7 6 6 6 6 6 6 6 6 6 6 6 6 5 5 4 3 2 1 1 1 1 0 -0 -0
-5 -4 -4 -3 -3 -4 -4 -1 -1 -1 0 2 3 4 5 5 6 6 6 6 6 6 6 6 6 6 6 6 5 4 3 3 2 2 1 -0 -1 -1 -2 -2 -2 -3 -3
-6 -6 -5 -5 -5 -7 -7 -7 -3 -3 -2 -2 -2 1 1 1 1 1 2 4 4 4 4 3 3 3 3 1 0 0 -1 -1 -1 -1 -1 -2 -3 -3 -4 -4 -5 -7 -8
-6 -6 -6 -6 -6 -7 -8 -7 -7 -7 -5 -4 -3 -1 -3 -2 -2 -1 -1 -1 1 2 1 -0 -1 -1 -1 -2 -2 -3 -3 -3 -3 -3 -3 -4 -4 -5 -8 -19 -23 -26 -29
-7 -7 -7 -7 -7 -7 -7 -8 -8 -8 -7 -7 -7 -7 -5 -4 -2 -3 -3 -4 -2 -1 -1 -3 -3 -4 -5 -4 -4 -5 -5 -4 -5 -5 -5 -8 -10 -15 -22 -30 -31 -33 -33
-7 -8 -7 -7 -7 -7 -7 -8 -8 -7 -7 -8 -7 -6 -6 -5 -5 -4 -4 -4 -5 -5 -3 -3 -4 -5 -5 -5 -6 -6 -7 -9 -10 -12 -16 -20 -25 -28 -29 -29 -29 -31 -30
-8 -8 -8 -8 -8 -8 -8 -8 -8 -8 -8 -8 -7 -7 -7 -7 -7 -7 -7 -6 -7 -7 -7 -7 -8 -8 -8 -9 -9 -11 -14 -18 -22 -25 -25 -25 -24 -25 -25 -25 -26 -26 -25
-8 -8 -8 -8 -8 -8 -8 -8 -8 -8 -8 -8 -8 -9 -8 -8 -8 -8 -8 -8 -8 -8 -9 -10 -11 -12 -14 -16 -19 -22 -24 -25 -26 -26 -26 -26 -25 -23 -23 -22 -21 -21 -22
-9 -9 -8 -8 -8 -8 -8 -8 -8 -8 -8 -9 -9 -10 -10 -9 -10 -10 -11 -11 -12 -12 -13 -15 -18 -21 -22 -23 -24 -24 -24 -24 -24 -25 -25 -25 -25 -26 -27 -27 -26 -24 -23
-10 -9 -9 -9 -9 -9 -9 -9 -9 -10 -11 -11 -13 -13 -14 -16 -18 -18 -19 -19 -20 -20 -20 -21 -22 -21 -21 -22 -23 -25 -27 -26 -26 -26 -27 -27 -27 -27 -28 -27 -27 -28 -28
-11 -10 -10 -10 -10 -10 -10 -12 -14 -17 -19 -20 -20 -20 -19 -20 -20 -19 -20 -19 -19 -19 -18 -19 -20 -21 -21 -22 -23 -24 -25 -27 -27 -27 -28 -28 -28 -28 -29 -29 -30 -30 -29
-12 -11 -11 -12 -12 -12 -14 -16 -18 -19 -20 -21 -22 -23 -24 -23 -22 -22 -21 -21 -21 -21 -21 -22 -23 -23 -24 -24 -25 -26 -27 -29 -28 -27 -30 -30 -31 -31 -31 -31 -31 -31 -30
-13 -13 -13 -13 -14 -15 -16 -17 -18 -19 -20 -21 -23 -25 -26 -26 -26 -28 -29 -29 -29 -27 -27 -27 -28 -29 -29 -31 -30 -30 -31 -31 -31 -31 -31 -31 -31 -31 -31 -31 -30 -30 -30
-14 -14 -14 -14 -15 -15 -16 -17 -17 -18 -19 -19 -20 -22 -25 -27 -28 -29 -30 -30 -30 -30 -30 -31 -30 -31 -31 -31 -31 -31 -31 -31 -31 -31 -31 -31 -31 -30 -30 -30 -30 -29 -29

GFSGL_850_dewp_123.txt.gz
Dewpoint
-4 -3 -2 -2 -1 -1 -2 -3 -3 1 1 4 9 10 11 9 9 9 10 10 11 11 11 10 7 8 8 8 8 9 9 9 9 8 8 8 7 6 6 5 5 6 6
-3 -3 -2 -2 -2 -2 -2 0 1 3 4 3 7 11 11 10 8 11 11 10 11 11 11 9 6 8 8 8 9 9 9 8 9 8 8 8 6 6 7 6 6 6 5
-0 -0 -0 -0 -0 -0 -0 1 3 8 9 6 7 10 10 10 8 10 11 10 10 11 10 8 7 8 8 8 8 9 9 8 8 8 8 7 7 5 6 7 4 4 6
-1 -1 -1 -1 -1 -0 0 3 6 9 10 9 9 11 11 9 8 10 11 10 11 10 9 8 8 8 9 8 8 8 8 8 8 8 8 7 7 5 6 7 7 5 5
-1 -1 -1 -0 -0 1 3 5 7 9 9 9 10 10 10 9 9 10 11 10 10 9 8 8 8 9 8 8 8 8 8 8 8 8 8 8 6 5 6 7 7 7 6
-1 -1 -1 -1 0 1 3 5 7 8 9 9 9 9 8 9 10 11 11 10 8 7 8 8 8 9 8 8 8 8 8 8 8 8 7 7 6 6 7 6 5 6 7
-1 -1 -1 -1 0 1 3 5 7 8 9 9 9 9 9 10 9 11 10 8 8 8 8 8 9 8 8 8 8 8 8 8 8 8 7 6 6 5 5 5 6 7 6
-2 -2 -1 -1 -0 1 2 4 7 8 8 9 8 8 9 10 10 10 8 8 8 8 8 8 8 8 8 8 8 8 8 8 8 8 8 7 6 7 6 5 5 7 6
-2 -2 -2 -1 -1 1 2 3 5 7 8 9 9 8 9 8 9 8 8 7 7 8 8 8 8 8 7 8 8 8 8 8 7 7 7 7 7 7 6 6 7 6 6
-3 -3 -2 -2 -1 -0 1 2 4 7 8 8 9 9 8 10 9 8 7 7 7 8 8 8 8 7 7 7 7 7 7 7 7 7 7 7 7 7 7 7 7 6 6
-3 -3 -3 -2 -2 -1 -0 1 3 5 8 8 8 8 9 9 8 7 7 7 7 7 7 7 6 7 7 7 7 7 7 7 7 7 6 6 6 6 6 6 6 5 5
-4 -4 -4 -3 -4 -3 -1 -1 -0 3 5 6 8 8 8 8 7 7 7 7 6 6 6 6 7 7 6 6 6 6 6 6 6 6 6 6 5 5 5 5 5 4 4
-5 -5 -4 -5 -5 -5 -3 -2 -1 -0 1 0 3 7 7 7 6 6 6 6 6 6 7 7 7 7 6 6 6 6 6 6 6 5 5 5 4 4 4 3 3 2 2
-6 -5 -5 -6 -6 -6 -5 -5 -4 -2 -1 -1 -2 1 4 6 6 6 6 6 6 6 6 6 6 6 6 6 6 6 5 4 4 4 4 3 2 1 1 0 0 0 -0
-6 -6 -6 -6 -6 -7 -8 -7 -8 -7 -4 -3 -4 -3 -2 -1 1 1 5 6 6 5 6 6 6 5 5 4 4 4 3 2 1 1 0 -0 -1 -1 -2 -2 -2 -2 -2
-7 -7 -7 -6 -6 -6 -7 -7 -7 -7 -7 -5 -5 -6 -6 -4 -1 -0 -0 0 2 2 2 2 2 2 1 1 -1 -1 -1 -1 -1 -1 -2 -2 -3 -3 -3 -4 -5 -7 -9
-7 -7 -7 -7 -7 -7 -7 -7 -7 -7 -7 -7 -7 -6 -6 -5 -4 -3 -1 -1 -0 -1 -0 -1 -2 -2 -2 -3 -2 -3 -3 -3 -3 -3 -3 -4 -4 -4 -7 -19 -23 -26 -31
-8 -8 -8 -8 -7 -7 -7 -7 -7 -7 -7 -7 -7 -7 -6 -5 -5 -4 -4 -3 -3 -3 -3 -4 -5 -4 -4 -5 -5 -5 -4 -6 -5 -5 -6 -10 -17 -20 -26 -31 -32 -32 -33
-8 -8 -8 -8 -8 -8 -8 -7 -7 -7 -7 -8 -7 -7 -7 -6 -6 -5 -4 -4 -5 -6 -6 -6 -6 -6 -6 -6 -7 -9 -10 -11 -13 -16 -20 -24 -26 -28 -30 -28 -28 -28 -30
-9 -9 -8 -8 -8 -9 -9 -8 -8 -8 -8 -8 -8 -8 -7 -6 -5 -6 -6 -6 -7 -7 -8 -8 -9 -9 -10 -12 -14 -17 -19 -21 -22 -24 -25 -25 -23 -23 -25 -24 -24 -25 -24
-9 -9 -9 -9 -9 -9 -9 -9 -9 -10 -10 -11 -13 -14 -13 -11 -10 -10 -9 -9 -10 -11 -12 -13 -15 -17 -18 -19 -20 -21 -22 -22 -22 -23 -23 -21 -20 -21 -21 -21 -22 -23 -24
-10 -10 -10 -10 -10 -10 -10 -12 -15 -17 -17 -16 -15 -15 -16 -18 -18 -19 -20 -20 -21 -21 -21 -21 -21 -20 -20 -21 -22 -23 -23 -24 -24 -24 -24 -24 -25 -25 -25 -25 -26 -27 -28
-11 -11 -11 -11 -11 -11 -12 -13 -17 -19 -21 -22 -21 -20 -20 -20 -20 -19 -19 -19 -19 -19 -19 -20 -21 -22 -23 -24 -25 -25 -25 -25 -25 -24 -26 -27 -28 -29 -29 -29 -30 -30 -30
-12 -12 -12 -13 -14 -15 -17 -19 -20 -22 -23 -24 -24 -25 -24 -23 -23 -22 -21 -21 -21 -22 -22 -23 -24 -24 -25 -25 -26 -26 -27 -28 -27 -28 -29 -29 -29 -30 -31 -31 -31 -31 -31
-14 -14 -14 -14 -15 -16 -17 -18 -19 -21 -22 -23 -25 -26 -26 -26 -27 -27 -26 -27 -27 -27 -27 -28 -28 -28 -28 -29 -30 -30 -31 -31 -30 -31 -32 -32 -32 -32 -31 -31 -31 -31 -31
-14 -14 -15 -15 -15 -15 -16 -18 -18 -19 -20 -22 -24 -26 -27 -28 -29 -29 -29 -29 -29 -29 -30 -30 -31 -31 -31 -31 -31 -31 -31 -31 -31 -31 -31 -31 -31 -30 -30 -30 -30 -30 -30

GFSGL_850_dewp_126.txt.gz
Dewpoint
-0 -1 -3 -4 -5 -5 -4 -3 -4 -4 -4 -3 -1 -0 7 10 11 11 11 10 8 8 10 11 11 11 11 10 6 7 8 9 8 9 8 9 9 8 8 7 6 6 6
-3 -3 -3 -3 -2 -2 -2 -2 -2 -2 -2 -1 1 3 1 8 11 12 11 9 9 8 9 10 11 11 11 9 7 7 7 9 9 9 9 9 9 9 8 7 7 7 7
-2 -1 -1 -1 -1 -1 -1 -1 -1 -0 -0 1 2 5 4 4 10 11 11 9 9 10 10 10 10 11 10 6 7 7 7 8 8 9 8 8 8 8 7 7 7 7 5
-1 -2 -2 -2 -2 -1 -1 -1 -1 1 2 3 7 9 10 9 10 11 10 10 9 10 10 10 11 11 9 7 7 7 8 8 8 8 8 8 8 8 7 7 7 7 5
-1 -1 -1 -1 -1 -1 -1 -1 0 1 2 5 8 9 10 10 10 11 11 10 10 10 10 10 10 10 7 7 8 8 9 8 8 8 8 8 8 8 7 6 7 6 7
-1 -1 -1 -1 -1 -1 -0 1 1 2 4 6 8 9 9 10 9 10 10 9 10 11 11 10 10 8 8 8 9 8 7 8 7 8 8 8 7 7 7 6 6 7 6
-1 -1 -2 -1 -1 -1 -1 0 2 3 4 6 8 9 9 9 9 9 9 10 10 10 10 10 8 7 8 8 9 8 8 8 8 7 8 8 8 7 7 6 6 7 6
-2 -2 -2 -2 -2 -2 -1 -0 1 3 4 6 7 8 9 9 9 8 8 10 10 10 9 8 7 7 8 8 8 8 8 8 8 8 8 8 8 8 7 6 5 6 7
-3 -3 -3 -3 -2 -2 -2 -1 1 2 4 6 7 8 9 8 7 7 8 10 10 9 8 7 8 8 8 8 8 8 8 8 8 8 8 7 7 7 7 7 7 6 6
-4 -4 -4 -3 -3 -3 -2 -2 -1 1 3 6 7 7 8 8 8 8 9 9 9 8 7 7 8 8 8 8 8 8 8 8 8 8 7 7 7 7 7 7 7 6 6
-5 -5 -4 -4 -4 -4 -3 -3 -2 -0 1 4 7 7 8 8 8 9 9 9 8 8 7 8 8 8 8 7 7 8 7 8 7 7 7 7 7 7 7 7 7 7 6
-6 -5 -5 -5 -5 -5 -4 -3 -2 -1 -1 1 4 5 7 7 8 8 8 8 8 7 7 7 7 7 7 7 7 7 7 7 7 7 7 7 6 6 6 6 5 5 5
-6 -6 -6 -6 -7 -7 -6 -6 -5 -3 -3 -2 -0 1 3 5 6 7 7 7 7 7 7 7 7 6 6 6 6 6 6 6 6 6 6 6 5 5 5 5 5 5 4
-7 -6 -6 -7 -7 -7 -7 -7 -8 -7 -6 -5 -3 -1 -1 -0 1 4 6 7 7 6 7 6 6 6 6 6 6 6 6 5 5 5 5 5 4 4 3 3 3 3 2
-7 -7 -7 -7 -7 -7 -8 -8 -8 -8 -8 -8 -7 -6 -3 -2 -3 -1 2 5 6 5 6 6 6 6 5 5 5 4 4 4 3 3 3 3 2 1 1 0 -0 -0 -0
-8 -7 -7 -7 -7 -7 -7 -7 -7 -7 -7 -7 -8 -7 -7 -6 -4 -3 -1 0 -0 4 1 4 3 3 3 3 2 1 1 0 0 -0 -0 -0 -1 -1 -2 -2 -2 -2 -2
-8 -8 -8 -8 -7 -7 -7 -7 -6 -7 -7 -6 -7 -7 -7 -6 -5 -4 -3 -1 -1 -1 -0 -2 -1 -2 -2 -2 -2 -2 -2 -2 -2 -2 -3 -3 -3 -3 -3 -4 -4 -4 -6
-8 -8 -8 -8 -8 -8 -7 -7 -7 -7 -7 -7 -7 -7 -7 -6 -6 -5 -5 -3 -3 -3 -4 -4 -4 -5 -5 -5 -4 -4 -4 -4 -4 -5 -4 -5 -5 -4 -6 -10 -19 -26 -30
-9 -9 -9 -9 -8 -8 -8 -8 -8 -8 -8 -8 -8 -8 -7 -7 -6 -6 -5 -5 -6 -7 -7 -7 -7 -7 -6 -6 -6 -6 -6 -6 -6 -6 -7 -11 -20 -26 -29 -29 -29 -29 -28
-10 -10 -10 -9 -9 -9 -9 -9 -10 -11 -12 -12 -10 -9 -8 -6 -6 -7 -7 -8 -8 -8 -8 -8 -8 -8 -8 -8 -8 -9 -11 -16 -19 -22 -24 -25 -25 -27 -28 -28 -27 -28 -27
-11 -10 -10 -10 -10 -11 -12 -15 -17 -18 -17 -17 -17 -17 -17 -13 -11 -10 -10 -10 -10 -10 -10 -9 -10 -11 -14 -18 -22 -23 -24 -24 -23 -23 -23 -23 -23 -24 -23 -23 -24 -24 -25
-11 -11 -11 -11 -12 -13 -14 -17 -20 -21 -20 -20 -19 -19 -19 -20 -20 -20 -20 -19 -19 -18 -18 -19 -19 -19 -19 -20 -20 -21 -22 -23 -23 -23 -24 -23 -22 -23 -24 -26 -26 -27 -28
-13 -13 -13 -13 -15 -17 -19 -21 -22 -22 -22 -21 -21 -21 -21 -21 -20 -20 -19 -19 -19 -19 -19 -21 -22 -23 -23 -23 -23 -23 -24 -25 -25 -24 -25 -26 -26 -27 -27 -29 -29 -30 -31
-14 -14 -14 -15 -16 -18 -19 -20 -21 -23 -24 -24 -24 -24 -23 -22 -22 -21 -21 -21 -21 -22 -22 -23 -23 -23 -23 -24 -25 -26 -27 -27 -27 -28 -28 -29 -30 -31 -30 -31 -32 -32 -32
-15 -15 -15 -15 -15 -17 -18 -19 -21 -22 -23 -25 -26 -26 -26 -27 -26 -25 -25 -24 -25 -27 -28 -28 -28 -27 -27 -28 -28 -29 -30 -29 -30 -32 -32 -32 -32 -32 -32 -32 -32 -32 -32
-17 -17 -16 -17 -17 -17 -18 -19 -20 -20 -22 -23 -25 -27 -27 -28 -28 -28 -29 -29 -29 -30 -30 -31 -31 -31 -31 -31 -31 -31 -31 -31 -31 -32 -32 -32 -32 -32 -32 -32 -31 -31 -31

GFSGL_850_dewp_129.txt.gz
Dewpoint
-1 -2 -3 -2 -4 -5 -4 -4 -4 -5 -5 -4 -4 -4 -2 0 5 8 11 12 12 11 11 10 9 7 10 10 10 11 10 9 8 8 7 8 8 8 9 8 8 7 4
-1 -2 -2 -3 -3 -4 -5 -5 -5 -5 -6 -5 -5 -5 -4 -4 -2 -0 9 12 12 12 11 11 9 8 10 11 10 10 10 8 8 8 7 8 8 8 9 8 8 6 5
-1 -2 -2 -2 -2 -3 -3 -3 -2 -2 -2 -3 -4 -4 -3 -2 -1 -0 2 10 11 12 11 10 8 9 9 10 11 11 10 7 8 8 8 8 8 8 9 8 8 7 7
-0 -1 -1 -2 -3 -3 -2 -3 -3 -3 -3 -2 -2 -2 -2 -1 0 3 5 8 10 11 11 9 9 9 9 10 10 10 9 7 8 7 9 8 9 8 8 8 8 8 7
-1 -2 -2 -2 -2 -2 -2 -2 -2 -2 -2 -1 -1 -0 2 4 6 9 8 8 10 11 11 9 10 9 10 10 10 10 7 7 7 7 8 8 8 8 8 8 8 7 7
-2 -2 -2 -2 -2 -2 -2 -2 -2 -2 0 1 1 1 3 5 7 9 9 9 9 10 11 10 9 10 11 10 11 9 6 7 7 8 8 8 8 8 8 8 8 7 7
-2 -3 -2 -2 -2 -2 -3 -3 -2 -1 0 2 3 3 5 6 8 9 9 9 9 10 10 9 10 10 10 10 9 8 8 8 8 8 8 8 8 7 8 8 7 6 7
-4 -4 -3 -3 -3 -3 -3 -2 -1 -0 1 2 3 4 5 7 8 9 9 9 9 9 10 8 10 10 10 10 8 8 9 9 8 8 8 8 8 8 8 8 7 7 6
-5 -5 -4 -4 -4 -4 -3 -3 -1 -1 0 2 3 4 5 6 8 9 9 9 9 9 9 9 10 9 10 8 8 8 8 9 8 8 8 8 7 7 7 7 8 7 6
-5 -5 -5 -5 -5 -5 -4 -3 -3 -1 -1 -0 2 3 5 7 8 9 8 9 9 9 9 10 9 9 7 8 8 8 8 8 8 8 8 7 7 7 7 7 7 7 6
-6 -6 -6 -6 -6 -6 -5 -5 -4 -3 -1 -1 -0 1 3 5 8 7 8 8 8 9 8 9 9 8 8 8 8 8 8 8 7 7 7 8 7 7 7 7 7 7 7
-6 -6 -6 -6 -6 -6 -6 -6 -5 -4 -3 -2 -1 -0 1 3 5 7 8 8 8 8 9 9 8 8 8 8 8 8 8 8 8 8 7 7 7 7 7 6 6 6 6
-7 -7 -7 -6 -7 -7 -7 -7 -7 -6 -6 -6 -5 -3 -1 0 1 4 7 7 6 8 8 8 8 8 8 8 8 7 7 7 7 7 7 6 6 6 6 6 6 5 5
-7 -7 -7 -7 -7 -7 -7 -7 -8 -8 -7 -7 -7 -6 -4 -2 -1 -0 1 3 5 7 8 7 7 7 7 7 7 7 7 6 6 6 6 5 5 4 4 4 4 4 4
-8 -8 -7 -7 -7 -7 -7 -8 -8 -9 -8 -7 -8 -8 -7 -7 -7 -4 -1 -1 1 4 5 6 6 6 6 6 6 6 5 5 5 4 4 4 3 2 2 1 2 2 2
-8 -8 -8 -8 -7 -7 -7 -7 -7 -7 -7 -6 -6 -6 -7 -7 -6 -6 -4 -1 -1 -1 0 1 2 2 2 3 4 3 3 3 3 3 2 1 1 0 -0 -1 -1 -1 -0
-9 -9 -8 -8 -8 -8 -8 -7 -7 -8 -7 -7 -6 -6 -6 -6 -6 -5 -5 -4 -2 -2 -1 -2 -2 -3 -3 -3 -1 -1 -0 -1 -1 -0 -1 -2 -2 -2 -2 -3 -3 -3 -4
-9 -9 -9 -9 -9 -9 -9 -11 -10 -8 -7 -8 -7 -7 -7 -7 -6 -6 -6 -5 -5 -5 -5 -5 -4 -5 -5 -5 -5 -4 -4 -4 -4 -3 -3 -4 -4 -4 -4 -4 -5 -5 -5
-10 -10 -10 -10 -10 -11 -13 -15 -15 -15 -12 -9 -8 -8 -7 -7 -6 -6 -6 -6 -8 -8 -9 -8 -8 -7 -7 -7 -7 -6 -6 -6 -6 -6 -6 -6 -6 -5 -6 -7 -11 -16 -24
-11 -11 -11 -11 -11 -12 -14 -17 -18 -19 -19 -19 -19 -12 -8 -7 -7 -8 -8 -9 -9 -10 -10 -9 -9 -9 -9 -9 -8 -8 -8 -8 -7 -7 -8 -10 -18 -23 -28 -30 -29 -29 -29
-12 -12 -12 -13 -14 -15 -17 -20 -20 -20 -19 -19 -18 -19 -21 -19 -12 -10 -10 -10 -10 -11 -11 -11 -11 -10 -10 -10 -11 -14 -19 -24 -24 -25 -26 -27 -28 -30 -30 -30 -29 -28 -29
-13 -14 -14 -15 -17 -19 -21 -23 -23 -22 -20 -19 -18 -19 -20 -21 -20 -20 -19 -18 -17 -17 -18 -16 -15 -16 -17 -20 -20 -21 -22 -22 -22 -23 -23 -24 -24 -24 -25 -26 -27 -28 -28
-14 -14 -15 -16 -18 -20 -21 -23 -24 -24 -24 -22 -21 -20 -21 -21 -21 -20 -19 -19 -20 -21 -21 -23 -22 -22 -22 -23 -23 -23 -24 -24 -23 -23 -25 -26 -26 -27 -27 -28 -29 -30 -30
-15 -15 -15 -16 -17 -19 -20 -22 -23 -25 -26 -25 -25 -24 -23 -23 -22 -21 -21 -21 -22 -22 -22 -23 -24 -24 -23 -24 -25 -26 -26 -26 -26 -27 -27 -28 -29 -29 -30 -31 -31 -32 -32
-18 -18 -18 -18 -18 -19 -20 -20 -22 -24 -26 -27 -27 -27 -27 -26 -25 -25 -26 -27 -28 -28 -28 -28 -28 -28 -27 -27 -28 -28 -28 -30 -30 -31 -30 -31 -31 -31 -31 -32 -32 -32 -32
-21 -20 -20 -20 -20 -20 -20 -20 -21 -22 -23 -25 -26 -27 -28 -28 -28 -28 -28 -29 -29 -30 -30 -31 -31 -31 -31 -31 -31 -31 -31 -32 -32 -32 -32 -32 -32 -32 -32 -32 -32 -32 -32

GFSGL_850_dewp_132.txt.gz
Dewpoint
-0 -0 2 3 4 3 3 4 6 8 9 8 8 7 6 7 8 9 9 8 10 12 12 13 12 11 12 11 11 10 11 10 10 10 10 10 9 6 7 8 8 9 8
-2 -2 -2 -2 -2 -3 -3 -3 -3 -3 -3 -3 -3 -2 -1 -1 -0 1 4 7 11 12 12 12 12 12 12 11 10 8 11 10 9 10 10 9 8 7 8 8 8 9 7
-1 -1 -2 -2 -2 -3 -3 -2 -3 -3 -3 -5 -5 -7 -6 -4 -4 -3 -1 4 7 9 11 11 11 12 12 11 10 8 11 10 10 10 10 8 8 7 8 8 9 9 7
-0 -1 -1 -1 -3 -4 -5 -5 -4 -3 -3 -4 -4 -4 -4 -3 -2 -2 2 6 8 8 8 10 9 10 11 11 10 8 10 10 10 10 9 8 7 7 8 9 8 8 8
-2 -2 -2 -2 -2 -3 -3 -4 -3 -3 -3 -3 -3 -3 -3 -2 -1 1 2 5 8 8 8 8 8 7 11 11 9 8 9 10 10 10 8 9 8 7 9 8 8 8 8
-2 -1 -3 -3 -3 -3 -3 -3 -3 -3 -2 -2 -2 -1 0 1 2 2 5 6 8 8 9 8 8 10 10 10 10 9 10 10 10 10 8 8 7 7 8 8 8 8 7
-4 -4 -4 -4 -3 -4 -4 -3 -3 -2 -1 -0 1 1 2 2 3 3 5 7 8 9 9 9 8 10 10 10 11 10 11 10 10 10 8 7 7 7 8 8 8 8 8
-6 -5 -5 -5 -5 -4 -4 -4 -3 -3 -1 0 1 2 2 3 4 4 5 7 9 9 9 9 9 9 9 10 10 10 10 10 9 8 8 8 8 8 8 7 8 8 7
-6 -6 -5 -5 -6 -5 -5 -5 -4 -4 -2 -1 0 1 2 3 4 5 5 8 9 8 8 9 9 8 9 9 10 10 10 9 8 8 9 9 8 8 8 8 8 7 6
-6 -6 -5 -6 -6 -6 -6 -6 -5 -5 -5 -3 -1 -0 0 2 3 4 6 7 8 9 9 9 9 9 9 9 10 9 9 8 8 8 8 8 8 8 8 7 7 7 6
-7 -6 -6 -6 -6 -6 -6 -6 -6 -6 -6 -5 -4 -3 -1 0 2 3 6 7 8 8 8 9 8 9 9 9 9 9 9 8 8 8 9 8 8 8 8 7 7 7 7
-7 -7 -6 -6 -6 -6 -6 -6 -6 -6 -6 -6 -6 -5 -3 -2 -0 2 4 7 7 8 8 8 8 9 9 9 9 9 8 9 8 8 8 8 8 8 7 7 7 7 7
-7 -7 -7 -7 -6 -6 -7 -7 -7 -7 -6 -6 -6 -6 -6 -5 -2 -1 1 3 6 7 7 7 7 8 8 8 8 8 8 8 8 8 8 8 7 7 7 6 6 6 6
-8 -8 -7 -7 -7 -7 -7 -7 -7 -7 -7 -7 -6 -7 -7 -6 -5 -3 -2 -0 1 3 4 4 5 6 8 8 8 8 8 8 8 8 7 7 6 6 5 6 6 6 5
-8 -8 -8 -8 -8 -7 -7 -7 -7 -7 -7 -7 -7 -7 -9 -8 -7 -5 -4 -3 -2 -2 -0 1 2 4 5 7 7 7 6 7 7 7 7 5 5 4 4 3 3 3 3
-9 -9 -9 -9 -8 -9 -9 -8 -8 -8 -7 -7 -7 -7 -7 -8 -6 -6 -5 -4 -3 -3 -2 -2 -2 -0 -1 1 2 1 3 4 5 4 4 3 3 2 2 1 1 1 1
-9 -9 -9 -9 -9 -10 -11 -11 -10 -8 -8 -8 -8 -8 -8 -8 -7 -6 -6 -5 -4 -4 -4 -5 -5 -4 -4 -3 -3 -2 -1 -1 -0 1 1 1 -0 -1 -1 -1 -2 -2 -2
-10 -10 -10 -10 -11 -12 -12 -11 -11 -12 -11 -9 -9 -8 -8 -8 -6 -6 -6 -6 -5 -6 -8 -9 -9 -8 -7 -6 -6 -6 -5 -6 -5 -4 -4 -3 -3 -3 -3 -3 -4 -4 -5
-11 -11 -11 -11 -12 -13 -12 -12 -12 -12 -12 -14 -13 -9 -9 -8 -8 -8 -8 -8 -9 -9 -9 -9 -10 -10 -10 -9 -8 -8 -7 -7 -7 -6 -6 -6 -5 -5 -6 -6 -7 -7 -7
-12 -12 -12 -13 -14 -13 -13 -13 -13 -13 -13 -13 -18 -19 -14 -10 -9 -9 -9 -10 -10 -10 -10 -10 -10 -9 -10 -10 -9 -9 -9 -8 -8 -8 -8 -8 -7 -7 -7 -8 -8 -8 -9
-13 -13 -15 -15 -17 -17 -15 -14 -14 -14 -14 -14 -15 -18 -19 -18 -16 -12 -12 -11 -11 -11 -11 -11 -11 -10 -10 -10 -10 -10 -10 -10 -9 -9 -9 -9 -10 -10 -17 -23 -25 -25 -24
-14 -14 -14 -14 -15 -17 -16 -16 -15 -15 -15 -15 -16 -16 -20 -19 -18 -18 -17 -16 -15 -13 -12 -12 -12 -12 -11 -11 -11 -10 -11 -11 -12 -12 -13 -18 -19 -21 -25 -27 -28 -28 -28
-15 -15 -15 -15 -15 -16 -16 -16 -18 -16 -16 -17 -17 -17 -18 -19 -20 -20 -20 -19 -20 -19 -18 -17 -16 -16 -16 -18 -18 -18 -19 -20 -21 -22 -23 -24 -25 -25 -26 -27 -28 -28 -27
-15 -15 -15 -15 -16 -16 -16 -17 -17 -17 -18 -17 -18 -18 -18 -21 -23 -24 -23 -23 -22 -21 -22 -23 -23 -23 -23 -23 -23 -24 -24 -24 -24 -24 -25 -26 -27 -28 -29 -30 -30 -30 -30
-16 -16 -16 -16 -17 -17 -17 -17 -17 -18 -18 -18 -18 -19 -19 -20 -25 -28 -29 -30 -30 -29 -28 -27 -26 -26 -26 -25 -26 -27 -26 -27 -28 -28 -29 -30 -31 -31 -32 -33 -33 -33 -33
-18 -17 -17 -17 -18 -18 -18 -18 -18 -18 -19 -19 -19 -19 -19 -20 -24 -27 -28 -29 -29 -30 -30 -30 -31 -31 -31 -31 -31 -31 -31 -32 -32 -32 -32 -32 -32 -33 -33 -33 -32 -32 -32